[[{"header":{"parameterUnit":"m.s-1","parameterCategory":1,"la1":30.6,"la2":29.2853,"lo1":-89.7004,"lo2":-87.6739,"dy":0.0162,"dx":0.0183,"nx":112,"ny":82,"refTime":"2023-04-26T00:00:00:Z","depth":0,"parameterNumber":2,"parameterNumberName":"U-component_of_WINDS"},"data":[0.0,0.0,0.0,0.0,0.0,0.0,0.0,0.0,0.0,0.0,0.0,0.0,0.0,0.0,0.0,0.0,0.0,0.0,0.0,0.0,0.0,0.0,0.0,0.0,0.0,0.0,0.0,0.0,0.0,0.0,0.0,0.0,0.0,0.0,0.0,0.0,0.0,0.0,0.0,0.0,0.0,0.0,0.0,0.0,0.0,0.0,0.0,0.0,0.0,0.0,0.0,0.0,0.0,0.0,0.0,0.0,0.0,0.0,0.0,0.0,0.0,0.0,0.0,0.0,0.0,0.0,0.0,0.0,0.0,0.0,0.0,0.0,0.0,0.0,0.0,0.0,0.0,0.0,0.0,0.0,0.0,0.0,0.0,0.0,0.0,0.0,0.0,0.0,0.0,0.0,-1.7182,-2.0179,-2.2993,-2.4636,-2.4636,-2.4636,-2.3861,-2.2031,0.0,0.0,0.0,0.0,0.0,0.0,0.0,0.0,0.0,0.0,0.0,0.0,0.0,0.0,0.0,0.0,0.0,0.0,0.0,0.0,0.0,0.0,0.0,0.0,0.0,0.0,0.0,0.0,0.0,0.0,0.0,0.0,0.0,0.0,0.0,0.0,0.0,0.0,0.0,0.0,0.0,0.0,0.0,0.0,0.0,0.0,0.0,0.0,0.0,0.0,0.0,0.0,0.0,0.0,0.0,0.0,0.0,0.0,0.0,0.0,0.0,0.0,0.0,0.0,0.0,0.0,0.0,0.0,0.0,0.0,0.0,0.0,0.0,0.0,0.0,0.0,0.0,0.0,0.0,0.0,0.0,0.0,0.0,0.0,0.0,0.0,0.0,0.0,0.0,0.0,0.0,0.0,0.0,0.0,0.0,0.0,0.0,0.0,0.0,0.0,0.0,0.0,0.0,0.0,-1.7771,-2.1114,-2.3337,-2.4636,-2.4636,-2.4636,-2.3768,-2.175,0.0,0.0,0.0,0.0,0.0,0.0,0.0,0.0,0.0,0.0,0.0,0.0,0.0,0.0,0.0,0.0,0.0,0.0,0.0,0.0,0.0,0.0,0.0,0.0,0.0,0.0,0.0,0.0,0.0,0.0,0.0,0.0,0.0,0.0,0.0,0.0,0.0,0.0,0.0,0.0,0.0,0.0,0.0,0.0,0.0,0.0,0.0,0.0,0.0,0.0,0.0,0.0,0.0,0.0,0.0,0.0,0.0,0.0,0.0,0.0,0.0,0.0,0.0,0.0,0.0,0.0,0.0,0.0,0.0,0.0,0.0,0.0,0.0,0.0,0.0,0.0,0.0,0.0,0.0,0.0,0.0,0.0,0.0,0.0,0.0,0.0,0.0,0.0,0.0,0.0,0.0,0.0,0.0,0.0,0.0,0.0,0.0,0.0,0.0,0.0,0.0,0.0,0.0,-1.8074,-2.037,-2.288,-2.4031,-2.4703,-2.4863,-2.4877,-2.4062,-2.2138,-2.1871,0.0,0.0,0.0,0.0,0.0,0.0,0.0,0.0,0.0,0.0,0.0,0.0,0.0,0.0,0.0,0.0,0.0,0.0,0.0,0.0,0.0,0.0,0.0,0.0,0.0,0.0,0.0,0.0,0.0,0.0,0.0,0.0,0.0,0.0,0.0,0.0,0.0,0.0,0.0,0.0,0.0,0.0,0.0,0.0,0.0,0.0,0.0,0.0,0.0,0.0,0.0,0.0,0.0,0.0,0.0,0.0,0.0,0.0,0.0,0.0,0.0,0.0,0.0,0.0,0.0,0.0,0.0,0.0,0.0,0.0,0.0,0.0,0.0,0.0,0.0,0.0,0.0,0.0,0.0,0.0,0.0,0.0,0.0,0.0,0.0,0.0,0.0,0.0,0.0,0.0,0.0,0.0,0.0,0.0,0.0,0.0,0.0,0.0,0.0,0.0,0.0,0.0,-2.0248,-2.1633,-2.3799,-2.4499,-2.4943,-2.5157,-2.5184,-2.4356,-2.2432,-2.2178,0.0,0.0,0.0,0.0,0.0,0.0,0.0,0.0,0.0,0.0,0.0,0.0,0.0,0.0,0.0,0.0,0.0,0.0,0.0,0.0,0.0,0.0,0.0,0.0,0.0,0.0,0.0,0.0,0.0,0.0,0.0,0.0,0.0,0.0,0.0,0.0,0.0,0.0,0.0,0.0,0.0,0.0,0.0,0.0,0.0,0.0,0.0,0.0,0.0,0.0,0.0,0.0,0.0,0.0,0.0,0.0,0.0,0.0,0.0,0.0,0.0,0.0,0.0,0.0,0.0,0.0,0.0,0.0,0.0,0.0,0.0,0.0,0.0,0.0,0.0,0.0,0.0,0.0,0.0,0.0,0.0,0.0,0.0,0.0,0.0,0.0,0.0,0.0,0.0,0.0,0.0,0.0,0.0,0.0,0.0,0.0,0.0,0.0,0.0,0.0,0.0,0.0,-1.879,-1.9517,-2.1872,-2.4188,-2.5464,-2.5478,-2.5478,-2.4489,-2.2164,-2.2245,0.0,0.0,0.0,0.0,0.0,0.0,0.0,0.0,0.0,0.0,0.0,0.0,0.0,0.0,0.0,0.0,0.0,0.0,0.0,0.0,0.0,0.0,0.0,0.0,0.0,0.0,0.0,0.0,0.0,0.0,0.0,0.0,0.0,0.0,0.0,0.0,0.0,0.0,0.0,0.0,0.0,0.0,0.0,0.0,0.0,0.0,0.0,0.0,0.0,0.0,0.0,0.0,0.0,0.0,0.0,0.0,0.0,0.0,0.0,0.0,0.0,0.0,0.0,0.0,0.0,0.0,0.0,0.0,0.0,0.0,0.0,0.0,0.0,0.0,0.0,0.0,0.0,0.0,0.0,0.0,0.0,0.0,0.0,0.0,0.0,0.0,0.0,0.0,0.0,0.0,0.0,0.0,0.0,0.0,0.0,0.0,0.0,0.0,0.0,0.0,0.0,0.0,-2.0116,-2.1136,-2.2047,-2.4189,-2.5585,-2.5772,-2.5785,-2.4863,-2.2672,0.0,0.0,0.0,0.0,0.0,0.0,0.0,0.0,0.0,0.0,0.0,0.0,0.0,0.0,0.0,0.0,0.0,0.0,0.0,0.0,0.0,0.0,0.0,0.0,0.0,0.0,0.0,0.0,0.0,0.0,0.0,0.0,0.0,0.0,0.0,0.0,0.0,0.0,0.0,0.0,0.0,0.0,0.0,0.0,0.0,0.0,0.0,0.0,0.0,0.0,0.0,0.0,0.0,0.0,0.0,0.0,0.0,0.0,0.0,0.0,0.0,0.0,0.0,0.0,0.0,0.0,0.0,0.0,0.0,0.0,0.0,0.0,0.0,0.0,0.0,0.0,0.0,0.0,0.0,0.0,0.0,0.0,0.0,0.0,0.0,0.0,0.0,0.0,0.0,0.0,0.0,0.0,0.0,0.0,0.0,0.0,0.0,0.0,0.0,0.0,0.0,0.0,-1.9652,-2.1024,-2.2027,-2.3283,-2.4791,-2.5879,-2.6079,-2.6092,-2.517,-2.3006,0.0,0.0,0.0,0.0,0.0,0.0,0.0,0.0,0.0,0.0,0.0,0.0,0.0,0.0,0.0,0.0,0.0,0.0,0.0,0.0,0.0,0.0,0.0,0.0,0.0,0.0,0.0,0.0,0.0,0.0,0.0,0.0,0.0,0.0,0.0,0.0,0.0,0.0,0.0,0.0,0.0,0.0,0.0,0.0,0.0,0.0,0.0,0.0,0.0,0.0,0.0,0.0,0.0,0.0,0.0,0.0,0.0,0.0,0.0,0.0,0.0,0.0,0.0,0.0,0.0,0.0,0.0,0.0,0.0,0.0,0.0,0.0,0.0,0.0,0.0,0.0,0.0,0.0,0.0,0.0,0.0,0.0,0.0,0.0,0.0,0.0,0.0,0.0,0.0,0.0,0.0,0.0,0.0,0.0,0.0,0.0,0.0,0.0,0.0,0.0,0.0,0.0,-2.1559,-2.0877,-2.132,-2.5478,-2.6213,-2.6386,-2.6386,-2.6386,-2.5384,0.0,0.0,0.0,0.0,0.0,0.0,0.0,0.0,0.0,0.0,0.0,0.0,0.0,0.0,0.0,0.0,0.0,0.0,0.0,0.0,0.0,0.0,0.0,0.0,0.0,0.0,0.0,0.0,0.0,0.0,0.0,0.0,0.0,0.0,0.0,0.0,0.0,0.0,0.0,0.0,0.0,0.0,0.0,0.0,0.0,0.0,0.0,0.0,0.0,0.0,0.0,0.0,0.0,0.0,0.0,0.0,0.0,0.0,0.0,0.0,0.0,0.0,0.0,0.0,0.0,0.0,0.0,0.0,0.0,0.0,0.0,0.0,0.0,0.0,0.0,0.0,0.0,0.0,0.0,0.0,0.0,0.0,0.0,0.0,0.0,0.0,0.0,0.0,0.0,0.0,0.0,0.0,0.0,0.0,0.0,0.0,0.0,0.0,0.0,0.0,0.0,0.0,0.0,-1.9646,-2.0071,-2.0932,-2.3671,-2.5358,-2.6386,-2.6386,-2.6386,-2.5291,-2.2712,0.0,0.0,0.0,0.0,0.0,0.0,0.0,0.0,0.0,0.0,0.0,0.0,0.0,0.0,0.0,0.0,0.0,0.0,0.0,0.0,0.0,0.0,0.0,0.0,0.0,0.0,0.0,0.0,0.0,0.0,0.0,0.0,0.0,0.0,0.0,0.0,0.0,0.0,0.0,0.0,0.0,0.0,0.0,0.0,0.0,0.0,0.0,0.0,0.0,0.0,0.0,0.0,0.0,0.0,0.0,0.0,0.0,0.0,0.0,0.0,0.0,0.0,0.0,0.0,0.0,0.0,0.0,0.0,0.0,0.0,0.0,0.0,0.0,0.0,0.0,0.0,0.0,0.0,0.0,0.0,0.0,0.0,0.0,0.0,0.0,0.0,0.0,0.0,0.0,0.0,0.0,0.0,0.0,0.0,0.0,0.0,0.0,0.0,0.0,0.0,0.0,0.0,-2.0316,-2.0331,-2.1039,-2.4111,-2.5581,-2.6386,-2.6386,-2.6386,-2.5504,-2.3434,0.0,0.0,0.0,0.0,0.0,0.0,0.0,0.0,0.0,0.0,0.0,0.0,0.0,0.0,0.0,0.0,0.0,0.0,0.0,0.0,0.0,0.0,0.0,0.0,0.0,0.0,0.0,0.0,0.0,0.0,0.0,0.0,0.0,0.0,0.0,0.0,0.0,0.0,0.0,0.0,0.0,0.0,0.0,0.0,0.0,0.0,0.0,0.0,0.0,0.0,0.0,0.0,0.0,0.0,0.0,0.0,0.0,0.0,0.0,0.0,0.0,0.0,0.0,0.0,0.0,0.0,0.0,0.0,0.0,0.0,0.0,0.0,0.0,0.0,0.0,0.0,0.0,0.0,0.0,0.0,0.0,0.0,0.0,0.0,0.0,0.0,0.0,0.0,0.0,0.0,0.0,0.0,0.0,0.0,0.0,0.0,0.0,0.0,0.0,0.0,0.0,0.0,-2.2271,-2.1091,-2.1523,-2.5898,-2.6386,-2.6386,-2.6386,-2.6386,-2.5879,-2.4676,0.0,0.0,0.0,0.0,0.0,0.0,0.0,0.0,0.0,0.0,0.0,0.0,0.0,0.0,0.0,0.0,0.0,0.0,0.0,0.0,0.0,0.0,0.0,0.0,0.0,0.0,0.0,0.0,0.0,0.0,0.0,0.0,0.0,0.0,0.0,0.0,0.0,0.0,0.0,0.0,0.0,0.0,0.0,0.0,0.0,0.0,0.0,0.0,0.0,0.0,0.0,0.0,0.0,0.0,0.0,0.0,0.0,0.0,0.0,0.0,-1.0429,0.0,0.0,0.0,0.0,0.0,0.0,0.0,0.0,0.0,0.0,0.0,0.0,0.0,0.0,0.0,0.0,0.0,0.0,0.0,0.0,0.0,0.0,0.0,0.0,0.0,0.0,0.0,0.0,0.0,0.0,0.0,0.0,0.0,0.0,0.0,0.0,0.0,0.0,0.0,0.0,0.0,-2.2147,-2.1091,-2.1523,-2.5898,-2.6386,-2.6386,-2.6386,-2.6386,-2.5798,-2.4382,-2.3995,0.0,0.0,0.0,0.0,0.0,0.0,0.0,0.0,0.0,0.0,0.0,0.0,0.0,0.0,0.0,0.0,0.0,0.0,0.0,0.0,0.0,0.0,0.0,0.0,0.0,0.0,0.0,0.0,0.0,0.0,0.0,0.0,0.0,0.0,0.0,0.0,0.0,0.0,0.0,0.0,0.0,0.0,0.0,0.0,0.0,0.0,0.0,0.0,0.0,0.0,0.0,0.0,0.0,0.0,0.0,0.0,0.0,0.0,0.0,0.0,-1.1274,0.0,0.0,0.0,0.0,0.0,0.0,0.0,0.0,0.0,0.0,0.0,0.0,0.0,0.0,0.0,0.0,0.0,0.0,0.0,0.0,0.0,0.0,0.0,0.0,0.0,0.0,0.0,0.0,0.0,0.0,0.0,0.0,0.0,0.0,0.0,0.0,0.0,0.0,0.0,0.0,-2.2297,-2.1091,-2.1523,-2.5898,-2.6386,-2.6453,-2.6587,-2.66,-2.6333,-2.5718,-2.501,0.0,0.0,0.0,0.0,0.0,0.0,0.0,0.0,0.0,0.0,0.0,0.0,0.0,0.0,0.0,0.0,0.0,0.0,0.0,0.0,0.0,0.0,0.0,0.0,0.0,0.0,0.0,0.0,0.0,0.0,0.0,0.0,0.0,0.0,0.0,0.0,0.0,0.0,0.0,0.0,0.0,0.0,0.0,0.0,0.0,0.0,0.0,0.0,0.0,0.0,0.0,0.0,0.0,-0.9231,-1.0668,-0.7535,-1.0482,-1.164,-1.1592,-1.1762,-1.1697,-1.169,-1.1443,0.0,0.0,0.0,0.0,0.0,0.0,0.0,0.0,0.0,0.0,0.0,0.0,0.0,0.0,0.0,0.0,0.0,0.0,0.0,0.0,0.0,0.0,0.0,0.0,-1.1938,-1.1945,-1.1932,0.0,0.0,0.0,0.0,0.0,0.0,0.0,0.0,0.0,0.0,0.0,-2.1945,-2.122,-2.2028,-2.5977,-2.6466,-2.6587,-2.6867,-2.6894,-2.7001,-2.7255,-2.6132,-2.5371,0.0,0.0,0.0,0.0,0.0,0.0,0.0,0.0,0.0,0.0,0.0,0.0,0.0,0.0,0.0,0.0,0.0,0.0,0.0,0.0,0.0,0.0,0.0,0.0,0.0,0.0,0.0,0.0,0.0,0.0,0.0,0.0,1.0175,1.0052,0.0,0.0,0.0,0.0,0.0,0.0,0.0,0.0,0.0,0.0,0.0,0.0,0.0,-0.0,-0.0,-0.0,-0.3723,-1.0919,-1.1931,-1.2172,-1.1625,-1.2226,-1.2366,-1.2338,-1.1986,0.0,-1.183,-1.1769,0.0,0.0,0.0,0.0,0.0,0.0,0.0,0.0,0.0,0.0,0.0,0.0,0.0,0.0,0.0,0.0,0.0,0.0,0.0,0.0,0.0,0.0,-1.3091,-1.3152,-1.2779,-1.2549,0.0,-1.2081,-1.1226,-1.1633,-1.128,0.0,0.0,0.0,0.0,0.0,0.0,0.0,-2.0576,-2.1869,-2.3716,-2.6413,-2.676,-2.6881,-2.7188,-2.7201,-2.7228,-2.7268,-2.7081,-2.652,-2.5504,-2.668,0.0,0.0,0.0,0.0,0.0,0.0,0.0,0.0,0.0,0.0,0.0,0.0,0.0,0.0,0.0,0.0,0.0,0.0,0.0,0.0,0.0,0.0,0.0,0.0,0.0,0.0,0.0,0.0,0.0,1.0076,1.0473,1.083,0.9021,0.8033,0.0,0.0,0.0,0.0,0.0,0.0,0.0,0.0,0.0,-0.0,-0.0,-0.0,-0.0,-0.4662,-0.8865,-1.2442,-1.2539,-1.2522,-1.2556,-1.2535,-1.2515,-1.2488,-1.2291,-1.221,-1.2189,-1.1932,-1.183,-1.1789,0.0,0.0,0.0,0.0,-1.0643,-1.0846,-1.0704,-1.1097,-1.1653,-1.1565,0.0,0.0,0.0,0.0,0.0,0.0,0.0,-1.2006,0.0,0.0,-1.3091,-1.3342,-1.32,-1.3078,-1.3342,-1.2617,-1.1999,0.0,-1.1789,-1.1628,-1.3019,-1.4009,0.0,0.0,0.0,-1.9311,-2.0967,-2.252,-2.428,-2.6865,-2.7068,-2.7188,-2.7482,-2.7509,-2.7575,-2.7749,-2.7762,-2.7535,-2.7014,-2.7602,-2.7014,0.0,0.0,0.0,0.0,0.0,0.0,0.0,0.0,0.0,0.0,0.0,0.0,0.0,0.0,0.0,0.0,0.0,0.0,0.0,0.0,0.0,0.0,0.0,0.0,0.0,0.0,0.0,0.0,1.0121,1.0524,1.1519,0.9076,0.7075,0.0,0.0,0.0,0.0,0.0,0.0,-0.0,-0.0,-0.0,-0.0,-0.0,-0.0,-0.0,-0.6239,-1.0429,-1.2488,-1.2549,-1.2569,-1.2562,-1.2528,-1.2515,-1.2515,-1.2508,-1.2501,-1.2474,-1.2142,-1.1999,-1.1993,-1.1877,-1.1626,-1.1314,-1.1165,-1.1226,-1.1375,-1.1226,-1.1667,-1.2271,-1.2155,-1.2223,-1.2298,-1.2074,0.0,0.0,0.0,0.0,-1.2298,-1.2596,-1.2786,-1.2983,-1.3322,-1.3403,-1.3403,-1.3403,-1.2929,-1.2583,0.0,-1.2332,-1.217,-1.292,-1.3737,0.0,-1.4522,-1.6616,-1.8866,-2.0888,-2.2623,-2.4559,-2.7171,-2.7375,-2.7495,-2.7789,-2.7816,-2.7909,-2.8123,-2.8136,-2.8136,-2.8136,-2.8136,-2.7629,-2.6533,0.0,0.0,0.0,0.0,0.0,0.0,0.0,0.0,0.0,0.0,0.0,0.0,0.0,0.0,0.0,0.0,0.0,0.0,0.0,0.0,0.0,0.0,0.0,0.0,0.0,0.0,0.0,0.0,0.0,1.1417,1.1416,0.0,0.0,0.0,0.0,-0.0,-0.0,-0.0,-0.0,-0.0,-0.0,-0.0,-0.0,-0.0,-0.0,-0.0468,-0.4552,-1.2474,-1.2474,-1.2467,-1.2447,-1.2569,-1.2549,-1.2549,-1.2515,-1.2501,-1.2501,-1.2474,-1.2467,-1.2427,-1.1999,-1.1816,-1.1728,-1.1165,-1.1409,-1.1993,-1.1837,-1.2284,-1.2915,-1.2908,-1.2718,-1.2413,-1.1972,-1.1932,0.0,0.0,-1.2257,-1.2671,-1.2549,-1.2935,-1.337,-1.3397,-1.3403,-1.3403,-1.3403,-1.2929,-1.2671,0.0,-1.2874,-1.2447,-1.258,0.0,-1.42,-1.2093,-1.5492,-1.8588,-1.9357,-2.1972,-2.4839,-2.7476,-2.7682,-2.7802,-2.8096,-2.8123,-2.8123,-2.8136,-2.8136,-2.8136,-2.8136,-2.8136,-2.811,-2.803,-2.6667,0.0,0.0,0.0,0.0,0.0,0.0,0.0,0.0,0.0,0.0,0.0,0.0,0.0,0.0,0.0,0.0,0.0,0.0,0.0,0.0,0.0,0.0,0.0,0.0,0.0,0.0,0.0,0.0,0.4572,0.42,0.0,0.0275,-0.0,-0.0,-0.0,-0.0,-0.0,-0.0,-0.0,-0.0,-0.0,-0.0,-0.0,-0.0,-0.0,-0.1566,-0.4542,-0.7209,-0.8471,-0.8462,-0.8457,-1.003,-1.2427,-1.2576,-1.2569,-1.2569,-1.2569,-1.2556,-1.2522,-1.2386,-1.2233,-1.2293,-1.2085,-1.2073,-1.2364,-1.2617,-1.2827,-1.3139,-1.322,-1.3173,-1.3051,-1.2888,-1.2881,-1.2915,-1.2854,-1.2996,-1.3146,-1.3091,-1.3241,-1.3403,-1.3403,-1.3403,-1.3403,-1.3403,-1.3234,-1.3146,-1.3356,-1.2915,-1.2838,-1.4019,-1.4076,-1.4486,-1.6059,-1.8246,-2.0507,-2.2459,-2.4882,-2.6812,-2.7949,-2.7989,-2.803,-2.8136,-2.8136,-2.8136,-2.8136,-2.8136,-2.8136,-2.8136,-2.8136,-2.8136,-2.8136,-2.7829,-2.6734,0.0,0.0,0.0,0.0,0.0,0.0,0.0,0.0,0.0,0.0,0.0,0.0,0.0,0.0,0.0,0.0,0.0,0.0,0.0,0.0,0.0,0.0,0.0,0.0,0.0,0.0,0.7098,0.0694,-0.0,-0.0,-0.0,-0.0,-0.0,-0.0,-0.0,-0.0,-0.0,-0.0,-0.0,-0.0,-0.0,-0.0,-0.0,-0.0,-0.0,-0.0,-0.2817,-0.4227,-0.4227,-0.4222,-0.5739,-0.8426,-0.9821,-1.0429,-1.0597,-1.1947,-1.2521,-1.2344,-1.0908,-1.0482,-1.0396,-1.0434,-1.0362,-1.0633,-1.2488,-1.322,-1.3144,-1.3376,-1.3403,-1.3403,-1.3403,-1.3403,-1.3403,-1.3403,-1.3403,-1.3403,-1.3403,-1.3403,-1.3403,-1.3403,-1.3403,-1.3403,-1.3403,-1.3241,-1.3173,-1.3431,-1.3152,-1.3144,-1.4072,-1.3661,-1.4275,-1.6798,-1.7456,-1.8824,-2.1789,-2.3992,-2.5502,-2.654,-2.7495,-2.8136,-2.8136,-2.7776,-2.7722,-2.8123,-2.7776,-2.7776,-2.8283,-2.7816,-2.7549,-2.7549,-2.7268,-2.6453,-2.5077,0.0,0.0,0.0,0.0,0.0,0.0,0.0,0.0,0.0,0.0,0.0,0.0,0.0,0.0,0.0,0.0,0.0,0.0,0.0,0.0,0.0,0.0,0.0,0.494,0.6855,0.6469,0.0689,-0.0,-0.0,-0.0,-0.0,-0.0,-0.0,-0.0,-0.0,-0.0,-0.0,-0.0,-0.0,-0.0,-0.0,-0.0,-0.0,-0.0,-0.0,-0.0,-0.0,-0.0,-0.0,-0.0,-0.0292,-0.429,-0.6243,-0.6586,-1.0802,-1.2549,-1.2058,-0.7823,-0.6055,-0.6065,-0.613,-0.6035,-0.6766,-1.1517,-1.3264,-1.3444,-1.341,-1.3403,-1.3403,-1.3403,-1.3403,-1.3403,-1.3403,-1.3403,-1.3403,-1.3403,-1.3403,-1.3403,-1.3403,-1.3403,-1.3403,-1.3403,-1.2949,-1.2752,-1.3492,-1.3641,-1.341,-1.2678,-1.2671,-1.3035,-1.4187,-1.2927,0.0,-1.7536,-1.9419,-2.1217,-2.3442,-2.6397,-2.8096,-2.8136,-2.7068,-2.6894,-2.8083,-2.7094,-2.7121,-2.8564,-2.7241,-2.648,-2.648,-2.4887,-2.498,-2.6854,0.0,0.0,0.0,0.0,0.0,0.0,0.0,0.0,0.0,0.0,0.0,0.0,0.0,0.0,0.0,0.0,0.0,0.0,0.0,0.0,0.0,0.0,0.8546,0.4994,0.3341,0.1792,0.0145,-0.0,-0.0,-0.0,-0.0,-0.0,-0.0,-0.0,-0.0,-0.0,-0.0,-0.0,-0.0,-0.0,-0.0,-0.0,-0.0,-0.0,-0.0,-0.0,-0.0,-0.0,-0.0,-0.0,-0.0,-0.1248,-0.3443,-0.6566,-1.0866,-1.2481,-1.1745,-0.4533,-0.1788,-0.1802,-0.1807,-0.1655,-0.2323,-0.7016,-1.0695,-1.3444,-1.341,-1.3403,-1.3403,-1.3403,-1.3403,-1.3403,-1.3403,-1.3403,-1.3403,-1.3403,-1.3403,-1.3403,-1.3403,-1.3403,-1.3431,-1.3546,-1.3437,-1.341,-1.3722,-1.3871,-1.3885,-1.3675,-1.3675,-1.4351,-1.6434,-1.6426,-1.7767,-2.2288,-2.3098,-2.4329,-2.6682,-2.6786,-2.6987,-2.8056,-2.7068,-2.6987,-2.839,-2.8377,-2.8497,-2.8898,-2.8524,-2.8417,-2.8631,-2.3657,-2.3133,0.0,0.0,0.0,0.0,0.0,0.0,0.0,0.0,0.0,0.0,0.0,0.0,0.0,0.0,0.0,0.0,0.0,0.0,0.0,0.0,0.0,0.0,0.9723,0.9434,0.779,0.3102,-0.0,-0.0,-0.0,-0.0,-0.0,-0.0,-0.0,-0.0,-0.0,-0.0,-0.0,-0.0,-0.0,-0.0,-0.0,-0.0,-0.0,-0.0,-0.0,-0.0,-0.0,-0.0,-0.0,-0.0,-0.0,-0.0,-0.0,-0.1418,-0.3922,-0.6281,-0.7192,0.0,0.0,0.0,0.0,0.0,-0.0,-0.0669,-0.5161,-0.9632,-1.3464,-1.3417,-1.3403,-1.3403,-1.3403,-1.318,-1.2935,-1.2935,-1.2712,-1.2535,-1.2854,-1.2935,-1.3017,-1.3329,-1.3451,-1.3519,-1.3607,-1.3485,-1.3464,-1.3858,-1.3804,0.0,-1.4109,-1.3905,-1.428,-1.6155,-1.6605,-1.8054,-2.1446,-2.2386,-2.3703,-2.6044,-2.5839,-2.6259,-2.8257,-2.7255,0.0,0.0,0.0,-2.8297,-2.8297,-2.8297,0.0,0.0,0.0,-2.398,-2.7696,-2.535,0.0,0.0,-2.6172,-2.5571,0.0,0.0,0.0,0.0,0.0,0.0,0.0,0.0,0.0,0.0,0.0,0.0,0.0,0.0,0.0,0.0,0.9504,0.9912,1.1462,0.4926,-0.0,-0.0,-0.0,-0.0,-0.0,-0.0,-0.0,-0.0,-0.0,-0.0,-0.0,0.0,0.0,0.0,0.0,-0.0,-0.0,-0.0,-0.0,-0.0,-0.0,-0.0,-0.0,-0.0,-0.0,-0.0,-0.0,-0.0,-0.0,-0.0,-0.0,-0.0,-0.0,-0.0,-0.0,-0.0,-0.0,-0.0673,-0.5161,0.0,0.0,-1.3424,-1.3403,-1.3403,-1.3403,-1.2942,-1.2413,-1.2413,-1.1932,-1.1572,-1.2244,-1.2413,-1.2589,-1.3268,-1.3532,-1.3641,-1.3675,-1.337,-1.3288,-1.3966,-1.3668,-1.3512,-1.4183,-1.3743,-1.3556,-1.4228,-1.501,-1.6055,-1.7683,-1.8983,-2.0889,-2.3488,-2.4246,0.0,-2.8433,-2.7562,-2.7509,-2.8991,-2.8136,-2.7562,-2.7562,-2.7397,-2.6743,-2.6026,-2.5281,-2.5898,-2.7949,-2.7601,-2.8274,-2.9488,-2.7065,-2.6547,0.0,0.0,0.0,0.0,0.0,0.0,0.0,0.0,0.0,0.0,0.0,0.0,0.0,0.0,0.0,1.0238,0.8116,0.7747,1.1058,0.4872,-0.0,-0.0,-0.0,-0.0,-0.0,-0.0,-0.0,-0.0,-0.0,-0.0,-0.0,-0.0,-0.0,-0.0,-0.0,-0.0,-0.0,-0.0,-0.0,-0.0,0.0,0.0,-0.0,-0.0,-0.0,-0.0,-0.0,-0.0,-0.0,-0.0,-0.0,-0.0,-0.0,-0.0,-0.0,-0.0,-0.0,-0.0669,-0.509,-0.9703,-1.3325,-1.3424,-1.3403,-1.3403,-1.3403,-1.3302,0.0,-1.3186,-1.3078,-1.3003,-1.3146,-1.3186,-1.3254,-1.3519,-1.3607,-1.3695,-1.3933,-1.3919,-1.3933,-1.4204,-1.4163,-1.4129,-1.4278,-1.4177,-1.4208,-1.4228,-1.4372,-1.5383,-1.7561,-1.8058,-1.9942,-2.4426,-2.3904,-2.4802,-2.8645,-2.7869,-2.7816,-2.9299,-2.9406,-2.9406,-2.9406,-2.7409,-2.7309,-2.9072,-2.5079,-2.5194,-2.9486,-2.7483,-2.6713,-2.6954,-2.8419,-2.814,0.0,0.0,0.0,0.0,0.0,0.0,0.0,0.0,0.0,0.0,0.0,0.9842,0.0,0.0,1.0366,1.0353,0.7727,0.7117,1.1036,0.4948,-0.0,-0.0,-0.0,-0.0,-0.0,-0.0,-0.0,-0.0,-0.0,-0.0,-0.0,-0.0,-0.0,-0.0,-0.0,-0.0,-0.0,-0.0,-0.0,-0.0,-0.0,-0.0,-0.0,-0.0,-0.0,-0.0,-0.0,-0.0,-0.0,-0.0,-0.0,-0.0,-0.0,-0.0,-0.0,-0.0,-0.0,-0.0671,-0.5194,-0.9682,-1.3325,-1.3424,-1.3403,-1.3403,-1.3403,-1.3139,-1.2847,-1.2847,-1.2569,-1.2366,-1.2745,-1.2901,-1.3064,-1.3519,-1.3743,-1.3892,-1.4041,-1.4129,-1.4211,-1.4285,-1.4299,-1.4299,-1.4299,-1.4299,-1.4299,-1.4299,-1.5337,-1.6553,-1.7588,-1.7839,-1.9683,-2.4523,-2.3391,-2.4314,-2.8815,-2.8858,-2.8911,-2.9646,-2.8732,-2.8629,-2.9913,-2.7521,-2.6785,-2.8076,-2.5673,-2.4945,-2.6229,-2.4945,-2.4398,-2.4398,-2.5684,-2.5491,0.0,0.0,0.0,0.0,0.0,0.0,0.0,0.0,1.0134,1.0019,1.0107,1.0249,1.0371,1.0446,1.0432,1.0498,0.793,0.6639,0.8967,0.3905,-0.0,-0.0,-0.0,-0.0,-0.0,-0.0,-0.0,-0.0,-0.0,-0.0,-0.0,-0.0,-0.0,-0.0,-0.0,-0.0,-0.0,-0.0,-0.0,-0.0,-0.0,-0.0,-0.0,-0.0,-0.0,-0.0,-0.0,-0.0,-0.0,-0.0,-0.0,-0.0,-0.0,-0.0,-0.0,-0.0,-0.1179,-0.3029,-0.5703,-0.9574,-1.3485,-1.3424,-1.3403,-1.3403,-1.3403,-1.2983,-1.2508,-1.2508,-1.2067,-1.1742,-1.2386,-1.2637,-1.2888,-1.3559,-1.3899,-1.4082,-1.4109,-1.4211,-1.4299,-1.4299,-1.4299,-1.4299,-1.4299,-1.4299,-1.4299,-1.4299,-1.5858,-1.708,-1.7112,-1.725,-1.9124,-2.3973,-2.3091,-2.384,-2.8449,-2.868,-2.8436,-2.8436,-2.6604,-2.6411,-2.8436,-2.6592,-2.5491,-2.5491,-2.5491,-2.458,-2.2556,-2.2556,-2.2372,-2.182,-2.182,-2.182,1.7888,1.4501,1.1531,1.0559,1.0023,0.9666,0.0,0.0,1.1267,1.0731,1.1145,1.1613,1.1626,1.1857,1.1768,1.1101,0.8296,0.5117,0.1716,0.0627,-0.0,-0.0,-0.0,-0.0,-0.0,-0.0,-0.0,-0.0,-0.0,-0.0,-0.0,-0.0,-0.0,-0.0,-0.0,-0.0,-0.0,-0.0,-0.0,-0.0,-0.0,-0.0,-0.0,-0.0,-0.0,-0.0,-0.0,-0.0,-0.0,-0.0,-0.0,-0.0,-0.0,-0.0,-0.0,-0.0,-0.5053,-1.1322,-0.7889,-0.9559,-1.3451,-1.341,-1.3403,-1.3403,-1.3403,-1.3342,-1.3275,-1.3275,-1.3214,-1.32,-1.3424,-1.3492,-1.3593,-1.3939,-1.4048,-1.4109,-1.4245,-1.4285,-1.4299,-1.4299,-1.4299,-1.4299,-1.4299,-1.4299,-1.4299,-1.4299,-1.4476,-1.4694,-1.4819,-1.4854,-1.6923,-2.2101,-2.2352,-2.3359,-2.6352,-2.4558,-2.3289,-2.3483,-2.3106,-2.3106,-2.3289,-2.3106,-2.2923,-2.2923,-2.2923,-2.2739,-2.2556,-2.2556,-2.1452,-1.9233,-1.9233,-1.9233,1.6133,1.4425,1.2984,1.0963,1.0644,1.0792,1.0853,1.126,1.1572,1.1402,1.1613,1.1884,1.2067,1.1918,1.1764,0.0,1.0364,0.7113,0.0934,-0.0,-0.0,-0.0,-0.0,-0.0,-0.0,-0.0,-0.0,-0.0,-0.0,-0.0,-0.0,-0.0,-0.0,-0.0,-0.0,-0.0,-0.0,-0.0,-0.0,-0.0,-0.0,-0.0,-0.0,-0.0,-0.0,-0.0,-0.0,-0.0,-0.0,-0.0,-0.0,-0.0,-0.0,-0.0,-0.0,-0.0,-0.5726,-1.3204,-1.1288,-1.1772,-1.3444,-1.341,-1.3403,-1.3403,-1.3403,-1.3403,-1.3403,-1.3403,-1.3403,-1.3437,-1.3587,-1.3688,-1.3804,-1.4021,-1.4143,-1.4224,-1.4285,-1.4299,-1.4299,-1.4299,-1.4299,-1.4299,-1.4299,-1.4299,-1.4326,-1.4414,-1.4421,-1.4441,-1.4502,-1.4672,-1.6125,-2.0006,-2.15,-2.282,-2.4011,-2.3106,-2.2556,-2.2556,-2.1267,-2.1083,-2.2372,-2.1083,-2.0344,-2.0344,-2.0344,-1.9613,-1.8321,-1.8321,-1.7771,-1.6658,-1.6658,-1.6658,1.5131,1.4286,1.3611,1.1524,1.117,1.1362,1.1572,1.1647,1.1708,1.1809,1.1898,1.2026,1.225,1.1965,1.1884,1.2447,1.2025,0.9777,0.4201,0.1407,-0.0,-0.0,-0.0,-0.0,-0.0,-0.0,-0.0,-0.0,-0.0,-0.0,-0.0,-0.0,-0.0,-0.0,-0.0,-0.0,-0.0,-0.0,-0.0,-0.0,-0.0,-0.0,-0.0,-0.0,-0.0,-0.0,-0.0,-0.0,-0.0,-0.0,-0.0,-0.0,-0.0,-0.0,-0.0,-0.0,-0.488,-1.1652,-1.2997,-1.3471,-1.3431,-1.341,-1.3403,-1.3403,-1.3403,-1.3403,-1.3403,-1.3403,-1.3431,-1.3498,-1.3648,-1.3797,-1.3946,-1.4095,-1.4217,-1.4299,-1.4299,-1.4299,-1.4299,-1.4299,-1.4299,-1.4299,-1.4299,-1.4333,-1.4394,-1.4496,-1.4584,-1.4638,-1.4638,-1.5406,-1.6717,-1.8668,-2.0529,-2.1452,-2.1452,-2.0899,-2.0529,-2.0529,-1.8871,-1.8685,-2.0344,-1.8871,-1.7949,-1.7949,-1.7949,-1.7025,-1.5181,-1.5181,-1.5181,-1.5181,-1.5181,-1.5181,1.5748,1.3805,1.1829,1.2109,1.1279,1.0717,1.145,1.1728,1.1823,1.183,1.2067,1.2277,1.2291,1.2386,1.2474,1.2501,1.2515,1.2387,1.2122,0.5165,-0.0,-0.0,-0.0,-0.0,0.0,-0.0,-0.0,-0.0,-0.0,-0.0,-0.0,-0.0,-0.0,-0.0,-0.0,-0.0,-0.0,-0.0,-0.0,-0.0,-0.0,-0.0,-0.0,-0.0,-0.0,-0.0,-0.0,-0.0,-0.0,-0.0,-0.0,-0.0,-0.0,-0.0,-0.0,-0.0,-0.2855,-0.7547,-1.1957,-1.3458,-1.3403,-1.3403,-1.3403,-1.3403,-1.3403,-1.3403,-1.3403,-1.3403,-1.3505,-1.3654,-1.3797,-1.3946,-1.4102,-1.4258,-1.4299,-1.4299,-1.4299,-1.4299,-1.4299,-1.4299,-1.4299,-1.4299,-1.4299,-1.4414,-1.4509,-1.4509,-1.4767,-1.4957,-1.4957,-1.7289,-1.8862,-1.8871,-1.9056,-1.9056,-1.9056,-1.6845,-1.5368,-1.5368,-1.5368,-1.5368,-1.5368,-1.5368,-1.5368,-1.5368,-1.5368,-1.5368,-1.5181,-1.5181,-1.5181,-1.5181,-1.5181,-1.5181,1.5451,1.5297,1.5375,1.3392,1.2986,1.2812,1.1844,1.1728,1.1857,1.1965,1.1748,1.1572,1.1674,1.1328,1.1192,1.1681,1.1362,1.1402,1.2427,0.7729,0.3104,0.03,-0.0,-0.0,-0.0,0.0,0.0,-0.0,-0.0,-0.0,-0.0,-0.0,-0.0,-0.0,-0.0,-0.0,-0.0,-0.0,-0.0,-0.0,-0.0,-0.0,-0.0,-0.0,-0.0,-0.0,-0.0,-0.0,-0.0,-0.0,-0.0,-0.0,-0.0,-0.0,-0.0674,-0.6741,-0.7905,-0.7376,-1.179,-1.3458,-1.3403,-1.3403,-1.3403,-1.3403,-1.3403,-1.3471,-1.3553,-1.3553,-1.3654,-1.3804,-1.3953,-1.4034,-1.4109,-1.4265,-1.4299,-1.4299,-1.4299,-1.4299,-1.4299,-1.4299,-1.4373,-1.4441,-1.4441,-1.4563,-1.4699,-1.4801,-1.4903,-1.5004,-1.5099,-1.5889,-1.6471,-1.6471,-1.6471,-1.6471,-1.6471,-1.5737,-1.5181,-1.5181,-1.5181,-1.5181,-1.5181,-1.5181,-1.5181,-1.5181,-1.5181,-1.5181,-1.5181,-1.5181,-1.5181,-1.5181,-1.5181,-1.5181,1.6066,1.6751,1.7229,1.4376,1.3992,1.3872,1.2043,1.1769,1.1938,1.204,1.1837,1.1572,1.1348,1.0921,1.0751,1.1233,1.0907,1.0913,1.1893,0.9948,0.6363,0.0747,-0.0,-0.0,-0.0,0.0,0.0,-0.0,-0.0,-0.0,-0.0,-0.0,-0.0,-0.0,-0.0,-0.0,-0.0,-0.0,-0.0,-0.0,-0.0,-0.0,-0.0,-0.0,-0.0,-0.0,-0.0,-0.0,-0.0,-0.0,-0.0,-0.0,-0.0,-0.2021,-0.5558,-1.1328,-1.1663,-0.9613,-1.2476,-1.3451,-1.341,-1.3464,-1.3485,-1.3492,-1.3546,-1.3627,-1.3702,-1.3702,-1.381,-1.3946,-1.4048,-1.4116,-1.4177,-1.4278,-1.4299,-1.4299,-1.4299,-1.434,-1.4373,-1.4373,-1.4496,-1.459,-1.459,-1.4719,-1.4875,-1.5025,-1.5045,-1.5079,-1.5167,-1.5181,-1.5181,-1.5181,-1.5181,-1.5181,-1.5181,-1.5181,-1.5181,-1.5181,-1.5181,-1.5181,-1.5181,-1.5181,-1.5181,-1.5181,-1.5181,-1.5181,-1.5181,-1.5181,-1.5181,-1.5181,-1.5181,-1.5181,1.7637,1.8011,1.7613,1.5181,1.4574,1.4014,1.2043,1.1843,1.204,1.1999,1.2189,1.2094,1.1199,1.1009,1.1009,1.109,1.1077,1.1094,1.1091,1.1824,0.9532,0.0,0.0,0.0,0.0,0.0,0.0,-0.0,0.0,-0.0,-0.0,-0.0,-0.0,-0.0,-0.0,-0.0,-0.0,-0.0,-0.0,-0.0,-0.0,-0.0,-0.0,-0.0,-0.0,-0.0,-0.0,-0.0,-0.0,-0.0,-0.0,-0.0,-0.0505,-0.59,-1.3398,-1.3405,-1.3627,-1.3675,-1.3526,-1.3451,-1.3444,-1.3593,-1.3641,-1.3661,-1.3797,-1.3844,-1.3851,-1.3851,-1.3966,-1.4082,-1.4082,-1.419,-1.4299,-1.4306,-1.4312,-1.4312,-1.4319,-1.4428,-1.4523,-1.4523,-1.4645,-1.4753,-1.476,-1.4882,-1.5025,-1.516,-1.5181,-1.5181,-1.5181,-1.5181,-1.5181,-1.5181,-1.5181,-1.5181,-1.5181,-1.5181,-1.5181,-1.5181,-1.5181,-1.5181,-1.5181,-1.5181,-1.5181,-1.5181,-1.5181,-1.5181,-1.5181,-1.5181,-1.5181,-1.5181,-1.5181,-1.5181,1.8557,2.0009,2.0736,1.7317,1.6545,1.5566,1.2323,1.1762,1.1735,1.1179,1.0765,1.0263,0.9476,0.8879,0.8906,1.0134,0.9869,0.9848,1.1034,1.1289,0.0,0.9498,0.0,-0.0,-0.0,-0.0,0.0,0.0,-0.0,-0.0,-0.0,-0.0,-0.0,-0.0,-0.0,-0.0,-0.0,-0.0,-0.0,-0.0,-0.0,-0.0,-0.0,-0.0,-0.0,-0.0,-0.0,-0.0,-0.0,-0.0,-0.0,-0.0674,-0.7823,-1.198,-1.4076,-1.3961,-1.3824,-1.3831,-1.3763,-1.3736,-1.3736,-1.3777,-1.3783,-1.379,-1.3831,-1.3919,-1.4014,-1.4014,-1.4122,-1.4245,-1.4245,-1.4272,-1.4326,-1.4434,-1.4455,-1.4489,-1.4604,-1.4658,-1.4679,-1.4679,-1.4808,-1.4943,-1.5052,-1.5106,-1.514,-1.5174,-1.5181,-1.5181,-1.5181,-1.5181,-1.5181,-1.5181,-1.5181,-1.5181,-1.5181,-1.5181,-1.5181,-1.5181,-1.5181,-1.5181,-1.5181,-1.5181,-1.5181,-1.5181,-1.5181,-1.5181,-1.5181,-1.5181,-1.5181,-1.5181,-1.5181,-1.5181,2.0454,2.1603,2.216,1.9217,1.8508,1.7374,1.3142,1.2361,1.1976,1.041,0.9917,0.9496,0.875,0.8269,0.8418,0.9734,0.9598,0.9781,1.1084,1.1198,1.1397,0.0,0.8394,0.0,0.0317,-0.0,-0.0,0.0,-0.0,-0.0,-0.0,-0.0,-0.0,-0.0,-0.0,-0.0,-0.0,-0.0,-0.0,-0.0,-0.0,-0.0,-0.0,-0.0,-0.0,-0.0,-0.0,-0.0,-0.0,-0.0,-0.0,-0.1019,-1.0501,-1.4222,-1.4208,-1.4064,-1.4105,-1.3973,-1.3953,-1.3987,-1.4034,-1.396,-1.3939,-1.3953,-1.4021,-1.4102,-1.417,-1.417,-1.4231,-1.4312,-1.4373,-1.4394,-1.4428,-1.4577,-1.4611,-1.4631,-1.4719,-1.4794,-1.4862,-1.4923,-1.5004,-1.5086,-1.5167,-1.5181,-1.5181,-1.5181,-1.5181,-1.5181,-1.5181,-1.5181,-1.5181,-1.5181,-1.5181,-1.5181,-1.5181,-1.5181,-1.5181,-1.5181,-1.5181,-1.5181,-1.5181,-1.5181,-1.5181,-1.5181,-1.5181,-1.5181,-1.5181,-1.5181,-1.5181,-1.5181,-1.5181,-1.5181,2.2285,2.2712,2.2435,2.0617,2.0063,1.8879,1.4364,1.325,1.2499,0.9966,0.9374,0.9205,0.8574,0.8472,0.8784,0.97,0.9849,1.0134,1.0955,1.1138,1.1365,1.2006,1.1847,0.9019,0.2386,0.0643,-0.0,-0.0,-0.0,-0.0,-0.0,-0.0,-0.0,-0.0,-0.0,-0.0,-0.0,-0.0,-0.0,-0.0,-0.0,-0.0,-0.0,-0.0,-0.0,-0.0,-0.0,-0.0,-0.0,-0.0,-0.0686,-0.2575,-1.0264,-1.382,-1.4326,-1.4132,-1.4014,-1.4102,-1.4102,-1.419,-1.4278,-1.4143,-1.4102,-1.4129,-1.4258,-1.4312,-1.4326,-1.4326,-1.434,-1.4387,-1.4509,-1.4543,-1.4577,-1.4733,-1.4767,-1.4774,-1.4794,-1.4903,-1.5038,-1.516,-1.5181,-1.5181,-1.5181,-1.5181,-1.5181,-1.5181,-1.5181,-1.5181,-1.5181,-1.5181,-1.5181,-1.5181,-1.5181,-1.5181,-1.5181,-1.5181,-1.5181,-1.5181,-1.5181,-1.5181,-1.5181,-1.5181,-1.5181,-1.5181,-1.5181,-1.5181,-1.5181,-1.5181,-1.5181,-1.5181,-1.5181,-1.5181,2.1309,2.1937,2.2435,2.0617,2.0063,1.8999,1.5014,1.3584,1.2432,0.9802,0.8723,0.8309,0.8309,0.8404,0.8818,0.9842,1.0012,0.9856,0.9429,1.0514,1.096,0.989,0.8355,0.8131,1.0169,0.4044,0.0,0.0,-0.0,-0.0,-0.0,-0.0,-0.0,-0.0,-0.0,-0.0,-0.0,-0.0,-0.0,-0.0,-0.0,-0.0,-0.0,-0.0,-0.0,-0.0,-0.0,0.0,-0.0,-0.0,-0.4682,-1.1675,-0.9288,-1.0724,-1.4283,-1.4197,-1.4245,-1.4258,-1.4258,-1.4278,-1.4299,-1.4272,-1.4258,-1.4265,-1.4292,-1.438,-1.4475,-1.4475,-1.4563,-1.4672,-1.4692,-1.4699,-1.474,-1.4896,-1.493,-1.4964,-1.5079,-1.5126,-1.5153,-1.5174,-1.5181,-1.5181,-1.5181,-1.5181,-1.5181,-1.5181,-1.5181,-1.5181,-1.5181,-1.5181,-1.5181,-1.5181,-1.5181,-1.5181,-1.5181,-1.5181,-1.5181,-1.5181,-1.5181,-1.5181,-1.5181,-1.5181,-1.5181,-1.5181,-1.5181,-1.5181,-1.5181,-1.5181,-1.5181,-1.5181,-1.5181,-1.5181,2.1069,2.175,2.2722,2.1734,2.1596,2.0318,1.5615,1.4201,1.2693,0.859,0.7536,0.7387,0.7543,0.7685,0.8255,0.97,0.993,0.9998,1.0188,1.0826,1.0875,0.9887,0.6864,0.5125,0.5982,0.2427,-0.0,-0.0,-0.0,-0.0,-0.0,-0.0,-0.0,-0.0,-0.0,-0.0,-0.0,-0.0,-0.0,-0.0,-0.0,-0.0,-0.0,-0.0,-0.0,-0.0,-0.0,-0.0,-0.0332,-0.5351,-1.0204,-1.4098,-1.1754,-1.2267,-1.4251,-1.4285,-1.4299,-1.4299,-1.4299,-1.4299,-1.4312,-1.4387,-1.4407,-1.4407,-1.4407,-1.4516,-1.4631,-1.4631,-1.4685,-1.476,-1.4841,-1.4862,-1.4896,-1.5045,-1.5079,-1.5099,-1.5167,-1.5181,-1.5181,-1.5181,-1.5181,-1.5181,-1.5181,-1.5181,-1.5181,-1.5181,-1.5181,-1.5181,-1.5181,-1.5181,-1.5181,-1.5181,-1.5181,-1.5181,-1.5181,-1.5181,-1.5181,-1.5181,-1.5181,-1.5181,-1.5181,-1.5181,-1.5181,-1.5181,-1.5181,-1.5181,-1.5181,-1.5181,-1.5181,-1.5181,-1.5181,-1.5181,2.139,2.1991,2.2859,2.2859,2.2859,2.1489,1.6103,1.468,1.3151,0.7786,0.6681,0.6756,0.7102,0.7285,0.7929,0.9598,0.9734,0.9992,1.1009,1.105,1.0816,1.0555,0.6757,0.3059,0.0298,-0.0,0.0,-0.0,-0.0,-0.0,-0.0,-0.0,-0.0,-0.0,-0.0,-0.0,-0.0,-0.0,-0.0,-0.0,-0.0,-0.0,-0.0,-0.0,-0.0,-0.0,-0.0,-0.0,-0.0807,-1.0391,-1.4358,-1.4237,-1.4215,-1.4346,-1.434,-1.4312,-1.4299,-1.4306,-1.4333,-1.4346,-1.4367,-1.4516,-1.4536,-1.4516,-1.455,-1.4665,-1.4787,-1.4787,-1.4808,-1.4862,-1.4984,-1.5018,-1.5045,-1.5153,-1.5181,-1.5181,-1.5181,-1.5181,-1.5181,-1.5181,-1.5181,-1.5181,-1.5181,-1.5181,-1.5181,-1.5181,-1.5181,-1.5181,-1.5181,-1.5181,-1.5181,-1.5181,-1.5181,-1.5181,-1.5181,-1.5181,-1.5181,-1.5181,-1.5181,-1.5181,-1.5181,-1.5181,-1.5181,-1.5181,-1.5181,-1.5181,-1.5181,-1.5181,-1.5181,-1.5181,-1.5181,-1.5181,2.2405,2.2766,2.2859,2.2859,2.2859,2.1667,1.6919,1.5178,1.3289,0.8445,0.6959,0.679,0.776,0.8065,0.8574,0.9829,0.9462,0.934,1.0256,1.0371,1.0498,1.0927,0.7988,0.4415,0.0319,-0.0,-0.0,-0.0,-0.0,-0.0,-0.0,-0.0,-0.0,-0.0,-0.0,-0.0,-0.0,-0.0,-0.0,-0.0,-0.0,-0.0,-0.0,-0.0,-0.0,-0.0,-0.0,-0.0,0.0,-1.0334,-1.4326,-1.4354,-1.4249,-1.4333,-1.4306,-1.4299,-1.4299,-1.4319,-1.4448,-1.4489,-1.4516,-1.4672,-1.4624,-1.4536,-1.4679,-1.4828,-1.495,-1.495,-1.5045,-1.5147,-1.516,-1.516,-1.5167,-1.5181,-1.5181,-1.5181,-1.5181,-1.5181,-1.5181,-1.5181,-1.5181,-1.5181,-1.5181,-1.5181,-1.5181,-1.5181,-1.5181,-1.5181,-1.5181,-1.5181,-1.5181,-1.5181,-1.5181,-1.5181,-1.5181,-1.5181,-1.5181,-1.5181,-1.5181,-1.5181,-1.5181,-1.5181,-1.5181,-1.5181,-1.5181,-1.5181,-1.5181,-1.5181,-1.5181,-1.5181,-1.5181,-1.5181,2.0347,2.1523,2.2859,2.2859,2.2859,2.1713,1.7043,1.5331,1.3286,0.8645,0.7104,0.6654,0.7258,0.7489,0.7984,0.9184,0.913,0.9408,1.0758,1.0948,1.1233,1.1864,1.0818,0.7325,0.0,0.0,-0.0,-0.0,-0.0,-0.0,-0.0,-0.0,-0.0,-0.0,-0.0,-0.0,-0.0,-0.0,-0.0,-0.0,-0.0,-0.0,-0.0,-0.0,-0.0,-0.0,-0.0,-0.2193,0.0,-0.8818,-1.1261,-1.349,-1.4036,-1.4312,-1.4299,-1.4299,-1.4353,-1.4434,-1.4489,-1.457,-1.4672,-1.4828,-1.4835,-1.4801,-1.4862,-1.4984,-1.5099,-1.5099,-1.514,-1.5181,-1.5181,-1.5181,-1.5181,-1.5181,-1.5181,-1.5181,-1.5181,-1.5181,-1.5181,-1.5181,-1.5181,-1.5181,-1.5181,-1.5181,-1.5181,-1.5181,-1.5181,-1.5181,-1.5181,-1.5181,-1.5181,-1.5181,-1.5181,-1.5181,-1.5181,-1.5181,-1.5181,-1.5181,-1.5181,-1.5181,-1.5181,-1.5181,-1.5181,-1.5181,-1.5181,-1.5181,-1.5181,-1.5181,-1.5181,-1.5181,-1.5181,-1.5181,1.9319,2.0962,2.2859,2.2859,2.2539,2.1146,1.6624,1.4778,1.272,0.8341,0.6987,0.662,0.6878,0.7048,0.7522,0.8682,0.8906,0.9435,1.086,1.1063,1.1348,1.2121,0.0,0.9693,0.0,0.0764,-0.0,-0.0,-0.0,-0.0,-0.0,-0.0,-0.0,-0.0,-0.0,-0.0,-0.0,-0.0,-0.0,-0.0,-0.0,-0.0,-0.0,-0.0,-0.0,-0.0173,-0.2992,-0.6772,0.0,-0.9836,-1.0851,-1.3353,-1.3988,-1.4299,-1.4306,-1.4346,-1.4428,-1.4523,-1.4618,-1.4719,-1.4835,-1.4984,-1.5031,-1.5031,-1.5031,-1.5106,-1.5181,-1.5181,-1.5181,-1.5181,-1.5181,-1.5181,-1.5181,-1.5181,-1.5181,-1.5181,-1.5181,-1.5181,-1.5181,-1.5181,-1.5181,-1.5181,-1.5181,-1.5181,-1.5181,-1.5181,-1.5181,-1.5181,-1.5181,-1.5181,-1.5181,-1.5181,-1.5181,-1.5181,-1.5181,-1.5181,-1.5181,-1.5181,-1.5181,-1.5181,-1.5181,-1.5181,-1.5181,-1.5181,-1.5181,-1.5181,-1.5181,-1.5181,-1.5181,-1.5181,-1.5181,-1.5181,2.0347,2.1737,2.2859,2.2859,2.1777,1.9663,1.5528,1.362,1.1412,0.7342,0.6593,0.6749,0.6898,0.7048,0.7489,0.854,0.8838,0.9252,1.0161,1.029,1.0568,1.1314,1.2045,1.0841,0.6578,0.2483,-0.0,-0.0,-0.0,0.0,-0.0,-0.0,-0.0,-0.0,-0.0,-0.0,-0.0,-0.0,-0.0,-0.0,-0.0,-0.0,-0.0,-0.0,-0.0,-0.0491,-0.9981,-1.4201,0.0,-1.4249,-1.4249,-1.4288,-1.4368,-1.4299,-1.4319,-1.4455,-1.4509,-1.4557,-1.4862,-1.497,-1.4991,-1.5133,-1.5181,-1.5181,-1.5181,-1.5181,-1.5181,-1.5181,-1.5181,-1.5181,-1.5181,-1.5181,-1.5181,-1.5181,-1.5181,-1.5181,-1.5181,-1.5181,-1.5181,-1.5181,-1.5181,-1.5181,-1.5181,-1.5181,-1.5181,-1.5181,-1.5181,-1.5181,-1.5181,-1.5181,-1.5181,-1.5181,-1.5181,-1.5181,-1.5181,-1.5181,-1.5181,-1.5181,-1.5181,-1.5181,-1.5181,-1.5181,-1.5181,-1.5181,-1.5181,-1.5181,-1.5181,-1.5181,-1.5181,-1.5181,-1.5181,-1.5181,1.7569,1.8744,1.988,1.988,1.9519,1.8341,1.4957,1.3434,1.164,0.8313,0.7155,0.6776,0.7027,0.7197,0.7645,0.8696,0.8988,0.9544,1.0853,1.1043,1.1314,1.206,0.9873,0.6612,0.0,0.0,-0.0,-0.0,-0.0,-0.0,-0.0,-0.0,-0.0,-0.0,-0.0,-0.0,-0.0,-0.0,-0.0,-0.0,-0.0,-0.0,-0.0,-0.0,-0.0,-0.0496,-1.019,-1.4374,-1.4383,-1.4242,-1.4064,-1.3596,-1.418,-1.436,-1.4448,-1.4496,-1.4645,-1.4841,-1.4936,-1.5031,-1.512,-1.5167,-1.5181,-1.5181,-1.5181,-1.5181,-1.5181,-1.5181,-1.5181,-1.5181,-1.5181,-1.5181,-1.5181,-1.5181,-1.5181,-1.5181,-1.5181,-1.5181,-1.5181,-1.5181,-1.5181,-1.5181,-1.5181,-1.5181,-1.5181,-1.5181,-1.5181,-1.5181,-1.5181,-1.5181,-1.5181,-1.5181,-1.5181,-1.5181,-1.5181,-1.5181,-1.5181,-1.5181,-1.5181,-1.5181,-1.5181,-1.5181,-1.5181,-1.5181,-1.5181,-1.5181,-1.5181,-1.5181,-1.5181,-1.5181,-1.5181,-1.5181,1.6126,1.7355,1.849,1.849,1.7738,1.6377,1.4033,1.2352,1.0543,0.8175,0.7483,0.7278,0.7238,0.7584,0.8018,0.8445,0.911,0.9802,1.0453,1.0792,0.0,1.164,0.0,0.0,0.0,-0.0,-0.0,-0.0,-0.0,-0.0,-0.0,-0.0,-0.0,-0.0,-0.0,-0.0,-0.0,-0.0,-0.0,-0.0,-0.0,-0.0,-0.0,-0.0,-0.1898,-0.5648,-0.9835,-1.2535,0.0,-1.4338,-1.4041,-1.3648,-1.4177,-1.4434,-1.4523,-1.4645,-1.4808,-1.4977,-1.5031,-1.5106,-1.5181,-1.5181,-1.5181,-1.5181,-1.5181,-1.5181,-1.5181,-1.5181,-1.5181,-1.5181,-1.5181,-1.5181,-1.5181,-1.5181,-1.5181,-1.5181,-1.5181,-1.5181,-1.5181,-1.5181,-1.5181,-1.5181,-1.5181,-1.5181,-1.5181,-1.5181,-1.5181,-1.5181,-1.5181,-1.5181,-1.5181,-1.5181,-1.5181,-1.5181,-1.5181,-1.5181,-1.5181,-1.5181,-1.5181,-1.5181,-1.5181,-1.5181,-1.5181,-1.5181,-1.5181,-1.5181,-1.5181,-1.5181,-1.5181,-1.5181,-1.5181,-1.5181,0.0,1.7128,1.817,1.8061,1.6188,1.3975,1.2673,1.0572,0.0,0.7302,0.7692,0.8106,0.755,0.818,0.8594,0.7991,0.9239,1.0032,0.9334,0.9883,0.0,0.0,1.1635,0.0,0.1607,0.0328,-0.0,-0.0,-0.0,-0.0,-0.0,-0.0,-0.0,-0.0,-0.0,-0.0,-0.0,-0.0,-0.0,-0.0,-0.0,-0.0,-0.0,-0.0,-0.5184,0.0,-0.9637,-1.0199,-1.4346,-1.4312,-1.4306,-1.4326,-1.4462,-1.4523,-1.4577,-1.4862,-1.4977,-1.5004,-1.514,-1.5181,-1.5181,-1.5181,-1.5181,-1.5181,-1.5181,-1.5181,-1.5181,-1.5181,-1.5181,-1.5181,-1.5181,-1.5181,-1.5181,-1.5181,-1.5181,-1.5181,-1.5181,-1.5181,-1.5181,-1.5181,-1.5181,-1.5181,-1.5181,-1.5181,-1.5181,-1.5181,-1.5181,-1.5181,-1.5181,-1.5181,-1.5181,-1.5181,-1.5181,-1.5181,-1.5181,-1.5181,-1.5181,-1.5181,-1.5181,-1.5181,-1.5181,-1.5181,-1.5181,-1.5181,-1.5181,-1.5181,-1.5181,-1.5181,-1.5181,-1.5181,-1.5181,-1.5181,1.4509,0.0,1.4929,1.3981,1.3285,1.2326,0.0,0.0,0.0,0.0,0.0,0.0,0.8228,0.8954,0.9367,0.8771,0.9578,1.0222,1.0039,1.0545,0.0,1.0784,1.1818,1.1708,0.978,0.3685,-0.0,-0.0,-0.0,-0.0,-0.0,-0.0,-0.0,-0.0,-0.0,-0.0,-0.0,-0.0,-0.0,-0.0,-0.0,-0.0,-0.0,-0.0,-0.5222,-1.4225,-1.3016,-1.3286,-1.4346,-1.4312,-1.4367,-1.4468,-1.4502,-1.4652,-1.4869,-1.4943,-1.5038,-1.514,-1.5167,-1.5181,-1.5181,-1.5181,-1.5181,-1.5181,-1.5181,-1.5181,-1.5181,-1.5181,-1.5181,-1.5181,-1.5181,-1.5181,-1.5181,-1.5181,-1.5181,-1.5181,-1.5181,-1.5181,-1.5181,-1.5181,-1.5181,-1.5181,-1.5181,-1.5181,-1.5181,-1.5181,-1.5181,-1.5181,-1.5181,-1.5181,-1.5181,-1.5181,-1.5181,-1.5181,-1.5181,-1.5181,-1.5181,-1.5181,-1.5181,-1.5181,-1.5181,-1.5181,-1.5181,-1.5181,-1.5181,-1.5181,-1.5181,-1.5181,-1.5181,-1.5181,-1.5181,-1.5181,1.3379,1.3294,1.3188,1.2893,1.1793,1.0484,0.9612,0.0,0.0,0.0,0.0,0.0,0.0,0.8981,0.9252,0.9069,0.9442,0.9883,0.0,0.0,1.0638,0.9729,1.0089,0.947,0.0,0.2701,-0.0,-0.0,-0.0,-0.0,-0.0,-0.0,-0.0,-0.0,-0.0,-0.0,-0.0,-0.0,-0.0,-0.0,-0.0,-0.0,-0.0156,-0.4473,-0.8136,-1.102,-1.2734,-1.38,-1.4299,-1.3933,-1.4068,-1.4523,-1.4665,-1.4821,-1.4977,-1.5045,-1.512,-1.5181,-1.5181,-1.5181,-1.5181,-1.5181,-1.5181,-1.5181,-1.5181,-1.5181,-1.5181,-1.5181,-1.5181,-1.5181,-1.5181,-1.5181,-1.5181,-1.5181,-1.5181,-1.5181,-1.5181,-1.5181,-1.5181,-1.5181,-1.5181,-1.5181,-1.5181,-1.5181,-1.5181,-1.5181,-1.5181,-1.5181,-1.5181,-1.5181,-1.5181,-1.5181,-1.5181,-1.5181,-1.5181,-1.5181,-1.5181,-1.5181,-1.5181,-1.5181,-1.5181,-1.5181,-1.5181,-1.5181,-1.5181,-1.5181,-1.5181,-1.5181,-1.5181,-1.5181,-1.5181,-1.5181,1.2589,1.2066,1.1937,1.278,1.0885,0.9041,0.9573,0.0,0.0,0.0,0.0,0.0,0.0,0.9083,0.0,0.9164,0.9252,0.9432,0.9564,0.9748,0.9263,0.7637,0.7075,0.0,0.0444,-0.0,-0.0,-0.0,-0.0,-0.0,-0.0,-0.0,-0.0,-0.0,-0.0,-0.0,-0.0,-0.0,-0.0,-0.0,-0.0,-0.0681,-0.2453,-1.0677,-1.2056,-0.8377,-1.1496,0.0,-1.4251,-1.3634,-1.3838,-1.4577,-1.4862,-1.4984,-1.5018,-1.514,-1.5181,-1.5181,-1.5181,-1.5181,-1.5181,-1.5181,-1.5181,-1.5181,-1.5181,-1.5181,-1.5181,-1.5181,-1.5181,-1.5181,-1.5181,-1.5181,-1.5181,-1.5181,-1.5181,-1.5181,-1.5181,-1.5181,-1.5181,-1.5181,-1.5181,-1.5181,-1.5181,-1.5181,-1.5181,-1.5181,-1.5181,-1.5181,-1.5181,-1.5181,-1.5181,-1.5181,-1.5181,-1.5181,-1.5181,-1.5181,-1.5181,-1.5181,-1.5181,-1.5181,-1.5181,-1.5181,-1.5181,-1.5181,-1.5181,-1.5181,-1.5181,-1.5181,-1.5181,-1.5181,-1.5181,-1.5181,1.2322,1.0864,0.9643,1.0332,0.9673,0.8869,0.8592,0.0,0.0,0.0,0.0,0.0,0.0,1.0799,1.1172,0.0,0.0,1.0148,0.0,0.0,0.4937,0.4655,0.0,0.0923,0.0149,-0.0,-0.0,-0.0,-0.0,-0.0,-0.0,-0.0,-0.0,-0.0,-0.0,-0.0,-0.0,-0.0,-0.0,-0.0,-0.0,-0.4308,-1.2142,-1.3572,-1.3872,-1.3255,0.0,-1.4204,-1.4299,-1.4306,-1.4462,-1.4719,-1.4903,-1.5045,-1.5153,-1.5174,-1.5181,-1.5181,-1.5181,-1.5181,-1.5181,-1.5181,-1.5181,-1.5181,-1.5181,-1.5181,-1.5181,-1.5181,-1.5181,-1.5181,-1.5181,-1.5181,-1.5181,-1.5181,-1.5181,-1.5181,-1.5181,-1.5181,-1.5181,-1.5181,-1.5181,-1.5181,-1.5181,-1.5181,-1.5181,-1.5181,-1.5181,-1.5181,-1.5181,-1.5181,-1.5181,-1.5181,-1.5181,-1.5181,-1.5181,-1.5181,-1.5181,-1.5181,-1.5181,-1.5181,-1.5181,-1.5181,-1.5181,-1.5181,-1.5181,-1.5181,-1.5181,-1.5181,-1.5181,-1.5181,-1.5181,-1.5181,1.0778,0.9662,0.9051,0.9519,0.878,0.8195,0.9229,0.0,0.0,0.0,0.0,0.0,0.0,0.0,1.0324,0.0,0.0,1.1208,1.0419,0.9382,0.691,0.0,0.0,-0.0,-0.0,-0.0,-0.0,-0.0,-0.0,-0.0,-0.0,-0.0,-0.0,-0.0,-0.0,-0.0,-0.0,-0.0,-0.0,-0.0,-0.0,-0.2239,-0.6745,-1.1923,-1.4229,-1.4353,0.0,-1.3865,-1.4278,-1.4021,-1.4238,-1.476,-1.4997,-1.5126,-1.5181,-1.5181,-1.5181,-1.5181,-1.5181,-1.5181,-1.5181,-1.5181,-1.5181,-1.5181,-1.5181,-1.5181,-1.5181,-1.5181,-1.5181,-1.5181,-1.5181,-1.5181,-1.5181,-1.5181,-1.5181,-1.5181,-1.5181,-1.5181,-1.5181,-1.5181,-1.5181,-1.5181,-1.5181,-1.5181,-1.5181,-1.5181,-1.5181,-1.5181,-1.5181,-1.5181,-1.5181,-1.5181,-1.5181,-1.5181,-1.5181,-1.5181,-1.5181,-1.5181,-1.5181,-1.5181,-1.5181,-1.5181,-1.5181,-1.5181,-1.5181,-1.5181,-1.5181,-1.5181,-1.5181,-1.5181,-1.5181,-1.5181,0.941,0.8719,0.8559,0.9001,0.0,0.7726,0.9978,0.0,0.0,0.0,0.0,0.0,0.0,0.9734,0.0,1.0399,0.0,0.0,0.0,0.0,0.9071,0.351,0.1184,-0.0,-0.0,-0.0,-0.0,-0.0,-0.0,-0.0,-0.0,-0.0,-0.0,-0.0,-0.0,-0.0,-0.0,-0.0,-0.0,-0.0,-0.0,-0.0,-0.0334,-0.8769,-1.3299,-1.4346,-1.36,-1.3661,-1.4272,-1.3878,-1.4122,-1.4767,-1.5065,-1.5181,-1.5181,-1.5181,-1.5181,-1.5181,-1.5181,-1.5181,-1.5181,-1.5181,-1.5181,-1.5181,-1.5181,-1.5181,-1.5181,-1.5181,-1.5181,-1.5181,-1.5181,-1.5181,-1.5181,-1.5181,-1.5181,-1.5181,-1.5181,-1.5181,-1.5181,-1.5181,-1.5181,-1.5181,-1.5181,-1.5181,-1.5181,-1.5181,-1.5181,-1.5181,-1.5181,-1.5181,-1.5181,-1.5181,-1.5181,-1.5181,-1.5181,-1.5181,-1.5181,-1.5181,-1.5181,-1.5181,-1.5181,-1.5181,-1.5181,-1.5181,-1.5181,-1.5181,-1.5181,-1.5181,-1.5181,-1.5181,-1.5181,-1.5181,0.8982,0.8105,0.7423,0.8147,0.774,0.0,0.9978,0.0,0.0,0.0,0.0,0.0,0.0,1.0588,1.0432,1.1185,1.1402,1.1708,1.2226,0.0,0.7942,1.128,0.4731,-0.0,-0.0,-0.0,-0.0,-0.0,-0.0,-0.0,-0.0,-0.0,-0.0,-0.0,-0.0,-0.0,-0.0,-0.0,-0.0,-0.0,-0.0,-0.0,-0.0178,-0.535,-1.0021,-1.4346,-1.4251,-1.4238,-1.4319,-1.455,-1.4679,-1.4767,-1.5065,-1.5181,-1.5181,-1.5181,-1.5181,-1.5181,-1.5181,-1.5181,-1.5181,-1.5181,-1.5181,-1.5181,-1.5181,-1.5181,-1.5181,-1.5181,-1.5181,-1.5181,-1.5181,-1.5181,-1.5181,-1.5181,-1.5181,-1.5181,-1.5181,-1.5181,-1.5181,-1.5181,-1.5181,-1.5181,-1.5181,-1.5181,-1.5181,-1.5181,-1.5181,-1.5181,-1.5181,-1.5181,-1.5181,-1.5181,-1.5181,-1.5181,-1.5181,-1.5181,-1.5181,-1.5181,-1.5181,-1.5181,-1.5181,-1.5181,-1.5181,-1.5181,-1.5181,-1.5181,-1.5181,-1.5181,-1.5181,-1.5181,-1.5181,-1.5181,0.8017,0.7425,0.7319,0.8635,0.0,0.0,0.0,0.0,0.0,0.0,0.0,0.0,0.0,0.0,1.1063,1.1348,1.1775,1.2196,1.238,0.8929,0.5949,0.4868,0.1904,-0.0,-0.0,-0.0,-0.0,-0.0,-0.0,-0.0,-0.0,-0.0,-0.0,-0.0,-0.0,-0.0,-0.0,-0.0,-0.0,-0.0,-0.0,-0.0,-0.0,-0.1789,-0.6974,-1.438,-1.4346,-1.4319,-1.4326,-1.4618,-1.474,-1.4767,-1.5065,-1.5181,-1.5181,-1.5181,-1.5181,-1.5181,-1.5181,-1.5181,-1.5181,-1.5181,-1.5181,-1.5181,-1.5181,-1.5181,-1.5181,-1.5181,-1.5181,-1.5181,-1.5181,-1.5181,-1.5181,-1.5181,-1.5181,-1.5181,-1.5181,-1.5181,-1.5181,-1.5181,-1.5181,-1.5181,-1.5181,-1.5181,-1.5181,-1.5181,-1.5181,-1.5181,-1.5181,-1.5181,-1.5181,-1.5181,-1.5181,-1.5181,-1.5181,-1.5181,-1.5181,-1.5181,-1.5181,-1.5181,-1.5181,-1.5181,-1.5181,-1.5181,-1.5181,-1.5181,-1.5181,-1.5181,-1.5181,-1.5181,-1.5181,-1.5181,0.7243,0.6966,0.7197,0.0,0.0,0.0,0.0,0.0,0.0,0.0,0.0,0.0,0.0,0.0,0.0,0.0,1.1677,1.2112,1.2407,1.0052,0.6271,0.0628,-0.0,-0.0,-0.0,-0.0,-0.0,-0.0,-0.0,-0.0,-0.0,-0.0,-0.0,-0.0,-0.0,-0.0,-0.0,-0.0,-0.0,-0.0,-0.0,-0.0,-0.0,-0.0,-0.5189,-1.4236,-1.4373,-1.434,-1.434,-1.4624,-1.4794,-1.4896,-1.5099,-1.5181,-1.5181,-1.5181,-1.5181,-1.5181,-1.5181,-1.5181,-1.5181,-1.5181,-1.5181,-1.5181,-1.5181,-1.5181,-1.5181,-1.5181,-1.5181,-1.5181,-1.5181,-1.5181,-1.5181,-1.5181,-1.5181,-1.5181,-1.5181,-1.5181,-1.5181,-1.5181,-1.5181,-1.5181,-1.5181,-1.5181,-1.5181,-1.5181,-1.5181,-1.5181,-1.5181,-1.5181,-1.5181,-1.5181,-1.5181,-1.5181,-1.5181,-1.5181,-1.5181,-1.5181,-1.5181,-1.5181,-1.5181,-1.5181,-1.5181,-1.5181,-1.5181,-1.5181,-1.5181,-1.5181,-1.5181,-1.5181,-1.5181,-1.5181,0.6939,0.6824,0.0,0.0,0.0,0.0,0.0,0.0,0.0,0.0,0.0,0.0,0.0,0.0,0.0,0.0,0.0,1.1279,1.234,1.2467,0.9291,0.0942,-0.0,-0.0,-0.0,-0.0,-0.0,-0.0,-0.0,-0.0,-0.0,-0.0,-0.0,-0.0,-0.0,-0.0,-0.0,-0.0,-0.0,-0.0,-0.0,-0.0,-0.0,-0.0,-0.5194,-1.409,-1.4202,-1.4353,-1.4373,-1.4631,-1.4916,-1.5181,-1.5181,-1.5181,-1.5181,-1.5181,-1.5181,-1.5181,-1.5181,-1.5181,-1.5181,-1.5181,-1.5181,-1.5181,-1.5181,-1.5181,-1.5181,-1.5181,-1.5181,-1.5181,-1.5181,-1.5181,-1.5181,-1.5181,-1.5181,-1.5181,-1.5181,-1.5181,-1.5181,-1.5181,-1.5181,-1.5181,-1.5181,-1.5181,-1.5181,-1.5181,-1.5181,-1.5181,-1.5181,-1.5181,-1.5181,-1.5181,-1.5181,-1.5181,-1.5181,-1.5181,-1.5181,-1.5181,-1.5181,-1.5181,-1.5181,-1.5181,-1.5181,-1.5181,-1.5181,-1.5181,-1.5181,-1.5181,-1.5181,-1.5181,-1.5181,-1.5181,0.7726,0.0,0.0,0.0,0.0,0.0,0.0,0.8879,0.0,0.0,0.0,0.0,0.0,0.0,0.0,0.0,0.0,1.1188,0.8439,0.815,0.6111,0.0628,-0.0,-0.0,-0.0,-0.0,-0.0,-0.0,-0.0,-0.0,-0.0,-0.0,-0.0,-0.0,-0.0,-0.0,-0.0,-0.0,-0.0,-0.0,-0.0,-0.0,-0.0,-0.0,-0.1613,-0.4655,-1.1325,-1.4229,-1.4407,-1.4672,-1.4936,-1.5181,-1.5181,-1.5181,-1.5181,-1.5181,-1.5181,-1.5181,-1.5181,-1.5181,-1.5181,-1.5181,-1.5181,-1.5181,-1.5181,-1.5181,-1.5181,-1.5181,-1.5181,-1.5181,-1.5181,-1.5181,-1.5181,-1.5181,-1.5181,-1.5181,-1.5181,-1.5181,-1.5181,-1.5181,-1.5181,-1.5181,-1.5181,-1.5181,-1.5181,-1.5181,-1.5181,-1.5181,-1.5181,-1.5181,-1.5181,-1.5181,-1.5181,-1.5181,-1.5181,-1.5181,-1.5181,-1.5181,-1.5181,-1.5181,-1.5181,-1.5181,-1.5181,-1.5181,-1.5181,-1.5181,-1.5181,-1.5181,-1.5181,-1.5181,-1.5181,-1.5181,0.7963,0.0,0.0,0.0,0.0,0.0,0.0,0.0,0.0,0.0,0.0,0.0,0.0,0.0,0.0,0.0,0.0,1.1597,0.909,0.5949,0.282,0.0314,-0.0,-0.0,-0.0,-0.0,-0.0,-0.0,-0.0,-0.0,-0.0,-0.0,-0.0,-0.0,-0.0,-0.0,-0.0,-0.0,-0.0,-0.0,-0.0,-0.0,-0.0,-0.0,-0.0,-0.0358,-0.6097,-0.9715,-1.1569,-1.3958,-1.4936,-1.5147,-1.5194,-1.5208,-1.5208,-1.5208,-1.5201,-1.5181,-1.5181,-1.5181,-1.5181,-1.5181,-1.5181,-1.5181,-1.5181,-1.5181,-1.5181,-1.5181,-1.5181,-1.5181,-1.5181,-1.5181,-1.5181,-1.5181,-1.5181,-1.5187,-1.5208,-1.5194,-1.5194,-1.5221,-1.5221,-1.5215,-1.5228,-1.5228,-1.5228,-1.5228,-1.5228,-1.5228,-1.5215,-1.5208,-1.5201,-1.5181,-1.5181,-1.5181,-1.5181,-1.5181,-1.5181,-1.5181,-1.5181,-1.5181,-1.5181,-1.5181,-1.5181,-1.5181,-1.5181,-1.5181,-1.5181,-1.5181,-1.5181,-1.5181,-1.5181,-1.5181,0.7936,0.0,0.0,0.0,0.0,0.0,0.0,0.0,0.0,0.0,0.0,0.0,0.0,0.0,1.2501,1.2501,1.2556,1.244,1.1966,0.5332,0.0471,-0.0,-0.0,-0.0,-0.0,-0.0,-0.0,-0.0,-0.0,-0.0,-0.0,-0.0,-0.0,-0.0,-0.0,-0.0,-0.0,-0.0,-0.0,-0.0,-0.0,-0.0,-0.0,-0.0,-0.0,-0.0,-0.0,-0.2518,-0.6903,-1.1576,-1.4152,-1.5092,-1.463,-1.448,-1.448,-1.506,-1.5228,-1.5194,-1.5194,-1.5194,-1.5187,-1.5187,-1.5187,-1.5187,-1.5181,-1.5187,-1.5187,-1.5187,-1.5187,-1.5181,-1.5194,-1.5194,-1.5187,-1.5194,-1.5194,-1.5201,-1.5248,-1.4838,-1.4636,-1.5093,-1.4884,-1.4493,-1.4519,-1.4525,-1.4525,-1.4525,-1.4525,-1.4513,-1.4487,-1.4871,-1.5242,-1.5201,-1.5194,-1.5187,-1.5187,-1.5181,-1.5181,-1.5181,-1.5181,-1.5181,-1.5181,-1.5181,-1.5181,-1.5181,-1.5181,-1.5181,-1.5181,-1.5181,-1.5181,-1.5181,-1.5181,-1.5181,0.0,0.8506,0.0,0.0,0.0,0.0,0.0,0.0,0.0,0.0,0.0,0.0,1.2372,1.2501,1.2501,1.2501,1.2515,1.1423,0.8141,0.6105,0.3758,0.0471,-0.0,-0.0,-0.0,-0.0,-0.0,-0.0,-0.0,-0.0,-0.0,-0.0,-0.0,-0.0,-0.0,-0.0,-0.0,-0.0,-0.0,-0.0,-0.0,-0.0,-0.0,-0.0,-0.0,-0.0,-0.0,-0.0541,-0.1636,-0.2753,-0.7984,-1.4706,-1.08,-0.9307,-0.969,-1.3737,-1.5282,-1.5276,-1.5276,-1.5262,-1.5235,-1.5235,-1.5235,-1.5228,-1.5194,-1.5208,-1.5235,-1.5235,-1.5208,-1.5194,-1.5262,-1.5255,-1.5242,-1.5269,-1.5255,-1.5248,-1.5282,-1.1994,-1.0451,-1.433,-1.1999,-0.9307,-0.9311,-0.9315,-0.9315,-0.9315,-0.9315,-0.9311,-0.9307,-1.2767,-1.5289,-1.5276,-1.5255,-1.5235,-1.5235,-1.5201,-1.5181,-1.5181,-1.5181,-1.5181,-1.5181,-1.5181,-1.5181,-1.5181,-1.5181,-1.5181,-1.5181,-1.5181,-1.5181,-1.5181,-1.5181,-1.5181,0.0,0.0,0.0,0.0,0.0,0.0,0.0,0.0,0.0,0.0,0.0,1.1945,1.2413,1.2501,1.2501,1.2501,1.2515,1.1746,0.9568,0.5789,0.2504,0.0314,-0.0,-0.0,-0.0,-0.0,-0.0,-0.0,-0.0,-0.0,-0.0,-0.0,-0.0,-0.0,-0.0,-0.0,-0.0,-0.0,-0.0,-0.0,-0.0,-0.0,-0.0,-0.0,-0.0,-0.0,-0.0,-0.0,-0.0,-0.0,-0.3134,-0.8211,-1.0371,-0.8338,-0.4365,-0.7033,-0.9513,-1.1621,-1.1621,-1.161,-1.1983,-1.4493,-1.5276,-1.4689,-1.2345,-1.3317,-1.5276,-1.5276,-1.3511,-1.2156,-1.4519,-1.3346,-1.2183,-1.4545,-1.3358,-1.2183,-1.4734,-1.1242,-0.913,-1.4184,-1.3008,-0.9716,-0.4755,-0.3995,-0.3995,-0.3995,-0.3995,-0.3993,-0.3986,-0.6269,-0.894,-1.1237,-1.1605,-1.2561,-1.508,-1.5242,-1.5215,-1.5215,-1.5194,-1.5181,-1.5181,-1.5181,-1.5181,-1.5181,-1.5181,-1.5181,-1.5181,-1.5181,-1.5181,-1.5181,-1.5255,-1.5289,0.0,0.0,0.0,0.0,0.0,0.0,0.0,0.0,1.1959,1.2406,1.2501,1.2501,1.2501,1.2501,1.2501,1.2501,1.2528,1.2556,1.244,0.5949,0.0783,0.0157,-0.0,-0.0,-0.0,-0.0,-0.0,-0.0,-0.0,-0.0,-0.0,-0.0,-0.0,-0.0,-0.0,-0.0,-0.0,-0.0,-0.0,-0.0,-0.0,-0.0,-0.0,-0.0,-0.0,-0.0,-0.0,-0.0,-0.0,-0.0,-0.0,-0.0927,-0.9377,-0.737,-0.0,-0.0,-0.266,-0.6269,-0.6269,-0.6266,-0.7027,-1.1242,-1.3755,-1.4336,-0.9126,-0.9892,-1.2979,-1.4728,-1.1621,-0.836,-1.1636,-1.0668,-0.9905,-1.4191,-1.2037,-0.9526,-1.2053,-0.934,-0.7616,-1.1704,-1.2656,-0.9941,-0.1526,-0.0,-0.0,-0.0,-0.0,-0.0,-0.0,-0.0,-0.152,-0.5889,-0.6266,-0.7981,-1.2205,-1.334,-1.4285,-1.506,-1.5215,-1.5194,-1.5181,-1.5181,-1.5181,-1.5181,-1.5181,-1.5181,-1.5181,-1.5181,-1.5194,-1.5221,-1.535,-1.5425,0.0,0.0,0.9367,0.0,0.9876,0.9747,0.0,0.0,1.1206,0.0,1.2501,1.2501,1.2501,1.2501,1.2501,1.2501,1.2508,1.2528,1.244,0.8466,0.4068,0.0471,-0.0,-0.0,-0.0,-0.0,-0.0,-0.0,-0.0,-0.0,-0.0,-0.0,-0.0,-0.0,-0.0,-0.0,-0.0,-0.0,-0.0,-0.0,-0.0,-0.0,-0.0,-0.0,-0.0,-0.0,-0.0,-0.0,-0.0,-0.0,-0.0,-0.0185,-0.1498,-0.1135,-0.0,-0.0,-0.0381,-0.0954,-0.0954,-0.0952,-0.114,-0.1899,-0.7999,-1.4178,-0.913,-0.4936,-0.3801,-1.2623,-1.1447,-0.6648,-0.3048,-0.8017,-1.4387,-1.5017,-1.4635,-1.19,-0.3818,-0.1526,-0.1144,-0.1909,-0.21,-0.1526,-0.0191,-0.0,-0.0,-0.0,-0.0,-0.0,-0.0,-0.0,-0.0191,-0.0954,-0.0951,-0.133,-0.1899,-0.6076,-1.0451,-1.4864,-1.5248,-1.5221,-1.5181,-1.5181,-1.5181,-1.5181,-1.5181,-1.5181,-1.5181,-1.5181,-1.5248,-1.5377,-1.5404,-1.5479,0.8662,0.8655,0.8838,0.0,1.0019,0.9462,1.1477,0.0,1.1036,1.2155,1.2447,1.2501,1.2501,1.2501,1.2501,1.2501,1.2501,1.2528,1.244,0.8939,0.4693,0.0471,-0.0,-0.0,-0.0,-0.0,-0.0,-0.0,-0.0,-0.0,-0.0,-0.0,-0.0,-0.0,-0.0,-0.0,-0.0,-0.0,-0.0,-0.0,-0.0,-0.0,-0.0,-0.0,-0.0,-0.0,-0.0,-0.0,-0.0,-0.0,-0.0,-0.0,-0.0,-0.0,-0.0,-0.0,-0.0,-0.0,-0.0,-0.0,-0.0,-0.0,-0.305,-0.6297,-0.3998,-0.1713,-0.0953,-0.5342,-0.5147,-0.2857,-0.0572,-0.3243,-0.6684,-0.6693,-0.6696,-0.5542,-0.0954,-0.0,-0.0,-0.0,-0.0,-0.0,-0.0,-0.0,-0.0,-0.0,-0.0,-0.0,-0.0,-0.0,-0.0,-0.0,-0.0,-0.0,-0.0,-0.2091,-0.5505,-1.0645,-1.3706,-1.5228,-1.5181,-1.5181,-1.5181,-1.5181,-1.5181,-1.5181,-1.5181,-1.5269,-1.5343,-1.5411,-1.5581,-1.5696,0.0,0.0,0.8425,1.048,0.9815,0.9089,0.0,0.0,1.0677,0.0,1.2244,1.2501,1.2501,1.2501,1.2501,1.2501,1.2501,1.2528,1.244,0.8939,0.4693,0.0471,-0.0,-0.0,-0.0,-0.0,-0.0,-0.0,-0.0,-0.0,-0.0,-0.0,-0.0,-0.0,-0.0,-0.0,-0.0,-0.0,-0.0,-0.0,-0.0,-0.0,-0.0,-0.0,-0.0,-0.0,-0.0,-0.0,-0.0,-0.0,-0.0,-0.0,-0.0,-0.0,-0.0,-0.0,-0.0,-0.0,-0.0,-0.0,-0.0,-0.0,-0.0,-0.0,-0.0,-0.0,-0.0,-0.0,-0.0,-0.0,-0.0,-0.0,-0.0,-0.0,-0.0,-0.0,-0.0,-0.0,-0.0,-0.0,-0.0,-0.0,-0.0,-0.0,-0.0,-0.0,-0.0,-0.0,-0.0,-0.0,-0.0,-0.0,-0.0,-0.0,-0.0,-0.0,-0.171,-0.5505,-1.1605,-1.5242,-1.5201,-1.5187,-1.5181,-1.5181,-1.5181,-1.5181,-1.5181,-1.5337,-1.5432,-1.5479,-1.573,-1.5872,0.8113,0.8289,0.0,0.911,0.8567,0.8119,0.0,0.0,0.9747,1.0806,1.1809,1.2501,1.2501,1.2501,1.2501,1.2501,1.2501,1.2528,1.244,0.8939,0.4693,0.0471,-0.0,-0.0,-0.0,-0.0,-0.0,-0.0,-0.0,-0.0,-0.0,-0.0,-0.0,-0.0,-0.0,-0.0,-0.0,-0.0,-0.0,-0.0,-0.0,-0.0,-0.0,-0.0,-0.0,-0.0,-0.0,-0.0,-0.0,-0.0,-0.0,-0.0,-0.0,-0.0,-0.0,-0.0,-0.0,-0.0,-0.0,-0.0,-0.0,-0.0,-0.0,-0.0,-0.0,-0.0,-0.0,-0.0,-0.0,-0.0,-0.0,-0.0,-0.0,-0.0,-0.0,-0.0,-0.0,-0.0,-0.0,-0.0,-0.0,-0.0,-0.0,-0.0,-0.0,-0.0,-0.0,-0.0,-0.0,-0.0,-0.0,-0.0,-0.0,-0.0,-0.0,-0.0,-0.0191,-0.038,-0.9707,-1.5282,-1.5248,-1.5208,-1.5181,-1.5181,-1.5181,-1.5181,-1.5181,-1.5337,-1.5486,-1.5628,-1.5784,-1.5934,0.8065,0.7848,0.0,0.8981,0.8113,0.7339,0.8818,0.9273,0.949,0.9863,1.1307,1.2325,1.1748,1.2115,1.2501,1.2501,1.2522,1.2549,1.244,1.1179,0.7698,0.0785,-0.0,-0.0,-0.0,-0.0,-0.0,-0.0,-0.0,-0.0,-0.0,-0.0,-0.0,-0.0,-0.0,-0.0,-0.0,-0.0,-0.0,-0.0,-0.0,-0.0,-0.0,-0.0,-0.0,-0.0,-0.0,-0.0,-0.0,-0.0,-0.0,-0.0,-0.0,-0.0,-0.0,-0.0,-0.0,-0.0,-0.0,-0.0,-0.0,-0.0,-0.0,-0.0,-0.0,-0.0,-0.0,-0.0,-0.0,-0.0,-0.0,-0.0,-0.0,-0.0,-0.0,-0.0,-0.0,-0.0,-0.0,-0.0,-0.0,-0.0,-0.0,-0.0,-0.0,-0.0,-0.0,-0.0,-0.0,-0.0,-0.0,-0.0,-0.0,-0.0,-0.0,-0.0,-0.0,-0.0,-0.342,-0.836,-1.4864,-1.5235,-1.5215,-1.5181,-1.5181,-1.5181,-1.5181,-1.5438,-1.5588,-1.5642,-1.5886,-1.6029,0.7753,0.7455,0.0,0.0,0.7543,0.6844,0.7991,0.8798,0.932,0.9367,1.1009,1.2264,1.1714,1.2101,1.2501,1.2501,1.2522,1.207,1.0676,1.0381,0.7855,0.0785,-0.0,-0.0,-0.0,-0.0,-0.0,-0.0,-0.0,-0.0,-0.0,-0.0,-0.0,-0.0,-0.0,-0.0,-0.0,-0.0,-0.0,-0.0,-0.0,-0.0,-0.0,-0.0,-0.0,-0.0,-0.0,-0.0,-0.0,-0.0,-0.0,-0.0,-0.0,-0.0,-0.0,-0.0,-0.0,-0.0,-0.0,-0.0,-0.0,-0.0,-0.0,-0.0,-0.0,-0.0,-0.0,-0.0,-0.0,-0.0,-0.0,-0.0,-0.0,-0.0,-0.0,-0.0,-0.0,-0.0,-0.0,-0.0,-0.0,-0.0,-0.0,-0.0,-0.0,-0.0,-0.0,-0.0,-0.0,-0.0,-0.0,-0.0,-0.0,-0.0,-0.0,-0.0,-0.0,-0.0,-0.0,-0.3037,-0.9879,-1.3335,-1.5248,-1.5208,-1.5208,-1.5221,-1.5262,-1.5513,-1.5662,-1.5716,-1.5967,-1.6083,0.0,0.0,0.0,0.6966,0.6817,0.6668,0.6512,0.7848,0.9164,0.9313,1.0894,1.2291,1.2433,1.2481,1.2501,1.2501,1.2501,1.1095,0.7037,0.6257,0.4539,0.0471,-0.0,-0.0,-0.0,-0.0,-0.0,-0.0,-0.0,-0.0,-0.0,-0.0,-0.0,-0.0,-0.0,-0.0,-0.0,-0.0,-0.0,-0.0,-0.0,-0.0,-0.0,-0.0,-0.0,-0.0,-0.0,-0.0,-0.0,-0.0,-0.0,-0.0,-0.0,-0.0,-0.0,-0.0,-0.0,-0.0,-0.0,-0.0,-0.0,-0.0,-0.0,-0.0,-0.0,-0.0,-0.0,-0.0,-0.0,-0.0,-0.0,-0.0,-0.0,-0.0,-0.0,-0.0,-0.0,-0.0,-0.0,-0.0,-0.0,-0.0,-0.0,-0.0,-0.0,-0.0,-0.0,-0.0,-0.0,-0.0,-0.0,-0.0,-0.0,-0.0,-0.0,-0.0,-0.0,-0.0,-0.0,-0.0,-0.0,-0.9517,-1.4897,-1.506,-1.506,-1.5303,-1.5418,-1.5567,-1.571,-1.5859,-1.6008,-1.6083,0.7143,0.0,0.0,0.0,0.0,0.0,0.6675,0.7522,0.8357,0.8404,0.9964,1.1362,1.1504,1.206,1.2508,1.2535,1.2562,1.2102,1.0999,0.5642,0.1255,0.0157,-0.0,-0.0,-0.0,-0.0,-0.0,-0.0,-0.0,-0.0,-0.0,-0.0,-0.0,-0.0,-0.0,-0.0,-0.0,-0.0,-0.0,-0.0,-0.0,-0.0,-0.0,-0.0,-0.0,-0.0,-0.0,-0.0,-0.0,-0.0,-0.0,-0.0,-0.0,-0.0,-0.0,-0.0,-0.0,-0.0,-0.0,-0.0,-0.0,-0.0,-0.0,-0.0,-0.0,-0.0,-0.0,-0.0,-0.0,-0.0,-0.0,-0.0,-0.0,-0.0,-0.0,-0.0,-0.0,-0.0,-0.0,-0.0,-0.0,-0.0,-0.0,-0.0,-0.0,-0.0,-0.0,-0.0,-0.0,-0.0,-0.0,-0.0,-0.0,-0.0,-0.0,-0.0,-0.0,-0.0,-0.0,-0.0,-0.0,-0.266,-0.6456,-1.139,-1.3895,-1.5357,-1.5574,-1.5615,-1.571,-1.5859,-1.6008,-1.6083,0.7143,0.7143,0.7143,0.7143,0.0,0.0,0.6736,0.7685,0.8601,0.8601,1.0148,1.1436,1.1206,1.1893,1.2275,1.1837,1.2182,1.2498,1.2569,0.8333,0.3927,0.0471,-0.0,-0.0,-0.0,-0.0,-0.0,-0.0,-0.0,-0.0,-0.0,-0.0,-0.0,-0.0,-0.0,-0.0,-0.0,-0.0,-0.0,-0.0,-0.0,-0.0,-0.0,-0.0,-0.0,-0.0,-0.0,-0.0,-0.0,-0.0,-0.0,-0.0,-0.0,-0.0,-0.0,-0.0,-0.0,-0.0,-0.0,-0.0,-0.0,-0.0,-0.0,-0.0,-0.0,-0.0,-0.0,-0.0,-0.0,-0.0,-0.0,-0.0,-0.0,-0.0,-0.0,-0.0,-0.0,-0.0,-0.0,-0.0,-0.0,-0.0,-0.0,-0.0,-0.0,-0.0,-0.0,-0.0,-0.0,-0.0,-0.0,-0.0,-0.0,-0.0,-0.0,-0.0,-0.0,-0.0,-0.0,-0.0,-0.0,-0.0,-0.3803,-1.1999,-1.4115,-1.5391,-1.5642,-1.5642,-1.5744,-1.5947,-1.6042,-1.6083,0.7143,0.7143,0.7143,0.7143,0.7048,0.0,0.6763,0.795,0.9117,0.9332,1.074,1.1784,1.1379,1.1854,1.1884,1.1063,1.1819,1.2477,1.2519,1.1622,0.8315,0.0932,-0.0,-0.0,-0.0,-0.0,-0.0,-0.0,-0.0,-0.0,-0.0,-0.0,-0.0,-0.0,-0.0,-0.0,-0.0,-0.0,-0.0,-0.0,-0.0,-0.0,-0.0,-0.0,-0.0,-0.0,-0.0,-0.0,-0.0,-0.0,-0.0,-0.0,-0.0,-0.0,-0.0,-0.0,-0.0,-0.0,-0.0,-0.0,-0.0,-0.0,-0.0,-0.0,-0.0,-0.0,-0.0,-0.0,-0.0,-0.0,-0.0,-0.0,-0.0,-0.0,-0.0,-0.0,-0.0,-0.0,-0.0,-0.0,-0.0,-0.0,-0.0,-0.0,-0.0,-0.0,-0.0,-0.0,-0.0,-0.0,-0.0,-0.0,-0.0,-0.0,-0.0,-0.0,-0.0,-0.0,-0.0,-0.0,-0.0,-0.0,-0.4196,-1.3406,-1.4571,-1.5445,-1.5642,-1.5676,-1.5825,-1.6083,-1.6083,-1.6083,0.7143,0.7143,0.7143,0.7143,0.7048,0.0,0.6847,0.7001,0.766,0.9135,0.9754,1.0477,1.1946,1.1233,1.0776,1.198,1.2406,1.2531,1.2448,0.6664,0.1844,0.0145,-0.0,-0.0,-0.0,-0.0,-0.0,-0.0,-0.0,-0.0,-0.0,-0.0,-0.0,-0.0,-0.0,-0.0,-0.0,-0.0,-0.0,-0.0,-0.0,-0.0,-0.0,-0.0,-0.0,-0.0,-0.0,-0.0,-0.0,-0.0,-0.0,-0.0,-0.0,-0.0,-0.0,-0.0,-0.0,-0.0,-0.0,-0.0,-0.0,-0.0,-0.0,-0.0,-0.0,-0.0,-0.0,-0.0,-0.0,-0.0,-0.0,-0.0,-0.0,-0.0,-0.0,-0.0,-0.0,-0.0,-0.0,-0.0,-0.0,-0.0,-0.0,-0.0,-0.0,-0.0,-0.0,-0.0,-0.0,-0.0,-0.0,-0.0,-0.0,-0.0,-0.0,-0.0,-0.0,-0.0,-0.0,-0.0,-0.0,-0.0,-0.0953,-0.2851,-1.1205,-1.5635,-1.5683,-1.5893,-1.6022,-1.6083,-1.6083,-1.6083,0.7143,0.7061,0.7068,0.7068,0.7081,0.0,0.0,0.5184,0.5379,0.6101,0.71,0.8213,0.921,1.0339,1.0795,0.9953,1.1298,1.1012,0.6888,0.2622,-0.0,-0.0,-0.0,-0.0,-0.0,-0.0,-0.0,-0.0,-0.0,-0.0,-0.0,-0.0,-0.0,-0.0,-0.0,-0.0,-0.0,-0.0,-0.0,-0.0,-0.0,-0.0,-0.0,-0.0,-0.0,-0.0,-0.0,-0.0,-0.0,-0.0,-0.0,-0.0,-0.0,-0.0,-0.0,-0.0,-0.0,-0.0,-0.0,-0.0,-0.0,-0.0,-0.0,-0.0,-0.0,-0.0,-0.0,-0.0,-0.0,-0.0,-0.0,-0.0,-0.0,-0.0,-0.0,-0.0,-0.0,-0.0,-0.0,-0.0,-0.0,-0.0,-0.0,-0.0,-0.0,-0.0,-0.0,-0.0,-0.0,-0.0,-0.0,-0.0,-0.0,-0.0,-0.0,-0.0,-0.0,-0.0,-0.0,-0.0,-0.0,-0.0,-0.0,-0.0,-1.0289,-1.5535,-1.589,-1.5974,-1.6096,-1.6083,-1.6083,-1.6083,0.719,0.7115,0.7032,0.6548,0.6732,0.6624,0.0,0.0,0.0,0.2556,0.3852,0.5046,0.5107,0.787,0.9445,0.7443,0.8756,0.7767,0.0953,-0.0,-0.0,-0.0,-0.0,-0.0,-0.0,-0.0,-0.0,-0.0,-0.0,-0.0,-0.0,-0.0,-0.0,-0.0,-0.0,-0.0,-0.0,-0.0,-0.0,-0.0,-0.0,-0.0,-0.0,-0.0,-0.0,-0.0,-0.0,-0.0,-0.0,-0.0,-0.0,-0.0,-0.0,-0.0,-0.0,-0.0,-0.0,-0.0,-0.0,-0.0,-0.0,-0.0,-0.0,-0.0,-0.0,-0.0,-0.0,-0.0,-0.0,-0.0,-0.0,-0.0,-0.0,-0.0,-0.0,-0.0,-0.0,-0.0,-0.0,-0.0,-0.0,-0.0,-0.0,-0.0,-0.0,-0.0,-0.0,-0.0,-0.0,-0.0,-0.0,-0.0,-0.0,-0.0,-0.0,-0.0,-0.0,-0.0,-0.0,-0.0,-0.0,-0.0,-0.0,-0.0,-0.8164,-1.3579,-1.5723,-1.6008,-1.6123,-1.6083,-1.6083,-1.6083,0.7282,0.7197,0.6612,0.4486,0.5563,0.7039,0.6745,0.0,0.0356,0.0355,0.0,0.0709,0.071,0.0,0.0,0.6477,0.3912,0.1041,0.0103,-0.0,-0.0,-0.0,-0.0,-0.0,-0.0,-0.0,-0.0,-0.0,-0.0,-0.0,-0.0,-0.0,-0.0,-0.0,-0.0,-0.0,-0.0,-0.0,-0.0,-0.0,-0.0,-0.0,-0.0,-0.0,-0.0,-0.0,-0.0,-0.0,-0.0,-0.0,-0.0,-0.0,-0.0,-0.0,-0.0,-0.0,-0.0,-0.0,-0.0,-0.0,-0.0,-0.0,-0.0,-0.0,-0.0,-0.0,-0.0,-0.0,-0.0,-0.0,-0.0,-0.0,-0.0,-0.0,-0.0,-0.0,-0.0,-0.0,-0.0,-0.0,-0.0,-0.0,-0.0,-0.0,-0.0,-0.0,-0.0,-0.0,-0.0,-0.0,-0.0,-0.0,-0.0,-0.0,-0.0,-0.0,-0.0,-0.0,-0.0,-0.0,-0.0,-0.0,-0.0,-0.0,-0.1164,-0.6465,-1.5805,-1.6062,-1.6157,-1.6083,-1.6083,-1.6083,0.5508,0.685,0.8187,0.6183,0.4307,0.2979,0.2987,0.1408,-0.0,-0.0,0.0,0.0,0.0,0.0,0.0,0.0,0.1341,-0.0,-0.0,-0.0,-0.0,-0.0,-0.0,-0.0,-0.0,-0.0,-0.0,-0.0,-0.0,-0.0,-0.0,-0.0,-0.0,-0.0,-0.0,-0.0,-0.0,-0.0,-0.0,-0.0,-0.0,-0.0,-0.0,-0.0,-0.0,-0.0,-0.0,-0.0,-0.0,-0.0,-0.0,-0.0,-0.0,-0.0,-0.0,-0.0,-0.0,-0.0,-0.0,-0.0,-0.0,-0.0,-0.0,-0.0,-0.0,-0.0,-0.0,-0.0,-0.0,-0.0,-0.0,-0.0,-0.0,-0.0,-0.0,-0.0,-0.0,-0.0,-0.0,-0.0,-0.0,-0.0,-0.0,-0.0,-0.0,-0.0,-0.0,-0.0,-0.0,-0.0,-0.0,-0.0,-0.0,-0.0,-0.0,-0.0,-0.0,-0.0,-0.0,-0.0,-0.0,-0.0,-0.0,-0.0,-0.0,-0.2156,-0.6667,-1.3035,-1.4556,-1.1449,-1.4688,-1.6103,0.4335,0.5338,0.7354,0.8375,0.4303,-0.0,-0.0,-0.0,-0.0,-0.0,-0.0,0.0,0.0,0.0,-0.0,-0.0,0.0,-0.0,-0.0,-0.0,-0.0,-0.0,-0.0,-0.0,-0.0,-0.0,-0.0,-0.0,-0.0,-0.0,-0.0,-0.0,-0.0,-0.0,-0.0,-0.0,-0.0,-0.0,-0.0,-0.0,-0.0,-0.0,-0.0,-0.0,-0.0,-0.0,-0.0,-0.0,-0.0,-0.0,-0.0,-0.0,-0.0,-0.0,-0.0,-0.0,-0.0,-0.0,-0.0,-0.0,-0.0,-0.0,-0.0,-0.0,-0.0,-0.0,-0.0,-0.0,-0.0,-0.0,-0.0,-0.0,-0.0,-0.0,-0.0,-0.0,-0.0,-0.0,-0.0,-0.0,-0.0,-0.0,-0.0,-0.0,-0.0,-0.0,-0.0,-0.0,-0.0,-0.0,-0.0,-0.0,-0.0,-0.0,-0.0,-0.0,-0.0,-0.0,-0.0,-0.0,-0.0,-0.0,-0.0,-0.0,-0.0,-0.0,-0.0,-0.7804,-1.0502,-0.8048,-1.3495,-1.6117,0.4493,0.225,0.2199,1.0351,0.6114,-0.0,-0.0,-0.0,-0.0,-0.0,-0.0,-0.0,-0.0,-0.0,-0.0,-0.0,-0.0,0.0,0.0,-0.0,-0.0,-0.0,-0.0,-0.0,-0.0,-0.0,-0.0,-0.0,-0.0,-0.0,-0.0,-0.0,-0.0,-0.0,-0.0,-0.0,-0.0,-0.0,-0.0,-0.0,-0.0,-0.0,-0.0,-0.0,-0.0,-0.0,-0.0,-0.0,-0.0,-0.0,-0.0,-0.0,-0.0,-0.0,-0.0,-0.0,-0.0,-0.0,-0.0,-0.0,-0.0,-0.0,-0.0,-0.0,-0.0,-0.0,-0.0,-0.0,-0.0,-0.0,-0.0,-0.0,-0.0,-0.0,-0.0,-0.0,-0.0,-0.0,-0.0,-0.0,-0.0,-0.0,-0.0,-0.0,-0.0,-0.0,-0.0,-0.0,-0.0,-0.0,-0.0,-0.0,-0.0,-0.0,-0.0,-0.0,-0.0,-0.0,-0.0,-0.0,-0.0,-0.0,-0.0,-0.0,-0.0,-0.0,-0.0,-0.04,-0.3027,-0.8065,-1.3507,-1.613,0.96,0.8911,0.7607,0.487,0.4209,0.3487,0.0677,-0.0,-0.0,-0.0,-0.0,-0.0,-0.0,-0.0,-0.0,-0.0,-0.0,-0.0,0.0,-0.0,-0.0,-0.0,-0.0,-0.0,-0.0,-0.0,-0.0,-0.0,-0.0,-0.0,-0.0,-0.0,-0.0,-0.0,-0.0,-0.0,-0.0,-0.0,-0.0,-0.0,-0.0,-0.0,-0.0,-0.0,-0.0,-0.0,-0.0,-0.0,-0.0,-0.0,-0.0,-0.0,-0.0,-0.0,-0.0,-0.0,-0.0,-0.0,-0.0,-0.0,-0.0,-0.0,-0.0,-0.0,-0.0,-0.0,-0.0,-0.0,-0.0,-0.0,-0.0,-0.0,-0.0,-0.0,-0.0,-0.0,-0.0,-0.0,-0.0,-0.0,-0.0,-0.0,-0.0,-0.0,-0.0,-0.0,-0.0,-0.0,-0.0,-0.0,-0.0,-0.0,-0.0,-0.0,-0.0,-0.0,-0.0,-0.0,-0.0,-0.0,-0.0,-0.0,-0.0,-0.0,-0.0,-0.0,-0.0,-0.0,-0.1009,-0.2825,-0.4626,-0.9244,1.245,1.2607,1.1302,0.5743,0.544,0.5137,0.0993,-0.0,0.0813,0.3869,0.2036,0.0201,0.0954,0.0476,-0.0,-0.0,-0.0,-0.0,0.0,-0.0,-0.0,-0.0,-0.0,-0.0,-0.0,-0.0,-0.0,-0.0,-0.0,-0.0,-0.0,-0.0,-0.0,-0.0,-0.0,-0.0,-0.0,-0.0,-0.0,-0.0,-0.0,-0.0,-0.0,-0.0,-0.0,-0.0,-0.0,-0.0,-0.0,-0.0,-0.0,-0.0,-0.0,-0.0,-0.0,-0.0,-0.0,-0.0,-0.0,-0.0,-0.0,-0.0,-0.0,-0.0,-0.0,-0.0,-0.0,-0.0,-0.0,-0.0,-0.0,-0.0,-0.0,-0.0,-0.0,-0.0,-0.0,-0.0,-0.0,-0.0,-0.0,-0.0,-0.0,-0.0,-0.0,-0.0,-0.0,-0.0,-0.0,-0.0,-0.0,-0.0,-0.0,-0.0,-0.0,-0.0,-0.0,-0.0,-0.0,-0.0,-0.0,-0.0,-0.0,-0.0,-0.0,-0.0,-0.0,-0.0,-0.0,-0.0,-0.0,-0.382]},{"header":{"parameterUnit":"m.s-1","parameterCategory":1,"la1":30.6,"la2":29.2853,"lo1":-89.7004,"lo2":-87.6739,"dy":0.0162,"dx":0.0183,"nx":112,"ny":82,"refTime":"2023-04-26T00:00:00:Z","depth":0,"parameterNumber":3,"parameterNumberName":"V-component_of_WINDS"},"data":[0.0,0.0,0.0,0.0,0.0,0.0,0.0,0.0,0.0,0.0,0.0,0.0,0.0,0.0,0.0,0.0,0.0,0.0,0.0,0.0,0.0,0.0,0.0,0.0,0.0,0.0,0.0,0.0,0.0,0.0,0.0,0.0,0.0,0.0,0.0,0.0,0.0,0.0,0.0,0.0,0.0,0.0,0.0,0.0,0.0,0.0,0.0,0.0,0.0,0.0,0.0,0.0,0.0,0.0,0.0,0.0,0.0,0.0,0.0,0.0,0.0,0.0,0.0,0.0,0.0,0.0,0.0,0.0,0.0,0.0,0.0,0.0,0.0,0.0,0.0,0.0,0.0,0.0,0.0,0.0,0.0,0.0,0.0,0.0,0.0,0.0,0.0,0.0,0.0,0.0,-6.0417,-6.4986,-6.6777,-6.7687,-6.7687,-6.7687,-6.5558,-6.0529,0.0,0.0,0.0,0.0,0.0,0.0,0.0,0.0,0.0,0.0,0.0,0.0,0.0,0.0,0.0,0.0,0.0,0.0,0.0,0.0,0.0,0.0,0.0,0.0,0.0,0.0,0.0,0.0,0.0,0.0,0.0,0.0,0.0,0.0,0.0,0.0,0.0,0.0,0.0,0.0,0.0,0.0,0.0,0.0,0.0,0.0,0.0,0.0,0.0,0.0,0.0,0.0,0.0,0.0,0.0,0.0,0.0,0.0,0.0,0.0,0.0,0.0,0.0,0.0,0.0,0.0,0.0,0.0,0.0,0.0,0.0,0.0,0.0,0.0,0.0,0.0,0.0,0.0,0.0,0.0,0.0,0.0,0.0,0.0,0.0,0.0,0.0,0.0,0.0,0.0,0.0,0.0,0.0,0.0,0.0,0.0,0.0,0.0,0.0,0.0,0.0,0.0,0.0,0.0,-6.3011,-6.7477,-6.7774,-6.7687,-6.7687,-6.7687,-6.5301,-5.9758,0.0,0.0,0.0,0.0,0.0,0.0,0.0,0.0,0.0,0.0,0.0,0.0,0.0,0.0,0.0,0.0,0.0,0.0,0.0,0.0,0.0,0.0,0.0,0.0,0.0,0.0,0.0,0.0,0.0,0.0,0.0,0.0,0.0,0.0,0.0,0.0,0.0,0.0,0.0,0.0,0.0,0.0,0.0,0.0,0.0,0.0,0.0,0.0,0.0,0.0,0.0,0.0,0.0,0.0,0.0,0.0,0.0,0.0,0.0,0.0,0.0,0.0,0.0,0.0,0.0,0.0,0.0,0.0,0.0,0.0,0.0,0.0,0.0,0.0,0.0,0.0,0.0,0.0,0.0,0.0,0.0,0.0,0.0,0.0,0.0,0.0,0.0,0.0,0.0,0.0,0.0,0.0,0.0,0.0,0.0,0.0,0.0,0.0,0.0,0.0,0.0,0.0,0.0,-6.2518,-6.6112,-6.7889,-6.7863,-6.7871,-6.8311,-6.8348,-6.6109,-6.0823,-6.0089,0.0,0.0,0.0,0.0,0.0,0.0,0.0,0.0,0.0,0.0,0.0,0.0,0.0,0.0,0.0,0.0,0.0,0.0,0.0,0.0,0.0,0.0,0.0,0.0,0.0,0.0,0.0,0.0,0.0,0.0,0.0,0.0,0.0,0.0,0.0,0.0,0.0,0.0,0.0,0.0,0.0,0.0,0.0,0.0,0.0,0.0,0.0,0.0,0.0,0.0,0.0,0.0,0.0,0.0,0.0,0.0,0.0,0.0,0.0,0.0,0.0,0.0,0.0,0.0,0.0,0.0,0.0,0.0,0.0,0.0,0.0,0.0,0.0,0.0,0.0,0.0,0.0,0.0,0.0,0.0,0.0,0.0,0.0,0.0,0.0,0.0,0.0,0.0,0.0,0.0,0.0,0.0,0.0,0.0,0.0,0.0,0.0,0.0,0.0,0.0,0.0,0.0,-6.521,-6.8091,-6.8151,-6.8235,-6.8531,-6.9119,-6.9192,-6.6916,-6.163,-6.0933,0.0,0.0,0.0,0.0,0.0,0.0,0.0,0.0,0.0,0.0,0.0,0.0,0.0,0.0,0.0,0.0,0.0,0.0,0.0,0.0,0.0,0.0,0.0,0.0,0.0,0.0,0.0,0.0,0.0,0.0,0.0,0.0,0.0,0.0,0.0,0.0,0.0,0.0,0.0,0.0,0.0,0.0,0.0,0.0,0.0,0.0,0.0,0.0,0.0,0.0,0.0,0.0,0.0,0.0,0.0,0.0,0.0,0.0,0.0,0.0,0.0,0.0,0.0,0.0,0.0,0.0,0.0,0.0,0.0,0.0,0.0,0.0,0.0,0.0,0.0,0.0,0.0,0.0,0.0,0.0,0.0,0.0,0.0,0.0,0.0,0.0,0.0,0.0,0.0,0.0,0.0,0.0,0.0,0.0,0.0,0.0,0.0,0.0,0.0,0.0,0.0,0.0,-6.4466,-6.7509,-6.9368,-6.9753,-6.9963,-7.0,-7.0,-6.7283,-6.0896,-6.1117,0.0,0.0,0.0,0.0,0.0,0.0,0.0,0.0,0.0,0.0,0.0,0.0,0.0,0.0,0.0,0.0,0.0,0.0,0.0,0.0,0.0,0.0,0.0,0.0,0.0,0.0,0.0,0.0,0.0,0.0,0.0,0.0,0.0,0.0,0.0,0.0,0.0,0.0,0.0,0.0,0.0,0.0,0.0,0.0,0.0,0.0,0.0,0.0,0.0,0.0,0.0,0.0,0.0,0.0,0.0,0.0,0.0,0.0,0.0,0.0,0.0,0.0,0.0,0.0,0.0,0.0,0.0,0.0,0.0,0.0,0.0,0.0,0.0,0.0,0.0,0.0,0.0,0.0,0.0,0.0,0.0,0.0,0.0,0.0,0.0,0.0,0.0,0.0,0.0,0.0,0.0,0.0,0.0,0.0,0.0,0.0,0.0,0.0,0.0,0.0,0.0,0.0,-6.6313,-6.9677,-7.0459,-7.0249,-7.0293,-7.0807,-7.0844,-6.8311,-6.2291,0.0,0.0,0.0,0.0,0.0,0.0,0.0,0.0,0.0,0.0,0.0,0.0,0.0,0.0,0.0,0.0,0.0,0.0,0.0,0.0,0.0,0.0,0.0,0.0,0.0,0.0,0.0,0.0,0.0,0.0,0.0,0.0,0.0,0.0,0.0,0.0,0.0,0.0,0.0,0.0,0.0,0.0,0.0,0.0,0.0,0.0,0.0,0.0,0.0,0.0,0.0,0.0,0.0,0.0,0.0,0.0,0.0,0.0,0.0,0.0,0.0,0.0,0.0,0.0,0.0,0.0,0.0,0.0,0.0,0.0,0.0,0.0,0.0,0.0,0.0,0.0,0.0,0.0,0.0,0.0,0.0,0.0,0.0,0.0,0.0,0.0,0.0,0.0,0.0,0.0,0.0,0.0,0.0,0.0,0.0,0.0,0.0,0.0,0.0,0.0,0.0,0.0,-6.2327,-6.7709,-7.1488,-7.113,-7.0991,-7.1101,-7.1651,-7.1688,-6.9155,-6.3209,0.0,0.0,0.0,0.0,0.0,0.0,0.0,0.0,0.0,0.0,0.0,0.0,0.0,0.0,0.0,0.0,0.0,0.0,0.0,0.0,0.0,0.0,0.0,0.0,0.0,0.0,0.0,0.0,0.0,0.0,0.0,0.0,0.0,0.0,0.0,0.0,0.0,0.0,0.0,0.0,0.0,0.0,0.0,0.0,0.0,0.0,0.0,0.0,0.0,0.0,0.0,0.0,0.0,0.0,0.0,0.0,0.0,0.0,0.0,0.0,0.0,0.0,0.0,0.0,0.0,0.0,0.0,0.0,0.0,0.0,0.0,0.0,0.0,0.0,0.0,0.0,0.0,0.0,0.0,0.0,0.0,0.0,0.0,0.0,0.0,0.0,0.0,0.0,0.0,0.0,0.0,0.0,0.0,0.0,0.0,0.0,0.0,0.0,0.0,0.0,0.0,0.0,-6.1734,-6.8286,-7.2557,-7.1453,-7.2018,-7.2496,-7.2496,-7.2496,-6.9743,0.0,0.0,0.0,0.0,0.0,0.0,0.0,0.0,0.0,0.0,0.0,0.0,0.0,0.0,0.0,0.0,0.0,0.0,0.0,0.0,0.0,0.0,0.0,0.0,0.0,0.0,0.0,0.0,0.0,0.0,0.0,0.0,0.0,0.0,0.0,0.0,0.0,0.0,0.0,0.0,0.0,0.0,0.0,0.0,0.0,0.0,0.0,0.0,0.0,0.0,0.0,0.0,0.0,0.0,0.0,0.0,0.0,0.0,0.0,0.0,0.0,0.0,0.0,0.0,0.0,0.0,0.0,0.0,0.0,0.0,0.0,0.0,0.0,0.0,0.0,0.0,0.0,0.0,0.0,0.0,0.0,0.0,0.0,0.0,0.0,0.0,0.0,0.0,0.0,0.0,0.0,0.0,0.0,0.0,0.0,0.0,0.0,0.0,0.0,0.0,0.0,0.0,0.0,-6.327,-6.9422,-7.3605,-7.2852,-7.2614,-7.2496,-7.2496,-7.2496,-6.9486,-6.2401,0.0,0.0,0.0,0.0,0.0,0.0,0.0,0.0,0.0,0.0,0.0,0.0,0.0,0.0,0.0,0.0,0.0,0.0,0.0,0.0,0.0,0.0,0.0,0.0,0.0,0.0,0.0,0.0,0.0,0.0,0.0,0.0,0.0,0.0,0.0,0.0,0.0,0.0,0.0,0.0,0.0,0.0,0.0,0.0,0.0,0.0,0.0,0.0,0.0,0.0,0.0,0.0,0.0,0.0,0.0,0.0,0.0,0.0,0.0,0.0,0.0,0.0,0.0,0.0,0.0,0.0,0.0,0.0,0.0,0.0,0.0,0.0,0.0,0.0,0.0,0.0,0.0,0.0,0.0,0.0,0.0,0.0,0.0,0.0,0.0,0.0,0.0,0.0,0.0,0.0,0.0,0.0,0.0,0.0,0.0,0.0,0.0,0.0,0.0,0.0,0.0,0.0,-6.3468,-6.9753,-7.398,-7.3119,-7.2742,-7.2496,-7.2496,-7.2496,-7.0073,-6.4383,0.0,0.0,0.0,0.0,0.0,0.0,0.0,0.0,0.0,0.0,0.0,0.0,0.0,0.0,0.0,0.0,0.0,0.0,0.0,0.0,0.0,0.0,0.0,0.0,0.0,0.0,0.0,0.0,0.0,0.0,0.0,0.0,0.0,0.0,0.0,0.0,0.0,0.0,0.0,0.0,0.0,0.0,0.0,0.0,0.0,0.0,0.0,0.0,0.0,0.0,0.0,0.0,0.0,0.0,0.0,0.0,0.0,0.0,0.0,0.0,0.0,0.0,0.0,0.0,0.0,0.0,0.0,0.0,0.0,0.0,0.0,0.0,0.0,0.0,0.0,0.0,0.0,0.0,0.0,0.0,0.0,0.0,0.0,0.0,0.0,0.0,0.0,0.0,0.0,0.0,0.0,0.0,0.0,0.0,0.0,0.0,0.0,0.0,0.0,0.0,0.0,0.0,-6.2892,-6.9528,-7.3841,-7.263,-7.2496,-7.2496,-7.2496,-7.2496,-7.1101,-6.7797,0.0,0.0,0.0,0.0,0.0,0.0,0.0,0.0,0.0,0.0,0.0,0.0,0.0,0.0,0.0,0.0,0.0,0.0,0.0,0.0,0.0,0.0,0.0,0.0,0.0,0.0,0.0,0.0,0.0,0.0,0.0,0.0,0.0,0.0,0.0,0.0,0.0,0.0,0.0,0.0,0.0,0.0,0.0,0.0,0.0,0.0,0.0,0.0,0.0,0.0,0.0,0.0,0.0,0.0,0.0,0.0,0.0,0.0,0.0,0.0,-6.4039,0.0,0.0,0.0,0.0,0.0,0.0,0.0,0.0,0.0,0.0,0.0,0.0,0.0,0.0,0.0,0.0,0.0,0.0,0.0,0.0,0.0,0.0,0.0,0.0,0.0,0.0,0.0,0.0,0.0,0.0,0.0,0.0,0.0,0.0,0.0,0.0,0.0,0.0,0.0,0.0,0.0,-6.2977,-6.9528,-7.3841,-7.263,-7.2496,-7.2496,-7.2496,-7.2496,-7.0881,-6.699,-6.5925,0.0,0.0,0.0,0.0,0.0,0.0,0.0,0.0,0.0,0.0,0.0,0.0,0.0,0.0,0.0,0.0,0.0,0.0,0.0,0.0,0.0,0.0,0.0,0.0,0.0,0.0,0.0,0.0,0.0,0.0,0.0,0.0,0.0,0.0,0.0,0.0,0.0,0.0,0.0,0.0,0.0,0.0,0.0,0.0,0.0,0.0,0.0,0.0,0.0,0.0,0.0,0.0,0.0,0.0,0.0,0.0,0.0,0.0,0.0,0.0,-6.3935,0.0,0.0,0.0,0.0,0.0,0.0,0.0,0.0,0.0,0.0,0.0,0.0,0.0,0.0,0.0,0.0,0.0,0.0,0.0,0.0,0.0,0.0,0.0,0.0,0.0,0.0,0.0,0.0,0.0,0.0,0.0,0.0,0.0,0.0,0.0,0.0,0.0,0.0,0.0,0.0,-6.2965,-6.9528,-7.3841,-7.263,-7.2496,-7.2679,-7.3046,-7.3083,-7.2349,-7.066,-6.8715,0.0,0.0,0.0,0.0,0.0,0.0,0.0,0.0,0.0,0.0,0.0,0.0,0.0,0.0,0.0,0.0,0.0,0.0,0.0,0.0,0.0,0.0,0.0,0.0,0.0,0.0,0.0,0.0,0.0,0.0,0.0,0.0,0.0,0.0,0.0,0.0,0.0,0.0,0.0,0.0,0.0,0.0,0.0,0.0,0.0,0.0,0.0,0.0,0.0,0.0,0.0,0.0,0.0,-6.4657,-6.5504,-6.6134,-6.5257,-6.518,-6.5743,-6.6705,-6.7192,-6.7154,-6.4897,0.0,0.0,0.0,0.0,0.0,0.0,0.0,0.0,0.0,0.0,0.0,0.0,0.0,0.0,0.0,0.0,0.0,0.0,0.0,0.0,0.0,0.0,0.0,0.0,-6.7705,-6.7744,-6.7667,0.0,0.0,0.0,0.0,0.0,0.0,0.0,0.0,0.0,0.0,0.0,-6.2841,-6.9407,-7.3774,-7.2851,-7.2716,-7.3046,-7.3817,-7.3891,-7.4184,-7.4882,-7.1798,-6.9706,0.0,0.0,0.0,0.0,0.0,0.0,0.0,0.0,0.0,0.0,0.0,0.0,0.0,0.0,0.0,0.0,0.0,0.0,0.0,0.0,0.0,0.0,0.0,0.0,0.0,0.0,0.0,0.0,0.0,0.0,0.0,0.0,-5.7703,-5.9271,0.0,0.0,0.0,0.0,0.0,0.0,0.0,0.0,0.0,0.0,0.0,0.0,0.0,-6.0078,-6.0078,-6.3515,-6.5558,-6.6136,-6.8539,-6.9925,-7.0414,-7.0233,-7.0129,-6.9975,-6.7975,0.0,-6.709,-6.6744,0.0,0.0,0.0,0.0,0.0,0.0,0.0,0.0,0.0,0.0,0.0,0.0,0.0,0.0,0.0,0.0,0.0,0.0,0.0,0.0,0.0,0.0,-7.4245,-7.4591,-7.2476,-7.1168,0.0,-6.8513,-6.3666,-6.5974,-6.3974,0.0,0.0,0.0,0.0,0.0,0.0,0.0,-6.2398,-6.8836,-7.3536,-7.3566,-7.3523,-7.3854,-7.4698,-7.4735,-7.4808,-7.4918,-7.4404,-7.2863,-7.0073,-7.3303,0.0,0.0,0.0,0.0,0.0,0.0,0.0,0.0,0.0,0.0,0.0,0.0,0.0,0.0,0.0,0.0,0.0,0.0,0.0,0.0,0.0,0.0,0.0,0.0,0.0,0.0,0.0,0.0,0.0,-5.7879,-5.9396,-5.9888,-5.9476,-5.808,0.0,0.0,0.0,0.0,0.0,0.0,0.0,0.0,0.0,-5.9844,-6.2109,-6.332,-6.332,-6.6673,-6.8491,-6.8806,-7.0217,-7.1014,-7.1206,-7.1091,-7.0975,-7.0821,-6.9706,-6.9244,-6.9129,-6.7667,-6.709,-6.6859,0.0,0.0,0.0,0.0,-6.0358,-6.1512,-6.0704,-6.2935,-6.609,-6.559,0.0,0.0,0.0,0.0,0.0,0.0,0.0,-6.809,0.0,0.0,-7.4245,-7.5668,-7.4861,-7.4168,-7.5668,-7.1552,-6.8052,0.0,-6.6859,-6.3514,-6.1249,-6.1911,0.0,0.0,0.0,-6.6796,-6.6499,-7.0884,-7.4174,-7.4316,-7.4368,-7.4698,-7.5506,-7.5579,-7.5763,-7.624,-7.6276,-7.5652,-7.4221,-7.5836,-7.4221,0.0,0.0,0.0,0.0,0.0,0.0,0.0,0.0,0.0,0.0,0.0,0.0,0.0,0.0,0.0,0.0,0.0,0.0,0.0,0.0,0.0,0.0,0.0,0.0,0.0,0.0,0.0,0.0,-5.8902,-6.0458,-6.0674,-6.0732,-5.9778,0.0,0.0,0.0,0.0,0.0,0.0,-6.0469,-6.1055,-6.1797,-6.2695,-6.543,-6.6914,-6.6914,-6.9564,-7.0838,-7.0821,-7.1168,-7.1283,-7.1245,-7.1052,-7.0975,-7.0975,-7.0937,-7.0898,-7.0744,-6.8859,-6.8052,-6.8013,-6.7359,-6.5936,-6.4166,-6.332,-6.3666,-6.4512,-6.3666,-6.6167,-6.959,-6.8936,-6.9321,-6.9744,-6.8475,0.0,0.0,0.0,0.0,-6.9744,-7.1437,-7.2514,-7.363,-7.5553,-7.6015,-7.6015,-7.6015,-7.3322,-7.136,0.0,-6.9937,-6.6473,-6.4221,-6.5329,0.0,-6.1673,-6.6027,-6.98,-6.9956,-7.2857,-7.5028,-7.5161,-7.5212,-7.5542,-7.635,-7.6423,-7.668,-7.7268,-7.7304,-7.7304,-7.7304,-7.7304,-7.5909,-7.2899,0.0,0.0,0.0,0.0,0.0,0.0,0.0,0.0,0.0,0.0,0.0,0.0,0.0,0.0,0.0,0.0,0.0,0.0,0.0,0.0,0.0,0.0,0.0,0.0,0.0,0.0,0.0,0.0,0.0,-6.2362,-6.4743,0.0,0.0,0.0,0.0,-5.918,-5.914,-6.0625,-6.3867,-6.4062,-6.5586,-6.8828,-6.9922,-7.043,-7.043,-7.1444,-7.1848,-7.1657,-7.1657,-7.1618,-7.1503,-7.1283,-7.1168,-7.1168,-7.0975,-7.0898,-7.0898,-7.0744,-7.0706,-7.0475,-6.8052,-6.7013,-6.6513,-6.332,-6.4705,-6.8013,-6.7128,-6.9667,-7.3245,-7.3206,-7.2129,-7.0398,-6.7898,-6.7667,0.0,0.0,-6.9513,-7.186,-7.1168,-7.336,-7.5822,-7.5976,-7.6015,-7.6015,-7.6015,-7.3322,-7.186,0.0,-7.3014,-7.0591,-7.0448,0.0,-6.9023,-6.605,-6.8464,-7.0602,-7.0395,-7.3586,-7.5882,-7.6006,-7.6056,-7.6387,-7.7194,-7.7268,-7.7268,-7.7304,-7.7304,-7.7304,-7.7304,-7.7304,-7.7231,-7.7011,-7.3266,0.0,0.0,0.0,0.0,0.0,0.0,0.0,0.0,0.0,0.0,0.0,0.0,0.0,0.0,0.0,0.0,0.0,0.0,0.0,0.0,0.0,0.0,0.0,0.0,0.0,0.0,0.0,0.0,-6.339,-6.4081,0.0,-6.3085,-6.3008,-6.2851,-6.25,-6.4023,-6.5742,-6.75,-6.8125,-6.8984,-7.0195,-7.1094,-7.1523,-7.1523,-7.1719,-7.178,-7.1692,-7.1591,-7.1571,-7.1493,-7.1454,-7.1369,-7.1387,-7.1321,-7.1283,-7.1283,-7.1283,-7.1206,-7.1014,-7.0244,-7.0271,-7.0618,-6.9425,-7.0259,-7.1953,-7.1552,-7.2745,-7.4514,-7.4976,-7.4707,-7.4014,-7.3091,-7.3053,-7.3245,-7.2899,-7.3707,-7.4553,-7.4245,-7.5091,-7.6015,-7.6015,-7.6015,-7.6015,-7.6015,-7.5053,-7.4553,-7.5745,-7.3245,-7.0997,-7.1291,-7.3269,-7.3667,-7.0258,-7.2505,-7.4576,-7.4623,-7.5456,-7.6243,-7.679,-7.69,-7.7011,-7.7304,-7.7304,-7.7304,-7.7304,-7.7304,-7.7304,-7.7304,-7.7304,-7.7304,-7.7304,-7.646,-7.345,0.0,0.0,0.0,0.0,0.0,0.0,0.0,0.0,0.0,0.0,0.0,0.0,0.0,0.0,0.0,0.0,0.0,0.0,0.0,0.0,0.0,0.0,0.0,0.0,0.0,0.0,-6.1112,-6.359,-6.414,-6.4414,-6.4726,-6.4765,-6.5117,-6.5976,-6.7656,-6.8984,-6.9805,-7.039,-7.082,-7.1133,-7.1719,-7.1992,-7.1992,-7.1875,-7.1797,-7.1797,-7.1702,-7.1672,-7.1672,-7.1594,-7.094,-6.9884,-7.1004,-7.0838,-6.9865,-7.139,-7.1926,-7.1838,-7.1912,-7.2291,-7.2816,-7.3087,-7.3728,-7.4479,-7.4626,-7.4976,-7.5505,-7.5861,-7.6015,-7.6015,-7.6015,-7.6015,-7.6015,-7.6015,-7.6015,-7.6015,-7.6015,-7.6015,-7.6015,-7.6015,-7.6015,-7.6015,-7.6015,-7.5091,-7.4707,-7.6169,-7.4591,-7.2688,-7.1559,-7.3706,-7.4305,-7.0647,-7.2016,-7.3446,-7.3559,-7.4391,-7.5125,-7.5469,-7.6581,-7.7304,-7.7304,-7.6313,-7.6166,-7.7268,-7.6313,-7.6313,-7.7708,-7.6423,-7.5689,-7.5689,-7.4918,-7.2679,-6.8898,0.0,0.0,0.0,0.0,0.0,0.0,0.0,0.0,0.0,0.0,0.0,0.0,0.0,0.0,0.0,0.0,0.0,0.0,0.0,0.0,0.0,0.0,0.0,-5.3758,-5.9017,-6.2871,-6.3121,-6.539,-6.7265,-6.8164,-6.8242,-6.8555,-6.9375,-6.9492,-6.9883,-7.0703,-7.0625,-7.0976,-7.1758,-7.1836,-7.1836,-7.1797,-7.1914,-7.1992,-7.1992,-7.1992,-7.1992,-7.1992,-7.1797,-6.9883,-6.6952,-7.0142,-6.9603,-6.6864,-7.1216,-7.3031,-7.3035,-7.2902,-7.2874,-7.299,-7.3769,-7.46,-7.5439,-7.5928,-7.6198,-7.6245,-7.6053,-7.6015,-7.6015,-7.6015,-7.6015,-7.6015,-7.6015,-7.6015,-7.6015,-7.6015,-7.6015,-7.6015,-7.6015,-7.6015,-7.6015,-7.6015,-7.3437,-7.2322,-7.6515,-7.7361,-7.6053,-7.1898,-7.186,-7.1199,-6.747,-6.7285,0.0,-6.7203,-7.0621,-7.2791,-7.2146,-7.5064,-7.7194,-7.7304,-7.4368,-7.3891,-7.7157,-7.4441,-7.4515,-7.8479,-7.4845,-7.2753,-7.2753,-6.8843,-6.91,-7.378,0.0,0.0,0.0,0.0,0.0,0.0,0.0,0.0,0.0,0.0,0.0,0.0,0.0,0.0,0.0,0.0,0.0,0.0,0.0,0.0,0.0,0.0,-5.9862,-6.0105,-6.1198,-6.3178,-6.6406,-6.7383,-6.8164,-6.9062,-6.9101,-6.9414,-7.0273,-7.0351,-7.0742,-7.1601,-6.9297,-6.7773,-6.7383,-6.7969,-6.8008,-6.7383,-7.0469,-7.1992,-7.1992,-7.1992,-7.1992,-7.1992,-7.1953,-7.1406,-7.0586,-7.1473,-7.1675,-7.1457,-7.2708,-7.3597,-7.4154,-7.4119,-7.4471,-7.5056,-7.5291,-7.5841,-7.6019,-7.2866,-7.376,-7.6245,-7.6053,-7.6015,-7.6015,-7.6015,-7.6015,-7.6015,-7.6015,-7.6015,-7.6015,-7.6015,-7.6015,-7.6015,-7.6015,-7.6015,-7.6169,-7.6823,-7.6207,-7.6053,-7.7823,-7.8669,-7.8746,-7.7553,-7.7553,-7.7431,-7.6497,-7.6458,-7.6198,-7.5245,-7.6144,-7.658,-7.5875,-7.4096,-7.4147,-7.7084,-7.4368,-7.4147,-7.8002,-7.7965,-7.8295,-7.9396,-7.8369,-7.8075,-7.8662,-7.5604,-7.4499,0.0,0.0,0.0,0.0,0.0,0.0,0.0,0.0,0.0,0.0,0.0,0.0,0.0,0.0,0.0,0.0,0.0,0.0,0.0,0.0,0.0,0.0,-5.889,-6.3127,-6.461,-6.4574,-6.5351,-6.789,-6.8515,-6.9062,-6.9922,-6.9961,-7.0312,-7.1172,-7.125,-7.1484,-7.1953,-7.0117,-6.7969,-6.5664,-6.7812,-6.793,-6.5625,-6.9844,-7.1992,-7.1992,-7.1992,-7.1992,-7.1992,-7.1992,-7.1406,-7.0508,-7.1914,-7.2212,-7.1846,-7.3639,-7.4693,0.0,0.0,0.0,0.0,0.0,-7.668,-7.6638,-7.3804,-7.4418,-7.6361,-7.6092,-7.6015,-7.6015,-7.6015,-7.4745,-7.336,-7.336,-7.2091,-7.1091,-7.2899,-7.336,-7.3822,-7.5592,-7.6284,-7.6669,-7.7169,-7.6476,-7.6361,-7.8592,-7.8284,0.0,-8.0015,-7.8861,-7.7047,-7.5198,-7.49,-7.4484,-7.3579,-7.4971,-7.5753,-7.5105,-7.4514,-7.5195,-7.7635,-7.4882,0.0,0.0,0.0,-7.7745,-7.7745,-7.7745,0.0,0.0,0.0,-7.4354,-7.6093,-7.4146,0.0,0.0,-7.1908,-7.0257,0.0,0.0,0.0,0.0,0.0,0.0,0.0,0.0,0.0,0.0,0.0,0.0,0.0,0.0,0.0,0.0,-6.0864,-6.4398,-6.7589,-6.8299,-6.8476,-6.8476,-6.914,-6.9961,-7.0781,-7.0859,-7.1172,-7.1953,-7.1992,-7.1992,-7.1992,0.0,0.0,0.0,0.0,-6.9531,-6.5625,-6.9844,-7.1992,-7.1992,-7.1992,-7.1992,-7.1992,-7.2109,-7.0898,-6.8945,-7.2109,-7.2226,-7.0508,-7.4336,-7.5976,-7.6055,-7.6055,-7.6055,-7.6094,-7.6367,-7.6797,-7.7067,-7.6192,0.0,0.0,-7.613,-7.6015,-7.6015,-7.6015,-7.3399,-7.0398,-7.0398,-6.7667,-6.5628,-6.9436,-7.0398,-7.1398,-7.5245,-7.6746,-7.7361,-7.7553,-7.5822,-7.5361,-7.9208,-7.7515,-7.663,-8.0439,-7.7938,-7.4043,-6.9934,-6.9131,-6.8856,-6.8375,-7.1467,-7.3454,-7.2829,-7.5745,0.0,-7.8651,-7.5726,-7.5579,-7.9653,-7.7304,-7.5726,-7.5726,-7.5786,-7.4485,-7.1505,-7.0901,-7.263,-7.679,-7.6875,-7.875,-8.2132,-7.4867,-7.3435,0.0,0.0,0.0,0.0,0.0,0.0,0.0,0.0,0.0,0.0,0.0,0.0,0.0,0.0,0.0,-6.118,-6.4924,-6.7997,-6.8844,-6.9673,-7.0234,-7.0234,-7.0351,-7.082,-7.168,-7.1758,-7.1836,-7.1992,-7.1992,-7.1992,-7.1992,-6.9375,-6.7187,-6.5664,-6.7109,-6.7148,-6.5625,-6.9844,-7.1992,-7.1992,0.0,0.0,-7.2031,-7.2734,-7.2773,-7.2383,-7.375,-7.4453,-7.4726,-7.5547,-7.6328,-7.6953,-7.6953,-7.6953,-7.6523,-7.3203,-7.418,-7.6638,-7.2791,-7.37,-7.6544,-7.613,-7.6015,-7.6015,-7.6015,-7.5438,0.0,-7.4784,-7.4168,-7.3745,-7.4553,-7.4784,-7.5168,-7.6669,-7.7169,-7.7669,-7.9015,-7.8938,-7.9015,-8.0554,-8.0323,-8.0131,-8.0977,-8.04,-7.9561,-7.8685,-7.85,-7.8228,-7.7608,-7.8216,-7.8523,-7.8064,-7.5813,-7.577,-7.9239,-7.657,-7.6423,-8.0498,-8.0791,-8.0791,-8.0791,-8.1326,-8.103,-7.9874,-8.0766,-8.1139,-8.1012,-8.1548,-8.2214,-8.2957,-8.0813,-8.0579,0.0,0.0,0.0,0.0,0.0,0.0,0.0,0.0,0.0,0.0,0.0,-5.5818,0.0,0.0,-6.0327,-6.2706,-6.5286,-6.7713,-6.9678,-7.0765,-7.1172,-7.0742,-7.1094,-7.1523,-7.1953,-7.1992,-7.1992,-7.1992,-7.1992,-7.1992,-7.1992,-7.039,-6.8281,-6.5664,-6.8125,-6.8203,-6.5625,-6.9844,-7.1992,-7.1992,-7.1992,-7.2226,-7.2656,-7.3086,-7.3789,-7.4648,-7.5078,-7.5742,-7.6562,-7.6562,-7.6797,-7.7187,-7.7187,-7.7187,-7.6953,-7.4765,-7.5312,-7.6833,-7.4272,-7.4806,-7.6544,-7.613,-7.6015,-7.6015,-7.6015,-7.4514,-7.286,-7.286,-7.1283,-7.0129,-7.2283,-7.3168,-7.4091,-7.6669,-7.7938,-7.8784,-7.9631,-8.0131,-8.0592,-8.1016,-8.1093,-8.1093,-8.1093,-8.1093,-8.1093,-8.1093,-8.0783,-8.0463,-8.0163,-8.0468,-8.0439,-7.9589,-7.834,-7.8304,-8.0257,-7.9286,-7.9433,-8.1452,-8.2276,-8.256,-8.2186,-8.2853,-8.3053,-8.2708,-8.3322,-8.3543,-8.3189,-8.3543,-8.3704,-8.3704,-8.3359,-8.3378,0.0,0.0,0.0,0.0,0.0,0.0,0.0,0.0,-5.7473,-5.6819,-5.7319,-5.8127,-5.8819,-5.9242,-6.0712,-6.4463,-6.5773,-6.7408,-7.0486,-7.1534,-7.1758,-7.1055,-7.1562,-7.1992,-7.1992,-7.1992,-7.1992,-7.1992,-7.1992,-7.1992,-7.1992,-7.1992,-7.043,-6.6953,-7.0195,-7.0351,-6.6875,-7.0273,-7.207,-7.2265,-7.2265,-7.2695,-7.3555,-7.3711,-7.457,-7.5898,-7.6094,-7.6562,-7.7187,-7.7187,-7.7187,-7.7187,-7.7187,-7.7187,-7.7187,-7.7187,-7.7178,-7.7089,-7.6741,-7.6591,-7.6476,-7.613,-7.6015,-7.6015,-7.6015,-7.363,-7.0937,-7.0937,-6.8436,-6.659,-7.0244,-7.1668,-7.3091,-7.6899,-7.8823,-7.9862,-8.0015,-8.0592,-8.1093,-8.1093,-8.1093,-8.1093,-8.1093,-8.1093,-8.1093,-8.1093,-8.0643,-8.0353,-8.0506,-8.1156,-8.1216,-8.0286,-8.1194,-8.1792,-8.1464,-8.2128,-8.2585,-8.2585,-8.3111,-8.3132,-8.2585,-8.3074,-8.3378,-8.3378,-8.3378,-8.3651,-8.4179,-8.4179,-8.4228,-8.4372,-8.4372,-8.4372,-4.9483,-4.5642,-4.4588,-4.8632,-5.2171,-5.4818,0.0,0.0,-6.3897,-6.0858,-6.3205,-6.5859,-6.5936,-6.7244,-6.8488,-6.9114,-7.0097,-7.0948,-7.1503,-7.1833,-7.1953,-7.1875,-7.1953,-7.1992,-7.1992,-7.1992,-7.1992,-7.1992,-7.1992,-7.1992,-7.1992,-7.1992,-7.1797,-7.1289,-7.1758,-7.1758,-7.1289,-7.1758,-7.2383,-7.3164,-7.3164,-7.3594,-7.4492,-7.5273,-7.5703,-7.5937,-7.6719,-7.7109,-7.7187,-7.7187,-7.7187,-7.7187,-7.7187,-7.7187,-7.7187,-7.7187,-7.71,-7.6905,-7.6665,-7.6475,-7.6284,-7.6053,-7.6015,-7.6015,-7.6015,-7.5668,-7.5284,-7.5284,-7.4938,-7.4861,-7.613,-7.6515,-7.7092,-7.9054,-7.9669,-8.0015,-8.0785,-8.1016,-8.1093,-8.1093,-8.1093,-8.1093,-8.1093,-8.1093,-8.1093,-8.1093,-8.1061,-8.126,-8.1952,-8.2144,-8.2261,-8.2481,-8.2696,-8.2824,-8.2946,-8.3576,-8.3979,-8.3965,-8.4029,-8.4029,-8.3979,-8.4029,-8.408,-8.408,-8.408,-8.4129,-8.4179,-8.4179,-8.4467,-8.4999,-8.4999,-8.4999,-5.078,-5.0723,-5.2077,-5.4494,-5.8135,-6.1204,-6.155,-6.3858,-6.5628,-6.4666,-6.5859,-6.7398,-6.8436,-6.759,-6.7577,0.0,-6.9347,-6.9127,-7.1361,-7.1758,-7.1875,-7.1992,-6.9336,-6.7734,-6.8242,-7.0547,-7.0976,-6.8476,-7.0586,-7.1992,-7.1992,-7.1992,-7.1992,-7.1992,-7.1992,-7.1992,-7.1992,-7.25,-7.293,-7.332,-7.3828,-7.4492,-7.5351,-7.5742,-7.6172,-7.668,-7.7031,-7.7187,-7.7187,-7.7187,-7.7187,-7.7187,-7.7187,-7.7187,-7.7187,-7.7187,-7.7053,-7.6842,-7.6673,-7.6482,-7.6245,-7.6053,-7.6015,-7.6015,-7.6015,-7.6015,-7.6015,-7.6015,-7.6015,-7.6207,-7.7053,-7.763,-7.8284,-7.9515,-8.0208,-8.0669,-8.1016,-8.1093,-8.1093,-8.1093,-8.1093,-8.1093,-8.1093,-8.1093,-8.1246,-8.1747,-8.1785,-8.19,-8.2247,-8.3208,-8.3934,-8.4138,-8.389,-8.3703,-8.3735,-8.4029,-8.4179,-8.4179,-8.4513,-8.456,-8.4228,-8.456,-8.474,-8.474,-8.474,-8.4953,-8.528,-8.528,-8.5437,-8.57,-8.57,-8.57,-5.1495,-5.3314,-5.5624,-5.8604,-6.1771,-6.4436,-6.5628,-6.6051,-6.6397,-6.6974,-6.7475,-6.8205,-6.9475,-6.7859,-6.7398,-7.0591,-6.9078,-6.8485,-7.1243,-7.1666,-7.125,-7.0039,-6.6562,-6.3515,-6.1523,-6.6523,-6.918,-6.75,-7.0234,-7.1992,-7.1992,-7.1992,-7.1992,-7.1992,-7.1992,-7.2109,-7.2344,-7.2969,-7.3555,-7.4023,-7.4648,-7.543,-7.625,-7.625,-7.6601,-7.7187,-7.7187,-7.7187,-7.7187,-7.7187,-7.7187,-7.7187,-7.7187,-7.7187,-7.7187,-7.7187,-7.7033,-7.6816,-7.664,-7.6399,-7.6169,-7.6053,-7.6015,-7.6015,-7.6015,-7.6015,-7.6015,-7.6015,-7.6169,-7.6553,-7.74,-7.8246,-7.9092,-7.9939,-8.0631,-8.1093,-8.1093,-8.1093,-8.1093,-8.1093,-8.1093,-8.1093,-8.1093,-8.1285,-8.1631,-8.2208,-8.2708,-8.3016,-8.3016,-8.4148,-8.5012,-8.5085,-8.4696,-8.4467,-8.4467,-8.4605,-8.4696,-8.4696,-8.5121,-8.5162,-8.474,-8.5121,-8.536,-8.536,-8.536,-8.5589,-8.6094,-8.6094,-8.6094,-8.6094,-8.6094,-8.6094,-5.0328,-4.895,-4.8339,-5.6969,-5.9407,-6.0781,-6.4936,-6.6513,-6.7051,-6.709,-6.8436,-6.9629,-6.9706,-7.0244,-7.0744,-7.0898,-7.0975,-7.1156,-7.1479,-7.1611,-6.9922,-6.5117,-6.4414,-6.0703,0.0,-5.9062,-6.6562,-7.1445,-7.1914,-7.1992,-7.1992,-7.1992,-7.1992,-7.1992,-7.1992,-7.2422,-7.3242,-7.3281,-7.414,-7.582,-7.5859,-7.6328,-7.7148,-7.7148,-7.7187,-7.7187,-7.7187,-7.7187,-7.7187,-7.7187,-7.7187,-7.7187,-7.7187,-7.7187,-7.7187,-7.7187,-7.6939,-7.6621,-7.6572,-7.6322,-7.6015,-7.6015,-7.6015,-7.6015,-7.6015,-7.6015,-7.6015,-7.6015,-7.6592,-7.7438,-7.8246,-7.9092,-7.9977,-8.0862,-8.1093,-8.1093,-8.1093,-8.1093,-8.1093,-8.1093,-8.1093,-8.1093,-8.1093,-8.1747,-8.2285,-8.2285,-8.3747,-8.4824,-8.4824,-8.4978,-8.5082,-8.5121,-8.5079,-8.5079,-8.5079,-8.5664,-8.606,-8.606,-8.606,-8.606,-8.606,-8.606,-8.606,-8.606,-8.606,-8.606,-8.6094,-8.6094,-8.6094,-8.6094,-8.6094,-8.6094,-4.7553,-5.0426,-5.4514,-5.8005,-6.1096,-6.3685,-6.55,-6.6513,-6.7244,-6.7859,-6.6628,-6.5628,-6.6205,-6.4243,-6.3474,-6.6244,-6.4436,-6.4666,-7.0475,-6.6545,-6.4613,-6.871,-6.3789,-6.1289,-6.4375,0.0,0.0,-6.2734,-6.8476,-7.1992,-7.1992,-7.1992,-7.1992,-7.1992,-7.2578,-7.3008,-7.3281,-7.4453,-7.5312,-7.5898,-7.6484,-7.6914,-7.7187,-7.7187,-7.7187,-7.7187,-7.7187,-7.7187,-7.7187,-7.7187,-7.7187,-7.7187,-7.7187,-7.7187,-7.7184,-7.7049,-7.6821,-7.6599,-7.6598,-7.6322,-7.6015,-7.6015,-7.6015,-7.6015,-7.6015,-7.6399,-7.6861,-7.6861,-7.7438,-7.8284,-7.9131,-7.9592,-8.0015,-8.09,-8.1093,-8.1093,-8.1093,-8.1093,-8.1093,-8.1093,-8.1516,-8.19,-8.19,-8.2593,-8.3362,-8.3939,-8.4516,-8.5093,-8.5632,-8.5727,-8.5737,-8.5737,-8.5737,-8.5737,-8.5737,-8.5954,-8.6094,-8.6094,-8.6094,-8.6094,-8.6094,-8.6094,-8.6094,-8.6094,-8.6094,-8.6094,-8.6094,-8.6094,-8.6094,-8.6094,-8.6094,-8.6094,-4.9447,-5.3534,-5.8166,-6.0463,-6.3116,-6.5261,-6.5781,-6.6744,-6.7705,-6.8282,-6.7128,-6.5628,-6.4359,-6.1935,-6.0973,-6.3705,-6.1858,-6.269,-7.0131,-6.6565,-6.4609,-6.8472,-6.3711,-6.1758,-6.6094,0.0,0.0,-6.039,-6.582,-6.9375,-6.9687,-6.9726,-7.0703,-7.2851,-7.3476,-7.3906,-7.4219,-7.5351,-7.6055,-7.6367,-7.6914,-7.7187,-7.7187,-7.7187,-7.6367,-7.4961,-7.6523,-7.6328,-7.5,-7.6562,-7.7187,-7.7187,-7.7187,-7.7161,-7.7065,-7.6944,-7.6894,-7.6901,-7.6608,-7.6284,-7.6053,-7.6361,-7.6476,-7.6515,-7.6823,-7.7284,-7.7707,-7.7707,-7.8323,-7.9092,-7.9669,-8.0054,-8.04,-8.0977,-8.1093,-8.1093,-8.1093,-8.1323,-8.1516,-8.1516,-8.2208,-8.2747,-8.2747,-8.3478,-8.4362,-8.5209,-8.5324,-8.5517,-8.6017,-8.6094,-8.6094,-8.6094,-8.6094,-8.6094,-8.6094,-8.6094,-8.6094,-8.6094,-8.6094,-8.6094,-8.6094,-8.6094,-8.6094,-8.6094,-8.6094,-8.6094,-8.6094,-8.6094,-8.6094,-8.6094,-8.6094,-8.6094,-5.5097,-5.756,-5.8989,-6.3845,-6.5067,-6.523,-6.5781,-6.7167,-6.8282,-6.8052,-6.9129,-6.859,-6.3512,-6.2435,-6.2435,-6.2897,-6.282,-6.4561,-7.0025,-7.0658,-6.8914,0.0,0.0,0.0,0.0,0.0,0.0,-6.4453,0.0,-6.5156,-6.6015,-6.6055,-6.8672,-7.4414,-7.4648,-7.5078,-7.5898,-7.5937,-7.6367,-7.7187,-7.7187,-7.7187,-7.7187,-7.7187,-7.4922,-7.125,-7.539,-7.4844,-7.1367,-7.5508,-7.7187,-7.7187,-7.7225,-7.7118,-7.6967,-7.7006,-7.7284,-7.7553,-7.6707,-7.6284,-7.6245,-7.7092,-7.7361,-7.7476,-7.8246,-7.8515,-7.8554,-7.8554,-7.9208,-7.9862,-7.9862,-8.0477,-8.1093,-8.1131,-8.117,-8.117,-8.1208,-8.1823,-8.2362,-8.2362,-8.3054,-8.367,-8.3708,-8.4401,-8.5209,-8.5978,-8.6094,-8.6094,-8.6094,-8.6094,-8.6094,-8.6094,-8.6094,-8.6094,-8.6094,-8.6094,-8.6094,-8.6094,-8.6094,-8.6094,-8.6094,-8.6094,-8.6094,-8.6094,-8.6094,-8.6094,-8.6094,-8.6094,-8.6094,-8.6094,-8.6094,-8.6094,-5.2769,-5.6897,-6.1974,-6.4068,-6.4554,-6.4837,-6.569,-6.6705,-6.6551,-6.3397,-6.105,-5.8204,-5.3741,-5.0356,-5.051,-5.7473,-5.5972,-5.6571,-6.4215,-6.3218,0.0,-6.3552,0.0,-6.5976,-6.8555,-7.0156,0.0,0.0,-6.9219,-7.1406,-7.2265,-7.2305,-7.3008,-7.4531,-7.5234,-7.5664,-7.5898,-7.6523,-7.6992,-7.7187,-7.7187,-7.7187,-7.7187,-7.7187,-7.6601,-7.5586,-7.6719,-7.6562,-7.5625,-7.6758,-7.7187,-7.7223,-7.7693,-7.7833,-7.7839,-7.8177,-7.84,-7.8438,-7.8054,-7.79,-7.79,-7.813,-7.8169,-7.8207,-7.8438,-7.8938,-7.9477,-7.9477,-8.0092,-8.0785,-8.0785,-8.0939,-8.1246,-8.1862,-8.1977,-8.217,-8.2824,-8.3131,-8.3247,-8.3247,-8.3978,-8.4747,-8.5363,-8.567,-8.5863,-8.6055,-8.6094,-8.6094,-8.6094,-8.6094,-8.6094,-8.6094,-8.6094,-8.6094,-8.6094,-8.6094,-8.6094,-8.6094,-8.6094,-8.6094,-8.6094,-8.6094,-8.6094,-8.6094,-8.6094,-8.6094,-8.6094,-8.6094,-8.6094,-8.6094,-8.6094,-8.6094,-5.6198,-5.9355,-6.3014,-6.385,-6.4019,-6.3729,-6.25,-6.2859,-6.2336,-5.8296,-5.6242,-5.3857,-4.9625,-4.6894,-4.774,-5.5203,-5.4434,-5.5472,-6.2858,-6.1925,-6.1492,0.0,-6.485,0.0,-7.2616,-7.3594,-7.3047,0.0,-7.0625,-7.0859,-7.1758,-7.1797,-7.3008,-7.5664,-7.6211,-7.6484,-7.6484,-7.6953,-7.7187,-7.7187,-7.7187,-7.7187,-7.7187,-7.7187,-7.6172,-7.4453,-7.6367,-7.6094,-7.4531,-7.6836,-7.7773,-7.7845,-7.8441,-7.8646,-7.8569,-7.8754,-7.8985,-7.9246,-7.9131,-7.9323,-7.9592,-7.9169,-7.9054,-7.9131,-7.9515,-7.9977,-8.0362,-8.0362,-8.0708,-8.117,-8.1516,-8.1631,-8.1823,-8.267,-8.2862,-8.2978,-8.3478,-8.3901,-8.4286,-8.4632,-8.5093,-8.5555,-8.6017,-8.6094,-8.6094,-8.6094,-8.6094,-8.6094,-8.6094,-8.6094,-8.6094,-8.6094,-8.6094,-8.6094,-8.6094,-8.6094,-8.6094,-8.6094,-8.6094,-8.6094,-8.6094,-8.6094,-8.6094,-8.6094,-8.6094,-8.6094,-8.6094,-8.6094,-8.6094,-8.6094,-8.6094,-8.6094,-6.1227,-6.2401,-6.2917,-6.3453,-6.3631,-6.2728,-5.926,-5.8559,-5.7565,-5.3772,-5.3164,-5.2202,-4.8625,-4.8048,-4.9817,-5.5011,-5.5857,-5.7473,-6.2127,-6.3166,-6.3641,-6.4001,-6.4706,-6.7368,-7.289,-7.363,-7.4414,-7.5976,-7.1211,-6.8594,-6.9336,-6.9375,-7.1797,-7.7031,-7.7187,-7.7187,-7.7187,-7.7187,-7.7187,-7.7187,-7.7187,-7.7187,-7.7187,-7.7187,-7.5156,-7.1797,-7.5664,-7.5234,-7.2109,-7.6758,-7.863,-7.8669,-7.9299,-7.9392,-7.9223,-7.9138,-7.9477,-7.9977,-7.9977,-8.0477,-8.0977,-8.0208,-7.9977,-8.0131,-8.0862,-8.117,-8.1246,-8.1246,-8.1323,-8.1593,-8.2285,-8.2477,-8.267,-8.3555,-8.3747,-8.3785,-8.3901,-8.4516,-8.5286,-8.5978,-8.6094,-8.6094,-8.6094,-8.6094,-8.6094,-8.6094,-8.6094,-8.6094,-8.6094,-8.6094,-8.6094,-8.6094,-8.6094,-8.6094,-8.6094,-8.6094,-8.6094,-8.6094,-8.6094,-8.6094,-8.6094,-8.6094,-8.6094,-8.6094,-8.6094,-8.6094,-8.6094,-8.6094,-8.6094,-8.6094,-8.6094,-8.6094,-5.8547,-6.0272,-6.2917,-6.3453,-6.3631,-6.363,-6.3764,-6.0646,-5.666,-5.2888,-4.9471,-4.7124,-4.7124,-4.7663,-5.001,-5.5818,-5.678,-5.5895,-5.3472,-5.9627,-6.2959,-5.91,-6.2412,-6.7441,-7.3519,-7.1213,0.0,0.0,-7.6015,-7.5469,-7.5625,-7.5625,-7.6133,-7.7187,-7.7187,-7.7187,-7.7187,-7.7187,-7.7187,-7.7187,-7.7187,-7.7187,-7.7187,-7.7187,-7.6797,-7.6133,-7.7617,0.0,-7.7265,-7.8828,-7.9393,-7.9301,-7.997,-8.0105,-7.9984,-8.0516,-8.0785,-8.0862,-8.0862,-8.0977,-8.1093,-8.0939,-8.0862,-8.09,-8.1054,-8.1554,-8.2093,-8.2093,-8.2593,-8.3208,-8.3324,-8.3362,-8.3593,-8.4478,-8.467,-8.4863,-8.5517,-8.5786,-8.594,-8.6055,-8.6094,-8.6094,-8.6094,-8.6094,-8.6094,-8.6094,-8.6094,-8.6094,-8.6094,-8.6094,-8.6094,-8.6094,-8.6094,-8.6094,-8.6094,-8.6094,-8.6094,-8.6094,-8.6094,-8.6094,-8.6094,-8.6094,-8.6094,-8.6094,-8.6094,-8.6094,-8.6094,-8.6094,-8.6094,-8.6094,-8.6094,-8.6094,-5.7886,-5.9758,-6.2855,-6.3121,-6.3168,-6.2072,-5.7771,-5.4912,-5.1385,-4.5246,-4.2739,-4.1893,-4.2777,-4.3585,-4.6817,-5.5011,-5.6319,-5.6703,-5.778,-6.1396,-6.3291,-6.1555,-6.3969,-6.6992,-7.0136,-6.9489,-7.0078,-7.2969,-7.3203,-7.4375,-7.707,-7.7187,-7.7187,-7.7187,-7.7187,-7.7187,-7.7187,-7.7187,-7.7187,-7.7187,-7.7187,-7.7187,-7.7187,-7.7187,-7.7461,-7.789,-7.832,-7.7461,-7.6015,-7.8998,-7.8834,-7.7001,-7.9842,-8.0872,-8.0823,-8.1016,-8.1093,-8.1093,-8.1093,-8.1093,-8.117,-8.1593,-8.1708,-8.1708,-8.1708,-8.2324,-8.2978,-8.2978,-8.3285,-8.3708,-8.417,-8.4286,-8.4478,-8.5324,-8.5517,-8.5632,-8.6017,-8.6094,-8.6094,-8.6094,-8.6094,-8.6094,-8.6094,-8.6094,-8.6094,-8.6094,-8.6094,-8.6094,-8.6094,-8.6094,-8.6094,-8.6094,-8.6094,-8.6094,-8.6094,-8.6094,-8.6094,-8.6094,-8.6094,-8.6094,-8.6094,-8.6094,-8.6094,-8.6094,-8.6094,-8.6094,-8.6094,-8.6094,-8.6094,-8.6094,-8.6094,-8.6094,-5.8767,-6.0419,-6.2805,-6.2805,-6.2805,-6.0682,-5.2671,-4.9958,-4.7024,-3.9593,-3.7892,-3.8315,-4.0277,-4.1316,-4.497,-5.4434,-5.5203,-5.6665,-6.2435,-6.2666,-6.2945,-6.481,-6.5669,-6.6727,-6.832,-6.8945,0.0,-7.1055,-7.1133,-7.293,-7.6992,-7.7187,-7.7187,-7.7187,-7.7187,-7.7187,-7.7187,-7.7187,-7.7187,-7.7187,-7.7187,-7.7187,-7.7226,-7.7383,-7.7851,-7.8515,-7.8867,-7.6953,-7.3941,-7.8928,-7.8423,-7.4988,-7.96,-8.1362,-8.1323,-8.117,-8.1093,-8.1131,-8.1285,-8.1362,-8.1477,-8.2324,-8.2439,-8.2324,-8.2516,-8.317,-8.3862,-8.3862,-8.3978,-8.4286,-8.4978,-8.517,-8.5324,-8.594,-8.6094,-8.6094,-8.6094,-8.6094,-8.6094,-8.6094,-8.6094,-8.6094,-8.6094,-8.6094,-8.6094,-8.6094,-8.6094,-8.6094,-8.6094,-8.6094,-8.6094,-8.6094,-8.6094,-8.6094,-8.6094,-8.6094,-8.6094,-8.6094,-8.6094,-8.6094,-8.6094,-8.6094,-8.6094,-8.6094,-8.6094,-8.6094,-8.6094,-8.6094,-8.6094,-8.6094,-8.6094,-8.6094,-6.1557,-6.2548,-6.2805,-6.2805,-6.2805,-6.1614,-5.7117,-5.2498,-4.7918,-4.3445,-3.9469,-3.8507,-4.4008,-4.574,-4.8625,-5.5742,-5.3664,-5.2972,-5.8165,-5.8819,-6.0304,-6.4431,-6.5058,-6.7355,-7.3085,-7.039,-7.0586,-7.6094,-7.6484,-7.6719,-7.7187,-7.7187,-7.7187,-7.7187,-7.7187,-7.7187,-7.7187,-7.7187,-7.7187,-7.7187,-7.7187,-7.7187,-7.7226,-7.8008,-7.8437,-7.8594,-8.0117,-7.8398,0.0,-7.9842,-7.9223,-7.5602,-7.9792,-8.1285,-8.1131,-8.1093,-8.1093,-8.1208,-8.1939,-8.217,-8.2324,-8.3208,-8.2939,-8.2439,-8.3247,-8.4093,-8.4786,-8.4786,-8.5324,-8.5901,-8.5978,-8.5978,-8.6017,-8.6094,-8.6094,-8.6094,-8.6094,-8.6094,-8.6094,-8.6094,-8.6094,-8.6094,-8.6094,-8.6094,-8.6094,-8.6094,-8.6094,-8.6094,-8.6094,-8.6094,-8.6094,-8.6094,-8.6094,-8.6094,-8.6094,-8.6094,-8.6094,-8.6094,-8.6094,-8.6094,-8.6094,-8.6094,-8.6094,-8.6094,-8.6094,-8.6094,-8.6094,-8.6094,-8.6094,-8.6094,-8.6094,-8.6094,-5.5904,-5.9134,-6.2805,-6.2805,-6.2805,-6.0893,-5.3647,-5.0538,-4.7108,-3.9814,-3.7417,-3.7738,-4.1162,-4.247,-4.5278,-5.2087,-5.1779,-5.3356,-6.1012,-6.2089,-6.3705,-6.8155,-6.9278,-6.9694,0.0,0.0,-6.9414,-7.2305,-7.3008,-7.4414,-7.707,-7.7187,-7.7187,-7.7187,-7.7187,-7.7187,-7.7187,-7.7187,-7.7187,-7.7187,-7.7187,-7.7461,-7.8008,-7.8359,-7.9062,-8.0039,-8.0703,-7.7312,0.0,-7.8923,-7.7664,-7.1909,-7.86,-8.117,-8.1093,-8.1093,-8.14,-8.1862,-8.217,-8.2631,-8.3208,-8.4093,-8.4132,-8.3939,-8.4286,-8.4978,-8.5632,-8.5632,-8.5863,-8.6094,-8.6094,-8.6094,-8.6094,-8.6094,-8.6094,-8.6094,-8.6094,-8.6094,-8.6094,-8.6094,-8.6094,-8.6094,-8.6094,-8.6094,-8.6094,-8.6094,-8.6094,-8.6094,-8.6094,-8.6094,-8.6094,-8.6094,-8.6094,-8.6094,-8.6094,-8.6094,-8.6094,-8.6094,-8.6094,-8.6094,-8.6094,-8.6094,-8.6094,-8.6094,-8.6094,-8.6094,-8.6094,-8.6094,-8.6094,-8.6094,-8.6094,-8.6094,-5.3078,-5.7593,-6.2805,-6.2805,-6.1924,-5.8897,-5.0786,-4.8338,-4.5481,-3.7241,-3.6366,-3.7546,-3.9008,-3.9969,-4.2662,-4.924,-5.051,-5.351,-6.1589,-6.2743,-6.4359,-6.8744,0.0,-7.0075,0.0,-7.0035,-7.1094,-7.164,-7.2265,-7.3945,-7.7031,-7.7187,-7.7187,-7.7187,-7.7187,-7.7187,-7.7187,-7.7187,-7.7187,-7.7187,-7.7187,-7.6992,-7.664,-7.8164,-7.8945,-7.9179,-8.0647,-7.7399,0.0,-7.8684,-7.721,-7.118,-7.8331,-8.1093,-8.1131,-8.1362,-8.1823,-8.2362,-8.2901,-8.3478,-8.4132,-8.4978,-8.5247,-8.5247,-8.5247,-8.567,-8.6094,-8.6094,-8.6094,-8.6094,-8.6094,-8.6094,-8.6094,-8.6094,-8.6094,-8.6094,-8.6094,-8.6094,-8.6094,-8.6094,-8.6094,-8.6094,-8.6094,-8.6094,-8.6094,-8.6094,-8.6094,-8.6094,-8.6094,-8.6094,-8.6094,-8.6094,-8.6094,-8.6094,-8.6094,-8.6094,-8.6094,-8.6094,-8.6094,-8.6094,-8.6094,-8.6094,-8.6094,-8.6094,-8.6094,-8.6094,-8.6094,-8.6094,-8.6094,-8.6094,-8.6094,-8.6094,-5.5904,-5.9722,-6.2805,-6.2805,-5.9832,-5.5527,-5.0396,-4.6727,-4.2963,-3.777,-3.7392,-3.8277,-3.9123,-3.9969,-4.247,-4.8432,-5.0125,-5.2472,-5.7627,-5.8357,-5.9935,-6.4166,-6.4987,-6.7494,-7.3338,-7.5858,-7.7109,-7.7109,-7.7148,0.0,-7.7187,-7.7187,-7.7187,-7.7187,-7.7187,-7.7187,-7.7187,-7.7187,-7.7187,-7.7187,-7.7187,-7.539,-7.2226,-7.7344,-7.7851,-7.4959,-7.9847,-7.9523,0.0,-7.9792,-7.88,-7.5257,-7.9453,-8.1093,-8.1208,-8.1977,-8.2285,-8.2554,-8.4286,-8.4901,-8.5016,-8.5824,-8.6094,-8.6094,-8.6094,-8.6094,-8.6094,-8.6094,-8.6094,-8.6094,-8.6094,-8.6094,-8.6094,-8.6094,-8.6094,-8.6094,-8.6094,-8.6094,-8.6094,-8.6094,-8.6094,-8.6094,-8.6094,-8.6094,-8.6094,-8.6094,-8.6094,-8.6094,-8.6094,-8.6094,-8.6094,-8.6094,-8.6094,-8.6094,-8.6094,-8.6094,-8.6094,-8.6094,-8.6094,-8.6094,-8.6094,-8.6094,-8.6094,-8.6094,-8.6094,-8.6094,-8.6094,-8.6094,-8.6094,-8.6094,-8.6094,-8.6094,-4.8269,-5.1499,-5.462,-5.462,-5.3628,-5.1437,-4.6727,-4.499,-4.3064,-3.8288,-3.7686,-3.843,-3.9854,-4.0816,-4.3355,-4.9317,-5.0971,-5.4126,-6.155,-6.2627,-6.4166,-6.8398,-7.0247,-7.1962,0.0,0.0,-7.3984,-7.6992,-7.4453,-7.4062,-7.7031,-7.7187,-7.7187,-7.7187,-7.7187,-7.7187,-7.7187,-7.7187,-7.7187,-7.7226,-7.7812,-7.625,-7.3047,-7.8242,-7.8711,-7.574,-8.0096,-7.9492,-7.5756,-7.9754,-7.8754,-7.5187,-7.9408,-8.1439,-8.1939,-8.2208,-8.3054,-8.417,-8.4709,-8.5247,-8.5747,-8.6017,-8.6094,-8.6094,-8.6094,-8.6094,-8.6094,-8.6094,-8.6094,-8.6094,-8.6094,-8.6094,-8.6094,-8.6094,-8.6094,-8.6094,-8.6094,-8.6094,-8.6094,-8.6094,-8.6094,-8.6094,-8.6094,-8.6094,-8.6094,-8.6094,-8.6094,-8.6094,-8.6094,-8.6094,-8.6094,-8.6094,-8.6094,-8.6094,-8.6094,-8.6094,-8.6094,-8.6094,-8.6094,-8.6094,-8.6094,-8.6094,-8.6094,-8.6094,-8.6094,-8.6094,-8.6094,-8.6094,-8.6094,-8.6094,-8.6094,-8.6094,-4.4305,-4.7682,-5.0802,-5.0802,-4.9745,-4.7903,-4.4848,-4.3434,-4.1897,-3.8876,-3.989,-4.1277,-4.1046,-4.3008,-4.547,-4.7894,-5.1664,-5.5588,-5.9281,-6.1204,0.0,-6.6013,0.0,0.0,0.0,-7.3359,-7.3906,-7.6953,-7.4687,-7.4336,-7.707,-7.7187,-7.7187,-7.7187,-7.7187,-7.7187,-7.7187,-7.7187,-7.7383,-7.7695,-7.8242,-7.6836,-7.3945,-7.8789,-7.9079,-7.6001,-8.0101,-8.0277,0.0,-8.0292,-7.9631,-7.74,-8.04,-8.1862,-8.2362,-8.3054,-8.3978,-8.4939,-8.5247,-8.567,-8.6094,-8.6094,-8.6094,-8.6094,-8.6094,-8.6094,-8.6094,-8.6094,-8.6094,-8.6094,-8.6094,-8.6094,-8.6094,-8.6094,-8.6094,-8.6094,-8.6094,-8.6094,-8.6094,-8.6094,-8.6094,-8.6094,-8.6094,-8.6094,-8.6094,-8.6094,-8.6094,-8.6094,-8.6094,-8.6094,-8.6094,-8.6094,-8.6094,-8.6094,-8.6094,-8.6094,-8.6094,-8.6094,-8.6094,-8.6094,-8.6094,-8.6094,-8.6094,-8.6094,-8.6094,-8.6094,-8.6094,-8.6094,-8.6094,-8.6094,-8.6094,-8.6094,0.0,-4.7058,-4.9921,-4.9961,-4.7348,-4.4661,-4.4195,-4.201,0.0,-3.9884,-4.3624,-4.597,-4.2816,-4.6394,-4.874,-4.5316,-5.2395,-5.6896,-5.2933,-5.6049,0.0,0.0,-6.3553,0.0,-7.3654,-7.5194,-7.625,-7.7148,-7.7187,-7.7187,-7.7187,-7.7187,-7.7187,-7.7187,-7.7187,-7.7187,-7.7187,-7.7187,-7.7461,-7.8047,-7.8398,-7.7031,-7.4297,-7.8984,-7.9088,0.0,-7.9929,-8.1591,-8.1362,-8.117,-8.1131,-8.1246,-8.2016,-8.2362,-8.267,-8.4286,-8.4939,-8.5093,-8.5863,-8.6094,-8.6094,-8.6094,-8.6094,-8.6094,-8.6094,-8.6094,-8.6094,-8.6094,-8.6094,-8.6094,-8.6094,-8.6094,-8.6094,-8.6094,-8.6094,-8.6094,-8.6094,-8.6094,-8.6094,-8.6094,-8.6094,-8.6094,-8.6094,-8.6094,-8.6094,-8.6094,-8.6094,-8.6094,-8.6094,-8.6094,-8.6094,-8.6094,-8.6094,-8.6094,-8.6094,-8.6094,-8.6094,-8.6094,-8.6094,-8.6094,-8.6094,-8.6094,-8.6094,-8.6094,-8.6094,-8.6094,-8.6094,-8.6094,-8.6094,-8.6094,-8.6094,-8.6094,-3.9863,0.0,-4.1581,-4.1785,-4.1192,-4.0632,0.0,0.0,0.0,0.0,0.0,0.0,-4.6663,-5.0779,-5.3126,-4.974,-5.4318,-5.7973,-5.6934,-6.0573,0.0,-5.8904,-6.6179,-7.0915,-6.9589,-7.3384,-7.625,-7.7148,-7.7187,-7.7187,-7.7187,-7.7187,-7.7187,-7.7187,-7.7187,-7.7187,-7.7187,-7.7187,-7.5976,-7.3594,-7.7539,-7.6015,-6.9961,-7.8242,-7.9673,-7.5826,-7.9923,-8.1581,-8.1362,-8.117,-8.1477,-8.2054,-8.2247,-8.3093,-8.4324,-8.4747,-8.5286,-8.5863,-8.6017,-8.6094,-8.6094,-8.6094,-8.6094,-8.6094,-8.6094,-8.6094,-8.6094,-8.6094,-8.6094,-8.6094,-8.6094,-8.6094,-8.6094,-8.6094,-8.6094,-8.6094,-8.6094,-8.6094,-8.6094,-8.6094,-8.6094,-8.6094,-8.6094,-8.6094,-8.6094,-8.6094,-8.6094,-8.6094,-8.6094,-8.6094,-8.6094,-8.6094,-8.6094,-8.6094,-8.6094,-8.6094,-8.6094,-8.6094,-8.6094,-8.6094,-8.6094,-8.6094,-8.6094,-8.6094,-8.6094,-8.6094,-8.6094,-8.6094,-8.6094,-8.6094,-8.6094,-8.6094,-3.8855,-3.8884,-3.9415,-4.1521,-4.079,-4.0178,-4.2481,0.0,0.0,0.0,0.0,0.0,0.0,-5.0933,-5.2472,-5.1433,-5.3549,-5.6049,0.0,0.0,-6.1112,-5.8929,-6.3698,-6.7384,0.0,-7.2801,-7.625,-7.7148,-7.7187,-7.7187,-7.7187,-7.7187,-7.7187,-7.7187,-7.7187,-7.7187,-7.7187,-7.7187,-7.5469,-7.207,-7.7226,-7.668,-7.1406,-7.8779,-8.0802,-7.8409,-7.8188,-7.9276,-8.1093,-7.9015,-7.9785,-8.2362,-8.317,-8.4055,-8.4939,-8.5324,-8.5747,-8.6094,-8.6094,-8.6094,-8.6094,-8.6094,-8.6094,-8.6094,-8.6094,-8.6094,-8.6094,-8.6094,-8.6094,-8.6094,-8.6094,-8.6094,-8.6094,-8.6094,-8.6094,-8.6094,-8.6094,-8.6094,-8.6094,-8.6094,-8.6094,-8.6094,-8.6094,-8.6094,-8.6094,-8.6094,-8.6094,-8.6094,-8.6094,-8.6094,-8.6094,-8.6094,-8.6094,-8.6094,-8.6094,-8.6094,-8.6094,-8.6094,-8.6094,-8.6094,-8.6094,-8.6094,-8.6094,-8.6094,-8.6094,-8.6094,-8.6094,-8.6094,-8.6094,-8.6094,-8.6094,-8.6094,-3.9036,-3.916,-4.03,-4.4571,-4.2858,-4.1207,-4.5528,0.0,0.0,0.0,0.0,0.0,0.0,-5.151,0.0,-5.1972,-5.2472,-5.4185,-5.7927,-5.9044,-5.932,-5.9,-6.0918,0.0,-6.7811,-7.2851,-7.625,-7.7148,-7.7187,-7.7187,-7.7187,-7.7187,-7.7187,-7.7187,-7.7187,-7.7187,-7.7187,-7.7344,-7.5664,-7.2265,-7.7422,-7.8083,-7.4921,-7.9757,-8.1891,-8.1406,-7.6919,0.0,-8.0823,-7.7323,-7.8477,-8.267,-8.4286,-8.4978,-8.517,-8.5863,-8.6094,-8.6094,-8.6094,-8.6094,-8.6094,-8.6094,-8.6094,-8.6094,-8.6094,-8.6094,-8.6094,-8.6094,-8.6094,-8.6094,-8.6094,-8.6094,-8.6094,-8.6094,-8.6094,-8.6094,-8.6094,-8.6094,-8.6094,-8.6094,-8.6094,-8.6094,-8.6094,-8.6094,-8.6094,-8.6094,-8.6094,-8.6094,-8.6094,-8.6094,-8.6094,-8.6094,-8.6094,-8.6094,-8.6094,-8.6094,-8.6094,-8.6094,-8.6094,-8.6094,-8.6094,-8.6094,-8.6094,-8.6094,-8.6094,-8.6094,-8.6094,-8.6094,-8.6094,-8.6094,-8.6094,-8.6094,-3.908,-3.951,-4.095,-4.5201,-4.3188,-4.1284,-4.5802,0.0,0.0,0.0,0.0,0.0,0.0,-6.1243,-6.3358,0.0,0.0,-5.755,0.0,0.0,-6.2736,-5.9153,0.0,-7.0502,-6.8398,-7.2851,-7.625,-7.7148,-7.7187,-7.7187,-7.7187,-7.7187,-7.7187,-7.7187,-7.7187,-7.7187,-7.7187,-7.793,-7.6562,-7.3164,-7.832,-7.8906,-7.5593,-8.0029,-8.1801,-8.1388,0.0,-8.0554,-8.1093,-8.1131,-8.2016,-8.3478,-8.4516,-8.5324,-8.594,-8.6055,-8.6094,-8.6094,-8.6094,-8.6094,-8.6094,-8.6094,-8.6094,-8.6094,-8.6094,-8.6094,-8.6094,-8.6094,-8.6094,-8.6094,-8.6094,-8.6094,-8.6094,-8.6094,-8.6094,-8.6094,-8.6094,-8.6094,-8.6094,-8.6094,-8.6094,-8.6094,-8.6094,-8.6094,-8.6094,-8.6094,-8.6094,-8.6094,-8.6094,-8.6094,-8.6094,-8.6094,-8.6094,-8.6094,-8.6094,-8.6094,-8.6094,-8.6094,-8.6094,-8.6094,-8.6094,-8.6094,-8.6094,-8.6094,-8.6094,-8.6094,-8.6094,-8.6094,-8.6094,-8.6094,-8.6094,-8.6094,-3.9534,-3.9861,-4.1685,-4.8409,-4.517,-4.2657,-5.1682,0.0,0.0,0.0,0.0,0.0,0.0,0.0,-5.855,0.0,0.0,-6.4383,-6.2259,-6.3727,-6.4396,0.0,0.0,-6.9414,-6.832,-7.2851,-7.625,-7.7148,-7.7187,-7.7187,-7.7187,-7.7187,-7.7187,-7.7187,-7.7187,-7.7187,-7.7187,-7.8515,-7.6953,-7.2656,-7.832,-7.8913,-7.5206,-7.9778,-8.1739,-8.14,0.0,-7.8631,-8.0977,-7.9515,-8.0746,-8.3708,-8.5055,-8.5786,-8.6094,-8.6094,-8.6094,-8.6094,-8.6094,-8.6094,-8.6094,-8.6094,-8.6094,-8.6094,-8.6094,-8.6094,-8.6094,-8.6094,-8.6094,-8.6094,-8.6094,-8.6094,-8.6094,-8.6094,-8.6094,-8.6094,-8.6094,-8.6094,-8.6094,-8.6094,-8.6094,-8.6094,-8.6094,-8.6094,-8.6094,-8.6094,-8.6094,-8.6094,-8.6094,-8.6094,-8.6094,-8.6094,-8.6094,-8.6094,-8.6094,-8.6094,-8.6094,-8.6094,-8.6094,-8.6094,-8.6094,-8.6094,-8.6094,-8.6094,-8.6094,-8.6094,-8.6094,-8.6094,-8.6094,-8.6094,-8.6094,-8.6094,-3.9962,-4.0158,-4.2068,-4.9779,0.0,-4.3816,-5.6588,0.0,0.0,0.0,0.0,0.0,0.0,-5.5203,0.0,-5.8973,0.0,0.0,0.0,0.0,-6.6651,-6.6978,-6.7841,-6.875,-6.9609,-7.3476,-7.625,-7.7148,-7.7187,-7.7187,-7.7187,-7.7187,-7.7187,-7.7187,-7.7187,-7.7187,-7.7187,-7.8867,-7.7734,-7.3867,-7.8906,-7.957,-7.6444,-8.0068,-8.1658,-8.1362,-7.713,-7.7476,-8.0939,-7.8707,-8.0092,-8.3747,-8.544,-8.6094,-8.6094,-8.6094,-8.6094,-8.6094,-8.6094,-8.6094,-8.6094,-8.6094,-8.6094,-8.6094,-8.6094,-8.6094,-8.6094,-8.6094,-8.6094,-8.6094,-8.6094,-8.6094,-8.6094,-8.6094,-8.6094,-8.6094,-8.6094,-8.6094,-8.6094,-8.6094,-8.6094,-8.6094,-8.6094,-8.6094,-8.6094,-8.6094,-8.6094,-8.6094,-8.6094,-8.6094,-8.6094,-8.6094,-8.6094,-8.6094,-8.6094,-8.6094,-8.6094,-8.6094,-8.6094,-8.6094,-8.6094,-8.6094,-8.6094,-8.6094,-8.6094,-8.6094,-8.6094,-8.6094,-8.6094,-8.6094,-8.6094,-8.6094,-4.01,-4.0286,-4.1569,-4.6201,-4.3893,0.0,-5.6588,0.0,0.0,0.0,0.0,0.0,0.0,-6.005,-5.9165,-6.3435,-6.4666,-6.6397,-7.0233,0.0,-7.1081,-7.1221,-7.2189,-7.3164,-7.4062,-7.5195,-7.625,-7.7148,-7.7187,-7.7187,-7.7187,-7.7187,-7.7187,-7.7187,-7.7187,-7.7187,-7.7187,-7.8867,-7.9492,-7.918,-8.1211,-8.1953,-8.1484,-8.1622,-8.1613,-8.1362,-8.0823,-8.0746,-8.1208,-8.2516,-8.3247,-8.3747,-8.544,-8.6094,-8.6094,-8.6094,-8.6094,-8.6094,-8.6094,-8.6094,-8.6094,-8.6094,-8.6094,-8.6094,-8.6094,-8.6094,-8.6094,-8.6094,-8.6094,-8.6094,-8.6094,-8.6094,-8.6094,-8.6094,-8.6094,-8.6094,-8.6094,-8.6094,-8.6094,-8.6094,-8.6094,-8.6094,-8.6094,-8.6094,-8.6094,-8.6094,-8.6094,-8.6094,-8.6094,-8.6094,-8.6094,-8.6094,-8.6094,-8.6094,-8.6094,-8.6094,-8.6094,-8.6094,-8.6094,-8.6094,-8.6094,-8.6094,-8.6094,-8.6094,-8.6094,-8.6094,-8.6094,-8.6094,-8.6094,-8.6094,-8.6094,-8.6094,-4.0304,-4.006,-4.1508,-4.8971,0.0,0.0,0.0,0.0,0.0,0.0,0.0,0.0,0.0,0.0,-6.2743,-6.4359,-6.6782,-6.9167,-7.1118,-7.1436,-7.1589,-7.1866,-7.2709,-7.3633,-7.4531,-7.539,-7.625,-7.7148,-7.7187,-7.7187,-7.7187,-7.7187,-7.7187,-7.7187,-7.7187,-7.7187,-7.7187,-7.8867,-7.9687,-7.9726,-8.1484,-8.2265,-8.2187,-8.1972,-8.1773,-8.1554,-8.1362,-8.1208,-8.1246,-8.2901,-8.3593,-8.3747,-8.544,-8.6094,-8.6094,-8.6094,-8.6094,-8.6094,-8.6094,-8.6094,-8.6094,-8.6094,-8.6094,-8.6094,-8.6094,-8.6094,-8.6094,-8.6094,-8.6094,-8.6094,-8.6094,-8.6094,-8.6094,-8.6094,-8.6094,-8.6094,-8.6094,-8.6094,-8.6094,-8.6094,-8.6094,-8.6094,-8.6094,-8.6094,-8.6094,-8.6094,-8.6094,-8.6094,-8.6094,-8.6094,-8.6094,-8.6094,-8.6094,-8.6094,-8.6094,-8.6094,-8.6094,-8.6094,-8.6094,-8.6094,-8.6094,-8.6094,-8.6094,-8.6094,-8.6094,-8.6094,-8.6094,-8.6094,-8.6094,-8.6094,-8.6094,-8.6094,-4.0053,-3.9508,-4.0816,0.0,0.0,0.0,0.0,0.0,0.0,0.0,0.0,0.0,0.0,0.0,0.0,0.0,-6.7077,-6.9578,-7.1272,-7.1523,-7.1679,-7.1989,-7.2539,-7.3359,-7.4492,-7.5156,-7.5976,-7.7109,-7.7187,-7.7187,-7.7187,-7.7187,-7.7187,-7.7187,-7.7187,-7.7187,-7.7187,-7.8867,-7.9687,-7.9726,-8.1484,-8.2304,-8.2304,-8.2109,-8.1906,-8.1778,-8.1516,-8.1323,-8.1323,-8.2939,-8.3901,-8.4478,-8.5632,-8.6094,-8.6094,-8.6094,-8.6094,-8.6094,-8.6094,-8.6094,-8.6094,-8.6094,-8.6094,-8.6094,-8.6094,-8.6094,-8.6094,-8.6094,-8.6094,-8.6094,-8.6094,-8.6094,-8.6094,-8.6094,-8.6094,-8.6094,-8.6094,-8.6094,-8.6094,-8.6094,-8.6094,-8.6094,-8.6094,-8.6094,-8.6094,-8.6094,-8.6094,-8.6094,-8.6094,-8.6094,-8.6094,-8.6094,-8.6094,-8.6094,-8.6094,-8.6094,-8.6094,-8.6094,-8.6094,-8.6094,-8.6094,-8.6094,-8.6094,-8.6094,-8.6094,-8.6094,-8.6094,-8.6094,-8.6094,-8.6094,-8.6094,-8.6094,-3.9354,-3.87,0.0,0.0,0.0,0.0,0.0,0.0,0.0,0.0,0.0,0.0,0.0,0.0,0.0,0.0,0.0,-6.6511,-7.0887,-7.1618,-7.1784,-7.1986,-7.1992,-7.2695,-7.4414,-7.4609,-7.5312,-7.707,-7.7187,-7.7187,-7.7187,-7.7187,-7.7187,-7.7187,-7.7187,-7.7187,-7.7187,-7.8867,-7.9687,-7.9726,-8.1484,-8.2304,-8.2304,-8.2109,-8.1984,-8.2001,-8.1585,-8.14,-8.1516,-8.2978,-8.4593,-8.6094,-8.6094,-8.6094,-8.6094,-8.6094,-8.6094,-8.6094,-8.6094,-8.6094,-8.6094,-8.6094,-8.6094,-8.6094,-8.6094,-8.6094,-8.6094,-8.6094,-8.6094,-8.6094,-8.6094,-8.6094,-8.6094,-8.6094,-8.6094,-8.6094,-8.6094,-8.6094,-8.6094,-8.6094,-8.6094,-8.6094,-8.6094,-8.6094,-8.6094,-8.6094,-8.6094,-8.6094,-8.6094,-8.6094,-8.6094,-8.6094,-8.6094,-8.6094,-8.6094,-8.6094,-8.6094,-8.6094,-8.6094,-8.6094,-8.6094,-8.6094,-8.6094,-8.6094,-8.6094,-8.6094,-8.6094,-8.6094,-8.6094,-8.6094,-8.6094,-8.6094,-4.3816,0.0,0.0,0.0,0.0,0.0,0.0,-5.0356,0.0,0.0,0.0,0.0,0.0,0.0,0.0,0.0,0.0,-6.9654,-7.1299,-7.1529,-7.1654,-7.195,-7.2539,-7.3359,-7.4492,-7.5156,-7.5976,-7.7109,-7.7187,-7.7187,-7.7187,-7.7187,-7.7187,-7.7187,-7.7187,-7.7187,-7.7187,-7.8867,-7.9687,-7.9726,-8.1484,-8.2304,-8.2304,-8.2226,-8.2132,-8.1977,-8.1877,-8.1739,-8.1708,-8.3208,-8.4709,-8.6094,-8.6094,-8.6094,-8.6094,-8.6094,-8.6094,-8.6094,-8.6094,-8.6094,-8.6094,-8.6094,-8.6094,-8.6094,-8.6094,-8.6094,-8.6094,-8.6094,-8.6094,-8.6094,-8.6094,-8.6094,-8.6094,-8.6094,-8.6094,-8.6094,-8.6094,-8.6094,-8.6094,-8.6094,-8.6094,-8.6094,-8.6094,-8.6094,-8.6094,-8.6094,-8.6094,-8.6094,-8.6094,-8.6094,-8.6094,-8.6094,-8.6094,-8.6094,-8.6094,-8.6094,-8.6094,-8.6094,-8.6094,-8.6094,-8.6094,-8.6094,-8.6094,-8.6094,-8.6094,-8.6094,-8.6094,-8.6094,-8.6094,-8.6094,-8.6094,-8.6094,-4.5163,0.0,0.0,0.0,0.0,0.0,0.0,0.0,0.0,0.0,0.0,0.0,0.0,0.0,0.0,0.0,0.0,-7.121,-7.1455,-7.1589,-7.178,-7.1991,-7.2461,-7.3242,-7.4492,-7.5078,-7.5898,-7.7109,-7.7187,-7.7187,-7.7187,-7.7187,-7.7187,-7.7187,-7.7187,-7.7187,-7.7187,-7.8867,-7.9687,-7.9726,-8.1484,-8.2304,-8.2304,-8.2304,-8.2226,-8.2108,-8.2039,-8.2083,-8.2316,-8.341,-8.4709,-8.5901,-8.617,-8.6247,-8.6247,-8.6247,-8.6209,-8.6094,-8.6094,-8.6094,-8.6094,-8.6094,-8.6094,-8.6094,-8.6094,-8.6094,-8.6094,-8.6094,-8.6094,-8.6094,-8.6094,-8.6094,-8.6094,-8.6094,-8.6094,-8.6132,-8.6247,-8.617,-8.617,-8.6324,-8.6324,-8.6286,-8.6363,-8.6363,-8.6363,-8.6363,-8.6363,-8.6363,-8.6286,-8.6247,-8.6209,-8.6094,-8.6094,-8.6094,-8.6094,-8.6094,-8.6094,-8.6094,-8.6094,-8.6094,-8.6094,-8.6094,-8.6094,-8.6094,-8.6094,-8.6094,-8.6094,-8.6094,-8.6094,-8.6094,-8.6094,-8.6094,-4.5009,0.0,0.0,0.0,0.0,0.0,0.0,0.0,0.0,0.0,0.0,0.0,0.0,0.0,-7.0898,-7.0898,-7.1206,-7.1464,-7.1506,-7.1755,-7.1951,-7.1992,-7.1992,-7.2695,-7.4414,-7.4609,-7.5312,-7.707,-7.7187,-7.7187,-7.7187,-7.7187,-7.7187,-7.7187,-7.7187,-7.7187,-7.7187,-7.8789,-7.9648,-7.9726,-8.1406,-8.2226,-8.2304,-8.2304,-8.2304,-8.2304,-8.2109,-8.2422,-8.3073,-8.3695,-8.4566,-8.5593,-8.6268,-8.6531,-8.6531,-8.6511,-8.6363,-8.617,-8.617,-8.617,-8.6132,-8.6132,-8.6132,-8.6132,-8.6094,-8.6132,-8.6132,-8.6132,-8.6132,-8.6094,-8.617,-8.617,-8.6132,-8.617,-8.617,-8.6209,-8.6478,-8.6351,-8.6307,-8.6704,-8.6621,-8.6608,-8.6762,-8.6801,-8.6801,-8.6801,-8.6801,-8.6724,-8.6569,-8.6544,-8.644,-8.6209,-8.617,-8.6132,-8.6132,-8.6094,-8.6094,-8.6094,-8.6094,-8.6094,-8.6094,-8.6094,-8.6094,-8.6094,-8.6094,-8.6094,-8.6094,-8.6094,-8.6094,-8.6094,-8.6094,-8.6094,0.0,-4.824,0.0,0.0,0.0,0.0,0.0,0.0,0.0,0.0,0.0,0.0,-7.0167,-7.0898,-7.0898,-7.0898,-7.0975,-7.112,-7.1452,-7.1576,-7.1698,-7.1951,-7.1992,-7.2695,-7.4414,-7.4609,-7.5312,-7.707,-7.7187,-7.7187,-7.7187,-7.7187,-7.7187,-7.7187,-7.7187,-7.7187,-7.7187,-7.8242,-7.9062,-7.9726,-8.0781,-8.164,-8.2304,-8.2304,-8.2304,-8.2304,-8.2265,-8.2615,-8.3304,-8.4095,-8.4859,-8.5581,-8.6398,-8.6728,-8.6726,-8.6731,-8.6671,-8.6632,-8.6632,-8.6555,-8.6401,-8.6401,-8.6401,-8.6363,-8.617,-8.6247,-8.6401,-8.6401,-8.6247,-8.617,-8.6555,-8.6517,-8.644,-8.6594,-8.6517,-8.6478,-8.6671,-8.6713,-8.6677,-8.6794,-8.6752,-8.6728,-8.6767,-8.6806,-8.6806,-8.6806,-8.6806,-8.6767,-8.6728,-8.6721,-8.6709,-8.6632,-8.6517,-8.6401,-8.6401,-8.6209,-8.6094,-8.6094,-8.6094,-8.6094,-8.6094,-8.6094,-8.6094,-8.6094,-8.6094,-8.6094,-8.6094,-8.6094,-8.6094,-8.6094,-8.6094,-8.6094,0.0,0.0,0.0,0.0,0.0,0.0,0.0,0.0,0.0,0.0,0.0,-6.7744,-7.0398,-7.0898,-7.0898,-7.0898,-7.0975,-7.1146,-7.1472,-7.1563,-7.1714,-7.1952,-7.1992,-7.2695,-7.4414,-7.4609,-7.5312,-7.707,-7.7187,-7.7187,-7.7187,-7.7187,-7.7187,-7.7187,-7.7187,-7.7187,-7.7187,-7.8047,-7.8906,-7.9726,-8.0586,-8.1445,-8.2304,-8.2304,-8.2304,-8.2304,-8.2304,-8.25,-8.289,-8.3672,-8.4473,-8.5269,-8.6017,-8.6591,-8.6922,-8.6942,-8.6863,-8.6804,-8.6804,-8.6726,-8.6636,-8.6608,-8.6632,-8.6615,-8.6467,-8.652,-8.6632,-8.6632,-8.6529,-8.6494,-8.6762,-8.6713,-8.6687,-8.6916,-8.679,-8.6687,-8.6884,-8.6853,-8.6865,-8.7095,-8.7041,-8.6959,-8.7097,-8.7135,-8.7135,-8.7135,-8.7135,-8.7096,-8.694,-8.6922,-8.6885,-8.6815,-8.6687,-8.6633,-8.6627,-8.644,-8.6286,-8.6286,-8.617,-8.6094,-8.6094,-8.6094,-8.6094,-8.6094,-8.6094,-8.6094,-8.6094,-8.6094,-8.6094,-8.6094,-8.6517,-8.6709,0.0,0.0,0.0,0.0,0.0,0.0,0.0,0.0,-6.7821,-7.036,-7.0898,-7.0898,-7.0898,-7.0898,-7.0898,-7.0898,-7.1052,-7.1206,-7.1464,-7.1589,-7.1753,-7.1953,-7.1992,-7.2695,-7.4414,-7.4609,-7.5312,-7.707,-7.7187,-7.7187,-7.7187,-7.7187,-7.7187,-7.7187,-7.7187,-7.7187,-7.7187,-7.793,-7.8672,-7.9492,-8.0508,-8.1445,-8.2304,-8.2304,-8.2304,-8.2304,-8.2304,-8.2304,-8.2344,-8.3047,-8.3945,-8.4956,-8.5621,-8.6405,-8.7187,-8.7187,-8.7069,-8.6922,-8.6922,-8.6884,-8.6864,-8.6853,-8.6847,-8.6832,-8.6826,-8.6821,-8.6848,-8.6846,-8.6804,-8.6825,-8.692,-8.6886,-8.6937,-8.7133,-8.7023,-8.698,-8.7139,-8.7039,-8.705,-8.7423,-8.729,-8.7248,-8.7447,-8.75,-8.75,-8.75,-8.75,-8.7422,-8.7187,-8.7187,-8.7096,-8.6949,-8.6884,-8.686,-8.6842,-8.6674,-8.6524,-8.6511,-8.6286,-8.617,-8.6094,-8.6094,-8.6094,-8.6094,-8.6094,-8.6094,-8.6094,-8.6094,-8.617,-8.6324,-8.7055,-8.7478,0.0,0.0,-5.3126,0.0,-5.6011,-5.528,0.0,0.0,-6.3551,0.0,-7.0898,-7.0898,-7.0898,-7.0898,-7.0898,-7.0898,-7.0937,-7.1052,-7.1464,-7.1532,-7.1642,-7.1951,-7.1992,-7.2695,-7.4414,-7.4609,-7.5312,-7.707,-7.7187,-7.7187,-7.7187,-7.7187,-7.7187,-7.7187,-7.7187,-7.7187,-7.7187,-7.7305,-7.7812,-7.8672,-8.0234,-8.1445,-8.2304,-8.2304,-8.2304,-8.2304,-8.2304,-8.2304,-8.2383,-8.3203,-8.4101,-8.4961,-8.5807,-8.6672,-8.7461,-8.7461,-8.7421,-8.7416,-8.7416,-8.726,-8.7063,-8.7049,-8.7055,-8.7056,-8.6865,-8.693,-8.7065,-8.7058,-8.6945,-8.6894,-8.729,-8.7249,-8.714,-8.7391,-8.7456,-8.7436,-8.7456,-8.7447,-8.7414,-8.7479,-8.7475,-8.7447,-8.75,-8.75,-8.75,-8.75,-8.75,-8.75,-8.7461,-8.7461,-8.7421,-8.7416,-8.7182,-8.706,-8.7049,-8.6897,-8.6677,-8.6505,-8.6478,-8.6324,-8.6094,-8.6094,-8.6094,-8.6094,-8.6094,-8.6094,-8.6094,-8.6094,-8.6478,-8.7209,-8.7363,-8.7786,-4.9125,-4.9086,-5.0125,0.0,-5.6819,-5.3664,-6.5089,0.0,-6.2589,-6.8936,-7.0591,-7.0898,-7.0898,-7.0898,-7.0898,-7.0898,-7.0898,-7.1052,-7.1464,-7.1514,-7.1604,-7.1951,-7.1992,-7.2695,-7.4414,-7.4609,-7.5312,-7.707,-7.7187,-7.7187,-7.7187,-7.7187,-7.7187,-7.7187,-7.7187,-7.7187,-7.7187,-7.7187,-7.7851,-7.918,-8.039,-8.1445,-8.2304,-8.2304,-8.2304,-8.2304,-8.2304,-8.2304,-8.2344,-8.2695,-8.3398,-8.4258,-8.5117,-8.6015,-8.6836,-8.7304,-8.75,-8.75,-8.75,-8.7422,-8.7304,-8.7304,-8.7329,-8.7312,-8.7213,-8.7249,-8.7338,-8.7337,-8.727,-8.7258,-8.7459,-8.7401,-8.7362,-8.7479,-8.7517,-8.7481,-8.7495,-8.75,-8.75,-8.75,-8.75,-8.75,-8.75,-8.75,-8.75,-8.75,-8.75,-8.75,-8.75,-8.75,-8.75,-8.75,-8.7383,-8.7304,-8.7304,-8.7123,-8.6896,-8.6693,-8.6538,-8.6363,-8.6094,-8.6094,-8.6094,-8.6094,-8.6094,-8.6094,-8.6094,-8.6594,-8.7017,-8.7401,-8.8363,-8.9017,0.0,0.0,-4.7778,-5.9435,-5.5665,-5.1548,0.0,0.0,-6.055,0.0,-6.9436,-7.0898,-7.0898,-7.0898,-7.0898,-7.0898,-7.0898,-7.1052,-7.1464,-7.1514,-7.1604,-7.1951,-7.1992,-7.2695,-7.4414,-7.4609,-7.5312,-7.707,-7.7187,-7.7187,-7.7187,-7.7187,-7.7187,-7.7187,-7.7187,-7.7187,-7.7187,-7.7187,-7.8047,-7.9726,-8.0351,-8.125,-8.2304,-8.2304,-8.2304,-8.2304,-8.2304,-8.2304,-8.2304,-8.2304,-8.2812,-8.3672,-8.457,-8.5429,-8.6328,-8.7187,-8.75,-8.75,-8.75,-8.75,-8.75,-8.75,-8.75,-8.75,-8.75,-8.75,-8.75,-8.75,-8.75,-8.75,-8.75,-8.75,-8.75,-8.75,-8.75,-8.75,-8.75,-8.75,-8.75,-8.75,-8.75,-8.75,-8.75,-8.75,-8.75,-8.75,-8.75,-8.75,-8.75,-8.75,-8.75,-8.75,-8.75,-8.75,-8.75,-8.7304,-8.7092,-8.6896,-8.6687,-8.644,-8.6209,-8.6132,-8.6094,-8.6094,-8.6094,-8.6094,-8.6094,-8.6978,-8.7517,-8.7786,-8.921,-9.0017,-4.6009,-4.7009,0.0,-5.1664,-4.8586,-4.6047,0.0,0.0,-5.528,-6.1281,-6.6974,-7.0898,-7.0898,-7.0898,-7.0898,-7.0898,-7.0898,-7.1052,-7.1464,-7.1514,-7.1604,-7.1951,-7.1992,-7.2695,-7.4414,-7.4609,-7.5312,-7.707,-7.7187,-7.7187,-7.7187,-7.7187,-7.7187,-7.7187,-7.7187,-7.7187,-7.7187,-7.7187,-7.8047,-7.9687,-7.9765,-8.0664,-8.2304,-8.2304,-8.2304,-8.2304,-8.2304,-8.2304,-8.2304,-8.2304,-8.2812,-8.3672,-8.457,-8.5429,-8.6328,-8.7187,-8.75,-8.75,-8.75,-8.75,-8.75,-8.75,-8.75,-8.75,-8.75,-8.75,-8.75,-8.75,-8.75,-8.75,-8.75,-8.75,-8.75,-8.75,-8.75,-8.75,-8.75,-8.75,-8.75,-8.75,-8.75,-8.75,-8.75,-8.75,-8.75,-8.75,-8.75,-8.75,-8.75,-8.75,-8.75,-8.75,-8.75,-8.75,-8.75,-8.75,-8.7382,-8.7108,-8.6881,-8.6671,-8.6478,-8.6247,-8.6094,-8.6094,-8.6094,-8.6094,-8.6094,-8.6978,-8.7825,-8.8632,-8.9517,-9.0364,-4.574,-4.4509,0.0,-5.0933,-4.6009,-4.1623,-5.001,-5.2587,-5.3818,-5.5934,-6.4128,-6.9898,-6.6628,-6.8706,-7.0898,-7.0898,-7.1014,-7.1168,-7.1464,-7.1593,-7.1736,-7.1988,-7.1992,-7.2461,-7.3633,-7.4258,-7.5078,-7.6289,-7.3789,-7.3672,-7.7031,-7.4062,-7.3789,-7.7109,-7.7187,-7.7187,-7.7187,-7.7187,-7.7773,-7.8945,-7.9453,-8.0312,-8.1484,-8.2031,-8.2304,-8.2304,-8.2304,-8.2304,-8.2304,-8.2304,-8.2461,-8.289,-8.4336,-8.5078,-8.5547,-8.6953,-8.75,-8.75,-8.75,-8.75,-8.75,-8.75,-8.75,-8.75,-8.75,-8.75,-8.75,-8.75,-8.75,-8.75,-8.75,-8.75,-8.75,-8.75,-8.75,-8.75,-8.75,-8.75,-8.75,-8.75,-8.75,-8.75,-8.75,-8.75,-8.75,-8.75,-8.75,-8.75,-8.75,-8.75,-8.75,-8.75,-8.75,-8.75,-8.75,-8.75,-8.7383,-8.7109,-8.7042,-8.6825,-8.6505,-8.6401,-8.6286,-8.6094,-8.6094,-8.6094,-8.6094,-8.7555,-8.8402,-8.8709,-9.0094,-9.0902,-4.397,-4.2277,0.0,0.0,-4.2777,-3.8815,-4.5316,-4.9894,-5.2856,-5.3126,-6.2435,-6.9552,-6.6436,-6.8629,-7.0898,-7.0898,-7.1014,-7.1171,-7.1433,-7.1595,-7.1719,-7.1988,-7.1992,-7.2344,-7.3203,-7.4101,-7.4961,-7.582,-7.3476,-7.3515,-7.6992,-7.3945,-7.3672,-7.7109,-7.7187,-7.7187,-7.7187,-7.7187,-7.7656,-7.8515,-7.9336,-8.0156,-8.1015,-8.1914,-8.2304,-8.2304,-8.2304,-8.2304,-8.2304,-8.2304,-8.2304,-8.2422,-8.3906,-8.4648,-8.5078,-8.6523,-8.7265,-8.75,-8.75,-8.75,-8.75,-8.75,-8.75,-8.75,-8.75,-8.75,-8.75,-8.75,-8.75,-8.75,-8.75,-8.75,-8.75,-8.75,-8.75,-8.75,-8.75,-8.75,-8.75,-8.75,-8.75,-8.75,-8.75,-8.75,-8.75,-8.75,-8.75,-8.75,-8.75,-8.75,-8.75,-8.75,-8.75,-8.75,-8.75,-8.75,-8.7422,-8.7265,-8.7148,-8.6978,-8.6704,-8.6636,-8.6478,-8.6247,-8.6247,-8.6324,-8.6555,-8.7979,-8.8825,-8.9133,-9.0556,-9.121,0.0,0.0,0.0,-3.9508,-3.8661,-3.7815,-3.693,-4.4509,-5.1972,-5.2818,-6.1781,-6.9706,-7.0514,-7.0783,-7.0898,-7.0898,-7.0898,-7.1053,-7.1451,-7.1523,-7.1653,-7.1951,-7.1992,-7.2344,-7.3164,-7.4062,-7.4961,-7.5781,-7.6562,-7.7031,-7.7187,-7.7187,-7.7187,-7.7187,-7.7187,-7.7187,-7.7187,-7.7187,-7.7617,-7.8476,-7.9297,-8.0156,-8.0976,-8.1875,-8.2304,-8.2304,-8.2304,-8.2304,-8.2304,-8.2304,-8.2304,-8.2383,-8.3242,-8.414,-8.5,-8.5898,-8.6758,-8.75,-8.75,-8.75,-8.75,-8.75,-8.75,-8.75,-8.75,-8.75,-8.75,-8.75,-8.75,-8.75,-8.75,-8.75,-8.75,-8.75,-8.75,-8.75,-8.75,-8.75,-8.75,-8.75,-8.75,-8.75,-8.75,-8.75,-8.75,-8.75,-8.75,-8.75,-8.75,-8.75,-8.75,-8.75,-8.75,-8.75,-8.75,-8.75,-8.75,-8.75,-8.7265,-8.7109,-8.7109,-8.6902,-8.6698,-8.6511,-8.6511,-8.6786,-8.744,-8.8286,-8.9094,-8.994,-9.0787,-9.121,-4.0508,0.0,0.0,0.0,0.0,0.0,-3.7853,-4.2662,-4.7394,-4.7663,-5.6511,-6.4436,-6.5243,-6.8398,-7.0937,-7.1091,-7.1245,-7.1364,-7.1463,-7.1692,-7.1903,-7.1992,-7.1992,-7.2109,-7.2344,-7.3711,-7.4687,-7.4922,-7.2851,-7.3203,-7.6992,-7.7187,-7.7187,-7.7187,-7.7187,-7.7187,-7.7187,-7.7187,-7.7305,-7.7578,-7.9023,-7.9844,-8.0117,-8.1601,-8.2304,-8.2304,-8.2304,-8.2304,-8.2304,-8.2304,-8.2304,-8.2383,-8.3242,-8.414,-8.5,-8.5898,-8.6758,-8.75,-8.75,-8.75,-8.75,-8.75,-8.75,-8.75,-8.75,-8.75,-8.75,-8.75,-8.75,-8.75,-8.75,-8.75,-8.75,-8.75,-8.75,-8.75,-8.75,-8.75,-8.75,-8.75,-8.75,-8.75,-8.75,-8.75,-8.75,-8.75,-8.75,-8.75,-8.75,-8.75,-8.75,-8.75,-8.75,-8.75,-8.75,-8.75,-8.75,-8.75,-8.7422,-8.7304,-8.7109,-8.7069,-8.687,-8.6519,-8.6508,-8.7094,-8.8325,-8.8556,-8.9094,-8.994,-9.0787,-9.121,-4.0508,-4.0508,-4.0508,-4.0508,0.0,0.0,-3.82,-4.3585,-4.8779,-4.8779,-5.755,-6.4859,-6.3551,-6.5769,-6.7883,-6.8001,-6.8218,-6.9113,-7.1283,-7.1744,-7.1924,-7.199,-7.1992,-7.1992,-7.1992,-7.3242,-7.4219,-7.457,-7.3047,-7.3594,-7.7031,-7.7187,-7.7187,-7.7187,-7.7187,-7.7187,-7.7187,-7.7187,-7.7187,-7.7226,-7.8906,-7.9687,-7.9765,-8.1523,-8.2304,-8.2304,-8.2304,-8.2304,-8.2304,-8.2304,-8.2304,-8.2344,-8.2851,-8.3594,-8.4453,-8.5351,-8.6211,-8.6992,-8.7383,-8.75,-8.75,-8.75,-8.75,-8.75,-8.75,-8.75,-8.75,-8.75,-8.75,-8.75,-8.75,-8.75,-8.75,-8.75,-8.75,-8.75,-8.75,-8.75,-8.75,-8.75,-8.75,-8.75,-8.75,-8.75,-8.75,-8.75,-8.75,-8.75,-8.75,-8.75,-8.75,-8.75,-8.75,-8.75,-8.75,-8.75,-8.75,-8.75,-8.75,-8.7422,-8.7265,-8.7265,-8.7104,-8.6752,-8.667,-8.7286,-8.8709,-8.8709,-8.9286,-9.0441,-9.0979,-9.121,-4.0508,-4.0508,-4.0508,-4.0508,-3.9969,0.0,-3.8354,-4.5086,-5.1702,-5.2259,-6.0142,-6.5987,-6.2925,-6.2439,-6.2593,-6.2743,-6.3002,-6.4945,-7.0102,-7.1364,-7.1589,-7.1205,-7.164,-7.1992,-7.1992,-7.2773,-7.3672,-7.4531,-7.5508,-7.6367,-7.7148,-7.7187,-7.7187,-7.7187,-7.7187,-7.7187,-7.7187,-7.7187,-7.7187,-7.7226,-7.8906,-7.9687,-7.9765,-8.1523,-8.2304,-8.2304,-8.2304,-8.2304,-8.2304,-8.2304,-8.2304,-8.2304,-8.2304,-8.2812,-8.3711,-8.457,-8.5469,-8.6328,-8.7187,-8.75,-8.75,-8.75,-8.75,-8.75,-8.75,-8.75,-8.75,-8.75,-8.75,-8.75,-8.75,-8.75,-8.75,-8.75,-8.75,-8.75,-8.75,-8.75,-8.75,-8.75,-8.75,-8.75,-8.75,-8.75,-8.75,-8.75,-8.75,-8.75,-8.75,-8.75,-8.75,-8.75,-8.75,-8.75,-8.75,-8.75,-8.75,-8.75,-8.75,-8.75,-8.75,-8.75,-8.736,-8.7099,-8.707,-8.7594,-8.8709,-8.8902,-8.9748,-9.121,-9.121,-9.121,-4.0508,-4.0508,-4.0508,-4.0508,-4.0485,0.0,-3.933,-4.0215,-4.236,-4.6454,-4.8482,-5.0926,-5.5606,-5.6472,-5.6759,-5.7595,-5.7745,-5.9595,-6.4792,-6.9211,-7.0405,-6.6289,-6.9453,-7.1992,-7.1992,-7.2773,-7.3672,-7.4531,-7.6055,-7.7031,-7.7187,-7.7187,-7.7187,-7.7187,-7.7187,-7.7187,-7.7187,-7.7187,-7.7187,-7.7226,-7.8906,-7.9687,-7.9765,-8.1523,-8.2304,-8.2304,-8.2304,-8.2304,-8.2304,-8.2304,-8.2304,-8.2304,-8.2304,-8.2812,-8.3711,-8.457,-8.5469,-8.6328,-8.7187,-8.75,-8.75,-8.75,-8.75,-8.75,-8.75,-8.75,-8.75,-8.75,-8.75,-8.75,-8.75,-8.75,-8.75,-8.75,-8.75,-8.75,-8.75,-8.75,-8.75,-8.75,-8.75,-8.75,-8.75,-8.75,-8.75,-8.75,-8.75,-8.75,-8.75,-8.75,-8.75,-8.75,-8.75,-8.75,-8.75,-8.75,-8.75,-8.75,-8.75,-8.75,-8.75,-8.75,-8.7377,-8.7102,-8.8079,-8.8671,-8.894,-9.0133,-9.0864,-9.121,-9.121,-9.121,-4.0508,-4.0562,-4.06,-4.06,-4.0677,0.0,0.0,-4.1474,-4.3812,-4.557,-4.823,-5.0429,-5.0932,-5.1392,-5.1897,-5.2423,-5.2589,-5.3527,-5.6102,-6.3227,-6.8164,-6.8125,-7.043,-7.1992,-7.1992,-7.2383,-7.3203,-7.4492,-7.6211,-7.7187,-7.7187,-7.7187,-7.7187,-7.7187,-7.7187,-7.7187,-7.7187,-7.7187,-7.7187,-7.7226,-7.8906,-7.9687,-7.9765,-8.1523,-8.2304,-8.2304,-8.2304,-8.2304,-8.2304,-8.2304,-8.2304,-8.2304,-8.2304,-8.2578,-8.3047,-8.3945,-8.4804,-8.5664,-8.6562,-8.7148,-8.75,-8.75,-8.75,-8.75,-8.75,-8.75,-8.75,-8.75,-8.75,-8.75,-8.75,-8.75,-8.75,-8.75,-8.75,-8.75,-8.75,-8.75,-8.75,-8.75,-8.75,-8.75,-8.75,-8.75,-8.75,-8.75,-8.75,-8.75,-8.75,-8.75,-8.75,-8.75,-8.75,-8.75,-8.75,-8.75,-8.75,-8.75,-8.75,-8.75,-8.75,-8.75,-8.7383,-8.7109,-8.8584,-8.9244,-8.8983,-9.0594,-9.1287,-9.121,-9.121,-9.121,-4.0777,-4.087,-4.0924,-4.0766,-4.0776,-4.0675,0.0,0.0,0.0,-4.5006,-4.895,-5.1236,-4.6635,-4.6408,-4.695,-4.6992,-4.7242,-4.7692,-4.8545,-5.5976,-6.289,-6.707,-6.8437,-6.9023,-6.9023,-7.0234,-7.1992,-7.4414,-7.6211,-7.7187,-7.7187,-7.7187,-7.7187,-7.7187,-7.7187,-7.7187,-7.7187,-7.7187,-7.7187,-7.7226,-7.875,-7.9531,-7.9765,-8.1328,-8.2148,-8.2304,-8.2304,-8.2304,-8.2304,-8.2304,-8.2304,-8.2304,-8.2304,-8.2304,-8.2422,-8.3281,-8.414,-8.5039,-8.5898,-8.6758,-8.75,-8.75,-8.75,-8.75,-8.75,-8.75,-8.75,-8.75,-8.75,-8.75,-8.75,-8.75,-8.75,-8.75,-8.75,-8.75,-8.75,-8.75,-8.75,-8.75,-8.75,-8.75,-8.75,-8.75,-8.75,-8.75,-8.75,-8.75,-8.75,-8.75,-8.75,-8.75,-8.75,-8.75,-8.75,-8.75,-8.75,-8.75,-8.75,-8.75,-8.75,-8.75,-8.7383,-8.7187,-8.8844,-8.9523,-8.9171,-9.0787,-9.1441,-9.121,-9.121,-9.121,-4.1832,-4.1886,-4.1745,-4.0966,-4.0873,-4.0962,-4.0853,0.0,-4.0819,-4.0623,0.0,-4.0619,-4.0697,0.0,0.0,-4.0896,-4.1574,-4.3386,-4.7226,-4.9414,-5.0859,-5.1445,-5.5547,-5.8359,-5.8359,-6.3906,-6.9453,-7.4258,-7.6211,-7.7187,-7.7187,-7.7187,-7.7187,-7.7187,-7.7187,-7.7187,-7.7187,-7.7187,-7.7187,-7.7226,-7.8164,-7.9023,-7.9726,-8.0703,-8.1562,-8.2304,-8.2304,-8.2304,-8.2304,-8.2304,-8.2304,-8.2304,-8.2304,-8.2304,-8.2422,-8.3281,-8.414,-8.5039,-8.5898,-8.6758,-8.75,-8.75,-8.75,-8.75,-8.75,-8.75,-8.75,-8.75,-8.75,-8.75,-8.75,-8.75,-8.75,-8.75,-8.75,-8.75,-8.75,-8.75,-8.75,-8.75,-8.75,-8.75,-8.75,-8.75,-8.75,-8.75,-8.75,-8.75,-8.75,-8.75,-8.75,-8.75,-8.75,-8.75,-8.75,-8.75,-8.75,-8.75,-8.75,-8.75,-8.75,-8.75,-8.75,-8.7461,-8.8937,-8.965,-8.9633,-9.1095,-9.1633,-9.121,-9.121,-9.121,-4.5685,-4.653,-4.6432,-4.6189,-4.5774,-4.5449,-4.5566,-4.3024,-4.0508,-4.0,0.0,0.0,0.0,0.0,0.0,0.0,-4.0955,-4.1836,-4.3633,-4.4219,-4.6641,-5.2656,-5.5273,-5.7773,-6.0781,-6.1914,-6.457,-6.9726,-7.1719,-7.2656,-7.2656,-7.5547,-7.7187,-7.7187,-7.7187,-7.7187,-7.7187,-7.7187,-7.7187,-7.7226,-7.8086,-7.8906,-7.9726,-8.0586,-8.1484,-8.2304,-8.2304,-8.2304,-8.2304,-8.2304,-8.2304,-8.2304,-8.2304,-8.2304,-8.2344,-8.2695,-8.3711,-8.4961,-8.5312,-8.6367,-8.75,-8.75,-8.75,-8.75,-8.75,-8.75,-8.75,-8.75,-8.75,-8.75,-8.75,-8.75,-8.75,-8.75,-8.75,-8.75,-8.75,-8.75,-8.75,-8.75,-8.75,-8.75,-8.75,-8.75,-8.75,-8.75,-8.75,-8.75,-8.75,-8.75,-8.75,-8.75,-8.75,-8.75,-8.75,-8.75,-8.75,-8.75,-8.75,-8.75,-8.75,-8.75,-8.75,-8.75,-8.9062,-8.9818,-8.9713,-9.1301,-9.1901,-9.1592,-9.1445,-9.1325,-5.0831,-5.1874,-5.1509,-5.0046,-4.9187,-4.8359,-4.707,-4.3906,-4.1016,-4.0391,-4.0742,0.0,0.0,0.0,-4.1133,-4.0898,0.0,-4.1133,-4.0898,-4.1055,-4.3984,-5.1484,-5.3633,-5.5976,-5.9726,-5.9531,-6.0742,-6.4492,-6.7656,-6.9414,-6.9414,-7.4375,-7.7187,-7.7187,-7.7187,-7.7187,-7.7187,-7.7187,-7.7187,-7.7226,-7.7851,-7.8672,-7.9726,-8.0351,-8.125,-8.2304,-8.2304,-8.2304,-8.2304,-8.2304,-8.2304,-8.2304,-8.2304,-8.2304,-8.2304,-8.2304,-8.3398,-8.4883,-8.4883,-8.6054,-8.75,-8.75,-8.75,-8.75,-8.75,-8.75,-8.75,-8.75,-8.75,-8.75,-8.75,-8.75,-8.75,-8.75,-8.75,-8.75,-8.75,-8.75,-8.75,-8.75,-8.75,-8.75,-8.75,-8.75,-8.75,-8.75,-8.75,-8.75,-8.75,-8.75,-8.75,-8.75,-8.75,-8.75,-8.75,-8.75,-8.75,-8.75,-8.75,-8.75,-8.75,-8.75,-8.75,-8.75,-8.914,-8.9922,-8.9804,-9.1504,-9.2177,-9.1992,-9.1668,-9.1402,-5.7089,-5.726,-5.5972,-5.0313,-4.8916,-4.7578,-4.2578,-4.1328,-4.1172,-4.1172,-4.1172,-4.1172,-4.1172,-4.1172,-4.0937,-4.0078,-4.0664,0.0,0.0,-4.0664,-4.1328,-4.1641,-4.6094,-4.9219,-4.9375,-5.5351,-5.9258,-5.9414,-6.5625,-6.9414,-6.9414,-7.4375,-7.7187,-7.7187,-7.7187,-7.7187,-7.7187,-7.7187,-7.7187,-7.7187,-7.7226,-7.8086,-7.9687,-7.9726,-8.0664,-8.2304,-8.2304,-8.2304,-8.2304,-8.2304,-8.2304,-8.2304,-8.2304,-8.2304,-8.2304,-8.2304,-8.3398,-8.4883,-8.4883,-8.6054,-8.75,-8.75,-8.75,-8.75,-8.75,-8.75,-8.75,-8.75,-8.75,-8.75,-8.75,-8.75,-8.75,-8.75,-8.75,-8.75,-8.75,-8.75,-8.75,-8.75,-8.75,-8.75,-8.75,-8.75,-8.75,-8.75,-8.75,-8.75,-8.75,-8.75,-8.75,-8.75,-8.75,-8.75,-8.75,-8.75,-8.75,-8.75,-8.75,-8.75,-8.75,-8.75,-8.75,-8.75,-8.914,-9.0,-9.0,-9.1757,-9.245,-9.2187,-9.1745,-9.1479,-6.1481,-6.2414,-6.1956,-6.0194,-5.6641,-5.3206,-5.1714,-4.6094,-4.1211,-4.1211,-4.1211,-4.1211,-4.1211,-4.1211,-4.1094,-4.082,-4.1016,-4.1094,0.0,-4.1016,-4.1211,-4.1211,-4.2734,-4.5156,-4.8555,-4.8945,-5.0351,-5.3789,-5.7265,-5.9219,-5.9219,-6.7344,-7.207,-7.2109,-7.543,-7.7187,-7.7187,-7.7187,-7.7187,-7.7226,-7.7773,-7.8633,-7.9726,-8.0312,-8.1211,-8.2304,-8.2304,-8.2304,-8.2304,-8.2304,-8.2304,-8.2304,-8.2304,-8.2304,-8.2304,-8.2304,-8.3398,-8.5078,-8.6211,-8.6992,-8.75,-8.75,-8.75,-8.75,-8.75,-8.75,-8.75,-8.75,-8.75,-8.75,-8.75,-8.75,-8.75,-8.75,-8.75,-8.75,-8.75,-8.75,-8.75,-8.75,-8.75,-8.75,-8.75,-8.75,-8.75,-8.75,-8.75,-8.75,-8.75,-8.75,-8.75,-8.75,-8.75,-8.75,-8.75,-8.75,-8.75,-8.75,-8.75,-8.75,-8.75,-8.75,-8.75,-8.75,-8.914,-9.0,-9.0,-9.1758,-9.2533,-9.2457,-9.211,-9.1801,-6.7176,-6.8021,-6.7537,-6.5648,-6.2184,-5.8721,-5.6905,-5.1367,-4.6555,-4.6558,-4.6635,-4.5976,-4.3739,-4.3669,-4.3203,-4.1016,-4.0976,-4.1211,0.0,-4.1211,-4.1211,-4.1211,-4.2812,-4.4648,-4.6406,-4.6484,-4.7187,-4.8984,-5.2148,-5.3984,-5.3984,-6.3789,-6.9414,-6.9492,-7.4492,-7.7187,-7.7187,-7.7187,-7.7187,-7.7226,-7.8086,-7.8906,-7.9726,-8.0586,-8.1484,-8.2304,-8.2304,-8.2304,-8.2304,-8.2304,-8.2304,-8.2304,-8.2304,-8.2304,-8.2304,-8.2304,-8.3398,-8.5156,-8.6914,-8.75,-8.75,-8.75,-8.75,-8.75,-8.75,-8.75,-8.7383,-8.6758,-8.7031,-8.7344,-8.6758,-8.7031,-8.75,-8.75,-8.75,-8.75,-8.75,-8.75,-8.75,-8.75,-8.75,-8.75,-8.75,-8.75,-8.75,-8.75,-8.75,-8.75,-8.75,-8.75,-8.75,-8.75,-8.75,-8.75,-8.75,-8.75,-8.75,-8.75,-8.75,-8.75,-8.75,-8.75,-8.75,-8.75,-8.914,-9.0,-9.0,-9.1758,-9.2617,-9.2617,-9.2422,-9.2108]}]]